<?xml version="1.0" encoding="utf-8"?>
<gpx xmlns:xsi="http://www.w3.org/2001/XMLSchema-instance" xmlns:xsd="http://www.w3.org/2001/XMLSchema" version="1.1" creator="Shapelink.com" xmlns="http://www.topografix.com/GPX/1/1" xmlns:gpxtpx="http://www.garmin.com/xmlschemas/TrackPointExtension/v1">
  <metadata>
    <name>Cykling 30.46 km, 2016-05-03</name>
    <desc></desc>
    <author><name>Alexander Engvall</name></author> 
    <time>2016-05-03T17:14:05Z</time>
  </metadata>
  <trk>
    <name>Cykling 30.46 km, 2016-05-03</name>
    <trkseg>
      <trkpt lat="59.334484807655" lon="18.059630340616">
        <ele>0</ele>
        <time>2016-05-03T17:14:05Z</time>
      </trkpt>
      <trkpt lat="59.334474833194" lon="18.059604272907">
        <ele>0</ele>
        <time>2016-05-03T17:14:08Z</time>
      </trkpt>
      <trkpt lat="59.334443401069" lon="18.059497152225">
        <ele>0</ele>
        <time>2016-05-03T17:14:09Z</time>
      </trkpt>
      <trkpt lat="59.334347595952" lon="18.059316606099">
        <ele>0</ele>
        <time>2016-05-03T17:14:17Z</time>
      </trkpt>
      <trkpt lat="59.334291940136" lon="18.059202276983">
        <ele>0</ele>
        <time>2016-05-03T17:14:20Z</time>
      </trkpt>
      <trkpt lat="59.334252629025" lon="18.059198672766">
        <ele>0</ele>
        <time>2016-05-03T17:14:22Z</time>
      </trkpt>
      <trkpt lat="59.334142071764" lon="18.059236307497">
        <ele>0</ele>
        <time>2016-05-03T17:14:27Z</time>
      </trkpt>
      <trkpt lat="59.334092283278" lon="18.059254831496">
        <ele>0</ele>
        <time>2016-05-03T17:14:29Z</time>
      </trkpt>
      <trkpt lat="59.33390519927" lon="18.059291208942">
        <ele>0</ele>
        <time>2016-05-03T17:14:37Z</time>
      </trkpt>
      <trkpt lat="59.333876114077" lon="18.059241168999">
        <ele>0</ele>
        <time>2016-05-03T17:14:38Z</time>
      </trkpt>
      <trkpt lat="59.333825906496" lon="18.059087277315">
        <ele>0</ele>
        <time>2016-05-03T17:14:40Z</time>
      </trkpt>
      <trkpt lat="59.333798916778" lon="18.058988035619">
        <ele>0</ele>
        <time>2016-05-03T17:14:41Z</time>
      </trkpt>
      <trkpt lat="59.333771172689" lon="18.058891643769">
        <ele>0</ele>
        <time>2016-05-03T17:14:42Z</time>
      </trkpt>
      <trkpt lat="59.333745356437" lon="18.058794749005">
        <ele>0</ele>
        <time>2016-05-03T17:14:43Z</time>
      </trkpt>
      <trkpt lat="59.333714259588" lon="18.05870464358">
        <ele>0</ele>
        <time>2016-05-03T17:14:44Z</time>
      </trkpt>
      <trkpt lat="59.333680815807" lon="18.058617304182">
        <ele>0</ele>
        <time>2016-05-03T17:14:45Z</time>
      </trkpt>
      <trkpt lat="59.333654245184" lon="18.058531305888">
        <ele>0</ele>
        <time>2016-05-03T17:14:46Z</time>
      </trkpt>
      <trkpt lat="59.333567576338" lon="18.058434578762">
        <ele>0</ele>
        <time>2016-05-03T17:14:49Z</time>
      </trkpt>
      <trkpt lat="59.333456097068" lon="18.058534239553">
        <ele>0</ele>
        <time>2016-05-03T17:14:52Z</time>
      </trkpt>
      <trkpt lat="59.333408068781" lon="18.058601378572">
        <ele>0</ele>
        <time>2016-05-03T17:14:53Z</time>
      </trkpt>
      <trkpt lat="59.333253674183" lon="18.058785612734">
        <ele>0</ele>
        <time>2016-05-03T17:14:56Z</time>
      </trkpt>
      <trkpt lat="59.333104979277" lon="18.058885860258">
        <ele>0</ele>
        <time>2016-05-03T17:14:59Z</time>
      </trkpt>
      <trkpt lat="59.33300079226" lon="18.058722329389">
        <ele>0</ele>
        <time>2016-05-03T17:15:01Z</time>
      </trkpt>
      <trkpt lat="59.332929378472" lon="18.058468106362">
        <ele>0</ele>
        <time>2016-05-03T17:15:03Z</time>
      </trkpt>
      <trkpt lat="59.332883110384" lon="18.058340366206">
        <ele>0</ele>
        <time>2016-05-03T17:15:04Z</time>
      </trkpt>
      <trkpt lat="59.332840027418" lon="18.058217403733">
        <ele>0</ele>
        <time>2016-05-03T17:15:05Z</time>
      </trkpt>
      <trkpt lat="59.332800632488" lon="18.058100057133">
        <ele>0</ele>
        <time>2016-05-03T17:15:06Z</time>
      </trkpt>
      <trkpt lat="59.33276777544" lon="18.058002491817">
        <ele>0</ele>
        <time>2016-05-03T17:15:07Z</time>
      </trkpt>
      <trkpt lat="59.332727877596" lon="18.057872404729">
        <ele>0</ele>
        <time>2016-05-03T17:15:09Z</time>
      </trkpt>
      <trkpt lat="59.332679094938" lon="18.057810378669">
        <ele>0</ele>
        <time>2016-05-03T17:15:12Z</time>
      </trkpt>
      <trkpt lat="59.332639616189" lon="18.057763942943">
        <ele>0</ele>
        <time>2016-05-03T17:15:14Z</time>
      </trkpt>
      <trkpt lat="59.332572812446" lon="18.057709963507">
        <ele>0</ele>
        <time>2016-05-03T17:15:17Z</time>
      </trkpt>
      <trkpt lat="59.332509277644" lon="18.057684398712">
        <ele>0</ele>
        <time>2016-05-03T17:15:20Z</time>
      </trkpt>
      <trkpt lat="59.332505170513" lon="18.057656319347">
        <ele>0</ele>
        <time>2016-05-03T17:15:21Z</time>
      </trkpt>
      <trkpt lat="59.332489747817" lon="18.057612901105">
        <ele>0</ele>
        <time>2016-05-03T17:15:22Z</time>
      </trkpt>
      <trkpt lat="59.332424536635" lon="18.057381393027">
        <ele>0</ele>
        <time>2016-05-03T17:15:26Z</time>
      </trkpt>
      <trkpt lat="59.33240819193" lon="18.057304111909">
        <ele>0</ele>
        <time>2016-05-03T17:15:27Z</time>
      </trkpt>
      <trkpt lat="59.33238136985" lon="18.05727385325">
        <ele>0</ele>
        <time>2016-05-03T17:15:28Z</time>
      </trkpt>
      <trkpt lat="59.332326468405" lon="18.057297071113">
        <ele>0</ele>
        <time>2016-05-03T17:15:30Z</time>
      </trkpt>
      <trkpt lat="59.332184646657" lon="18.057374519869">
        <ele>0</ele>
        <time>2016-05-03T17:15:36Z</time>
      </trkpt>
      <trkpt lat="59.332079537631" lon="18.057455572842">
        <ele>0</ele>
        <time>2016-05-03T17:15:38Z</time>
      </trkpt>
      <trkpt lat="59.332039975063" lon="18.05749429722">
        <ele>0</ele>
        <time>2016-05-03T17:15:39Z</time>
      </trkpt>
      <trkpt lat="59.331896728392" lon="18.0575797926">
        <ele>0</ele>
        <time>2016-05-03T17:15:43Z</time>
      </trkpt>
      <trkpt lat="59.331781812543" lon="18.057612649648">
        <ele>0</ele>
        <time>2016-05-03T17:15:49Z</time>
      </trkpt>
      <trkpt lat="59.331771251349" lon="18.057615918589">
        <ele>0</ele>
        <time>2016-05-03T17:15:53Z</time>
      </trkpt>
      <trkpt lat="59.331766222209" lon="18.057626479783">
        <ele>0</ele>
        <time>2016-05-03T17:16:06Z</time>
      </trkpt>
      <trkpt lat="59.331748452581" lon="18.05766780255">
        <ele>0</ele>
        <time>2016-05-03T17:16:08Z</time>
      </trkpt>
      <trkpt lat="59.33172674346" lon="18.057688505843">
        <ele>0</ele>
        <time>2016-05-03T17:16:09Z</time>
      </trkpt>
      <trkpt lat="59.331663124839" lon="18.057761596011">
        <ele>0</ele>
        <time>2016-05-03T17:16:10Z</time>
      </trkpt>
      <trkpt lat="59.331364142466" lon="18.05810869049">
        <ele>0</ele>
        <time>2016-05-03T17:16:15Z</time>
      </trkpt>
      <trkpt lat="59.33130261932" lon="18.0581749075">
        <ele>0</ele>
        <time>2016-05-03T17:16:16Z</time>
      </trkpt>
      <trkpt lat="59.331063148437" lon="18.058451258743">
        <ele>0</ele>
        <time>2016-05-03T17:16:21Z</time>
      </trkpt>
      <trkpt lat="59.331007241164" lon="18.05853281463">
        <ele>0</ele>
        <time>2016-05-03T17:16:24Z</time>
      </trkpt>
      <trkpt lat="59.330860055" lon="18.058677905319">
        <ele>0</ele>
        <time>2016-05-03T17:16:29Z</time>
      </trkpt>
      <trkpt lat="59.330652100061" lon="18.058857697074">
        <ele>0</ele>
        <time>2016-05-03T17:16:33Z</time>
      </trkpt>
      <trkpt lat="59.330474319962" lon="18.059074536827">
        <ele>0</ele>
        <time>2016-05-03T17:16:35Z</time>
      </trkpt>
      <trkpt lat="59.330302910107" lon="18.059349379328">
        <ele>0</ele>
        <time>2016-05-03T17:16:36Z</time>
      </trkpt>
      <trkpt lat="59.330201824393" lon="18.059475610742">
        <ele>0</ele>
        <time>2016-05-03T17:16:37Z</time>
      </trkpt>
      <trkpt lat="59.330117083384" lon="18.059578205198">
        <ele>0</ele>
        <time>2016-05-03T17:16:38Z</time>
      </trkpt>
      <trkpt lat="59.329764875946" lon="18.059889089869">
        <ele>0</ele>
        <time>2016-05-03T17:16:42Z</time>
      </trkpt>
      <trkpt lat="59.32968072167" lon="18.059980033484">
        <ele>0</ele>
        <time>2016-05-03T17:16:43Z</time>
      </trkpt>
      <trkpt lat="59.329601847991" lon="18.060063181932">
        <ele>0</ele>
        <time>2016-05-03T17:16:44Z</time>
      </trkpt>
      <trkpt lat="59.329522639036" lon="18.060149264045">
        <ele>0</ele>
        <time>2016-05-03T17:16:45Z</time>
      </trkpt>
      <trkpt lat="59.329447872488" lon="18.060214810503">
        <ele>0</ele>
        <time>2016-05-03T17:16:46Z</time>
      </trkpt>
      <trkpt lat="59.329376710157" lon="18.06026954431">
        <ele>0</ele>
        <time>2016-05-03T17:16:47Z</time>
      </trkpt>
      <trkpt lat="59.329298171754" lon="18.060313884561">
        <ele>0</ele>
        <time>2016-05-03T17:16:48Z</time>
      </trkpt>
      <trkpt lat="59.329144531527" lon="18.060457382689">
        <ele>0</ele>
        <time>2016-05-03T17:16:50Z</time>
      </trkpt>
      <trkpt lat="59.328933307647" lon="18.060637342082">
        <ele>0</ele>
        <time>2016-05-03T17:16:53Z</time>
      </trkpt>
      <trkpt lat="59.328820068178" lon="18.060652932416">
        <ele>0</ele>
        <time>2016-05-03T17:16:55Z</time>
      </trkpt>
      <trkpt lat="59.328733399332" lon="18.060725938765">
        <ele>0</ele>
        <time>2016-05-03T17:16:58Z</time>
      </trkpt>
      <trkpt lat="59.328721664672" lon="18.060746222963">
        <ele>0</ele>
        <time>2016-05-03T17:17:00Z</time>
      </trkpt>
      <trkpt lat="59.328615801275" lon="18.060842614813">
        <ele>0</ele>
        <time>2016-05-03T17:18:12Z</time>
      </trkpt>
      <trkpt lat="59.328570371377" lon="18.060878405526">
        <ele>0</ele>
        <time>2016-05-03T17:18:13Z</time>
      </trkpt>
      <trkpt lat="59.328434584597" lon="18.061146793964">
        <ele>0</ele>
        <time>2016-05-03T17:18:17Z</time>
      </trkpt>
      <trkpt lat="59.328368032311" lon="18.061306636797">
        <ele>0</ele>
        <time>2016-05-03T17:18:19Z</time>
      </trkpt>
      <trkpt lat="59.328327799191" lon="18.061478633385">
        <ele>0</ele>
        <time>2016-05-03T17:18:21Z</time>
      </trkpt>
      <trkpt lat="59.328309861925" lon="18.061835702325">
        <ele>0</ele>
        <time>2016-05-03T17:18:24Z</time>
      </trkpt>
      <trkpt lat="59.328274574126" lon="18.06208757842">
        <ele>0</ele>
        <time>2016-05-03T17:18:26Z</time>
      </trkpt>
      <trkpt lat="59.328228389857" lon="18.062345573302">
        <ele>0</ele>
        <time>2016-05-03T17:18:28Z</time>
      </trkpt>
      <trkpt lat="59.328203076519" lon="18.062463338997">
        <ele>0</ele>
        <time>2016-05-03T17:18:29Z</time>
      </trkpt>
      <trkpt lat="59.328103918642" lon="18.062826778181">
        <ele>0</ele>
        <time>2016-05-03T17:18:32Z</time>
      </trkpt>
      <trkpt lat="59.327960504333" lon="18.063089466927">
        <ele>0</ele>
        <time>2016-05-03T17:18:35Z</time>
      </trkpt>
      <trkpt lat="59.327910715847" lon="18.063172363918">
        <ele>0</ele>
        <time>2016-05-03T17:18:36Z</time>
      </trkpt>
      <trkpt lat="59.327861597913" lon="18.063253668348">
        <ele>0</ele>
        <time>2016-05-03T17:18:37Z</time>
      </trkpt>
      <trkpt lat="59.327809713952" lon="18.063333380217">
        <ele>0</ele>
        <time>2016-05-03T17:18:38Z</time>
      </trkpt>
      <trkpt lat="59.327758249086" lon="18.06340856586">
        <ele>0</ele>
        <time>2016-05-03T17:18:39Z</time>
      </trkpt>
      <trkpt lat="59.32750980957" lon="18.063805448825">
        <ele>0</ele>
        <time>2016-05-03T17:18:44Z</time>
      </trkpt>
      <trkpt lat="59.327416016109" lon="18.063967051857">
        <ele>0</ele>
        <time>2016-05-03T17:18:46Z</time>
      </trkpt>
      <trkpt lat="59.327366981994" lon="18.06404475207">
        <ele>0</ele>
        <time>2016-05-03T17:18:47Z</time>
      </trkpt>
      <trkpt lat="59.327319791897" lon="18.064128235794">
        <ele>0</ele>
        <time>2016-05-03T17:18:48Z</time>
      </trkpt>
      <trkpt lat="59.327280648424" lon="18.064193363157">
        <ele>0</ele>
        <time>2016-05-03T17:18:49Z</time>
      </trkpt>
      <trkpt lat="59.327242678417" lon="18.06425010862">
        <ele>0</ele>
        <time>2016-05-03T17:18:50Z</time>
      </trkpt>
      <trkpt lat="59.326965740441" lon="18.064712705681">
        <ele>0</ele>
        <time>2016-05-03T17:18:57Z</time>
      </trkpt>
      <trkpt lat="59.326920478181" lon="18.064792669007">
        <ele>0</ele>
        <time>2016-05-03T17:18:58Z</time>
      </trkpt>
      <trkpt lat="59.326625100025" lon="18.065223414848">
        <ele>0</ele>
        <time>2016-05-03T17:19:04Z</time>
      </trkpt>
      <trkpt lat="59.326541616301" lon="18.06516876486">
        <ele>0</ele>
        <time>2016-05-03T17:19:06Z</time>
      </trkpt>
      <trkpt lat="59.326467604124" lon="18.06497681935">
        <ele>0</ele>
        <time>2016-05-03T17:19:08Z</time>
      </trkpt>
      <trkpt lat="59.326427790099" lon="18.064872464695">
        <ele>0</ele>
        <time>2016-05-03T17:19:09Z</time>
      </trkpt>
      <trkpt lat="59.326386802608" lon="18.064773390637">
        <ele>0</ele>
        <time>2016-05-03T17:19:10Z</time>
      </trkpt>
      <trkpt lat="59.326342965271" lon="18.064665599403">
        <ele>0</ele>
        <time>2016-05-03T17:19:11Z</time>
      </trkpt>
      <trkpt lat="59.326302229237" lon="18.064565100422">
        <ele>0</ele>
        <time>2016-05-03T17:19:12Z</time>
      </trkpt>
      <trkpt lat="59.326252356932" lon="18.064501649439">
        <ele>0</ele>
        <time>2016-05-03T17:19:13Z</time>
      </trkpt>
      <trkpt lat="59.326211956174" lon="18.064500811249">
        <ele>0</ele>
        <time>2016-05-03T17:19:14Z</time>
      </trkpt>
      <trkpt lat="59.326091089176" lon="18.064684123402">
        <ele>0</ele>
        <time>2016-05-03T17:19:17Z</time>
      </trkpt>
      <trkpt lat="59.326029817487" lon="18.064777497768">
        <ele>0</ele>
        <time>2016-05-03T17:19:18Z</time>
      </trkpt>
      <trkpt lat="59.325872656862" lon="18.065051753536">
        <ele>0</ele>
        <time>2016-05-03T17:19:21Z</time>
      </trkpt>
      <trkpt lat="59.325817420141" lon="18.065138757658">
        <ele>0</ele>
        <time>2016-05-03T17:19:22Z</time>
      </trkpt>
      <trkpt lat="59.325768553664" lon="18.065224001581">
        <ele>0</ele>
        <time>2016-05-03T17:19:23Z</time>
      </trkpt>
      <trkpt lat="59.32572362668" lon="18.065298768129">
        <ele>0</ele>
        <time>2016-05-03T17:19:24Z</time>
      </trkpt>
      <trkpt lat="59.325674760203" lon="18.065385688432">
        <ele>0</ele>
        <time>2016-05-03T17:19:25Z</time>
      </trkpt>
      <trkpt lat="59.325621535138" lon="18.065474452753">
        <ele>0</ele>
        <time>2016-05-03T17:19:26Z</time>
      </trkpt>
      <trkpt lat="59.32555934144" lon="18.065555673364">
        <ele>0</ele>
        <time>2016-05-03T17:19:27Z</time>
      </trkpt>
      <trkpt lat="59.325338478375" lon="18.065872928279">
        <ele>0</ele>
        <time>2016-05-03T17:19:31Z</time>
      </trkpt>
      <trkpt lat="59.325164134855" lon="18.066120864881">
        <ele>0</ele>
        <time>2016-05-03T17:19:35Z</time>
      </trkpt>
      <trkpt lat="59.325079393846" lon="18.066214658342">
        <ele>0</ele>
        <time>2016-05-03T17:19:37Z</time>
      </trkpt>
      <trkpt lat="59.324973362811" lon="18.066322868671">
        <ele>0</ele>
        <time>2016-05-03T17:19:40Z</time>
      </trkpt>
      <trkpt lat="59.324769682641" lon="18.06647382669">
        <ele>0</ele>
        <time>2016-05-03T17:19:46Z</time>
      </trkpt>
      <trkpt lat="59.324666752909" lon="18.066531997076">
        <ele>0</ele>
        <time>2016-05-03T17:19:48Z</time>
      </trkpt>
      <trkpt lat="59.324544377169" lon="18.066542306813">
        <ele>0</ele>
        <time>2016-05-03T17:19:50Z</time>
      </trkpt>
      <trkpt lat="59.324415295909" lon="18.066516322923">
        <ele>0</ele>
        <time>2016-05-03T17:19:52Z</time>
      </trkpt>
      <trkpt lat="59.324299793327" lon="18.066502492788">
        <ele>0</ele>
        <time>2016-05-03T17:19:54Z</time>
      </trkpt>
      <trkpt lat="59.324240365656" lon="18.066522860805">
        <ele>0</ele>
        <time>2016-05-03T17:19:55Z</time>
      </trkpt>
      <trkpt lat="59.323919925619" lon="18.066717153247">
        <ele>0</ele>
        <time>2016-05-03T17:20:00Z</time>
      </trkpt>
      <trkpt lat="59.323855217351" lon="18.066778257298">
        <ele>0</ele>
        <time>2016-05-03T17:20:01Z</time>
      </trkpt>
      <trkpt lat="59.323616500839" lon="18.067005071512">
        <ele>0</ele>
        <time>2016-05-03T17:20:05Z</time>
      </trkpt>
      <trkpt lat="59.323266137419" lon="18.067422825408">
        <ele>0</ele>
        <time>2016-05-03T17:20:11Z</time>
      </trkpt>
      <trkpt lat="59.323057763385" lon="18.067706301266">
        <ele>0</ele>
        <time>2016-05-03T17:20:16Z</time>
      </trkpt>
      <trkpt lat="59.322927592478" lon="18.067932361109">
        <ele>0</ele>
        <time>2016-05-03T17:20:20Z</time>
      </trkpt>
      <trkpt lat="59.322897669095" lon="18.068013665539">
        <ele>0</ele>
        <time>2016-05-03T17:20:21Z</time>
      </trkpt>
      <trkpt lat="59.322714943675" lon="18.068557399392">
        <ele>0</ele>
        <time>2016-05-03T17:20:27Z</time>
      </trkpt>
      <trkpt lat="59.322676722211" lon="18.068638368546">
        <ele>0</ele>
        <time>2016-05-03T17:20:28Z</time>
      </trkpt>
      <trkpt lat="59.322542611811" lon="18.068945313724">
        <ele>0</ele>
        <time>2016-05-03T17:20:32Z</time>
      </trkpt>
      <trkpt lat="59.322449405083" lon="18.069191322489">
        <ele>0</ele>
        <time>2016-05-03T17:20:35Z</time>
      </trkpt>
      <trkpt lat="59.322384948272" lon="18.069448563">
        <ele>0</ele>
        <time>2016-05-03T17:20:38Z</time>
      </trkpt>
      <trkpt lat="59.322376482553" lon="18.069533136371">
        <ele>0</ele>
        <time>2016-05-03T17:20:39Z</time>
      </trkpt>
      <trkpt lat="59.322367933015" lon="18.0698257485">
        <ele>0</ele>
        <time>2016-05-03T17:20:42Z</time>
      </trkpt>
      <trkpt lat="59.322385618824" lon="18.070021633503">
        <ele>0</ele>
        <time>2016-05-03T17:20:44Z</time>
      </trkpt>
      <trkpt lat="59.322425768125" lon="18.070318101306">
        <ele>0</ele>
        <time>2016-05-03T17:20:47Z</time>
      </trkpt>
      <trkpt lat="59.322442364287" lon="18.070413068233">
        <ele>0</ele>
        <time>2016-05-03T17:20:48Z</time>
      </trkpt>
      <trkpt lat="59.322484357606" lon="18.070711547692">
        <ele>0</ele>
        <time>2016-05-03T17:20:51Z</time>
      </trkpt>
      <trkpt lat="59.322464241046" lon="18.070980690501">
        <ele>0</ele>
        <time>2016-05-03T17:20:54Z</time>
      </trkpt>
      <trkpt lat="59.322430797265" lon="18.071128379579">
        <ele>0</ele>
        <time>2016-05-03T17:20:57Z</time>
      </trkpt>
      <trkpt lat="59.322427612143" lon="18.071151429804">
        <ele>0</ele>
        <time>2016-05-03T17:20:58Z</time>
      </trkpt>
      <trkpt lat="59.322352175043" lon="18.071358211277">
        <ele>0</ele>
        <time>2016-05-03T17:21:04Z</time>
      </trkpt>
      <trkpt lat="59.322271624984" lon="18.071561807628">
        <ele>0</ele>
        <time>2016-05-03T17:21:07Z</time>
      </trkpt>
      <trkpt lat="59.322182944482" lon="18.071802954891">
        <ele>0</ele>
        <time>2016-05-03T17:21:10Z</time>
      </trkpt>
      <trkpt lat="59.322115973101" lon="18.071944189906">
        <ele>0</ele>
        <time>2016-05-03T17:21:12Z</time>
      </trkpt>
      <trkpt lat="59.322027795513" lon="18.072104284196">
        <ele>0</ele>
        <time>2016-05-03T17:21:15Z</time>
      </trkpt>
      <trkpt lat="59.32201044498" lon="18.072137895615">
        <ele>0</ele>
        <time>2016-05-03T17:21:16Z</time>
      </trkpt>
      <trkpt lat="59.321997117759" lon="18.072158682727">
        <ele>0</ele>
        <time>2016-05-03T17:21:17Z</time>
      </trkpt>
      <trkpt lat="59.321988568221" lon="18.072174775975">
        <ele>0</ele>
        <time>2016-05-03T17:21:18Z</time>
      </trkpt>
      <trkpt lat="59.321983203805" lon="18.072185001893">
        <ele>0</ele>
        <time>2016-05-03T17:21:19Z</time>
      </trkpt>
      <trkpt lat="59.321941126667" lon="18.072233197818">
        <ele>0</ele>
        <time>2016-05-03T17:21:22Z</time>
      </trkpt>
      <trkpt lat="59.321827803379" lon="18.072167483722">
        <ele>0</ele>
        <time>2016-05-03T17:21:26Z</time>
      </trkpt>
      <trkpt lat="59.321803328231" lon="18.072147367162">
        <ele>0</ele>
        <time>2016-05-03T17:21:27Z</time>
      </trkpt>
      <trkpt lat="59.321777511979" lon="18.072130519543">
        <ele>0</ele>
        <time>2016-05-03T17:21:28Z</time>
      </trkpt>
      <trkpt lat="59.321749097338" lon="18.072116605589">
        <ele>0</ele>
        <time>2016-05-03T17:21:29Z</time>
      </trkpt>
      <trkpt lat="59.32171959305" lon="18.07210059616">
        <ele>0</ele>
        <time>2016-05-03T17:21:30Z</time>
      </trkpt>
      <trkpt lat="59.321673324962" lon="18.072081569247">
        <ele>0</ele>
        <time>2016-05-03T17:21:32Z</time>
      </trkpt>
      <trkpt lat="59.321520606744" lon="18.072017280074">
        <ele>0</ele>
        <time>2016-05-03T17:21:37Z</time>
      </trkpt>
      <trkpt lat="59.321473584285" lon="18.071983752474">
        <ele>0</ele>
        <time>2016-05-03T17:21:38Z</time>
      </trkpt>
      <trkpt lat="59.321427819111" lon="18.071940753327">
        <ele>0</ele>
        <time>2016-05-03T17:21:39Z</time>
      </trkpt>
      <trkpt lat="59.321381048109" lon="18.071891719212">
        <ele>0</ele>
        <time>2016-05-03T17:21:40Z</time>
      </trkpt>
      <trkpt lat="59.321325308474" lon="18.071847211323">
        <ele>0</ele>
        <time>2016-05-03T17:21:41Z</time>
      </trkpt>
      <trkpt lat="59.321220534724" lon="18.071694828381">
        <ele>0</ele>
        <time>2016-05-03T17:21:43Z</time>
      </trkpt>
      <trkpt lat="59.321185833658" lon="18.071564489836">
        <ele>0</ele>
        <time>2016-05-03T17:21:44Z</time>
      </trkpt>
      <trkpt lat="59.321194718472" lon="18.071414286188">
        <ele>0</ele>
        <time>2016-05-03T17:21:45Z</time>
      </trkpt>
      <trkpt lat="59.321205950218" lon="18.0712758172">
        <ele>0</ele>
        <time>2016-05-03T17:21:46Z</time>
      </trkpt>
      <trkpt lat="59.321216762869" lon="18.071129720683">
        <ele>0</ele>
        <time>2016-05-03T17:21:47Z</time>
      </trkpt>
      <trkpt lat="59.321223636027" lon="18.07100005269">
        <ele>0</ele>
        <time>2016-05-03T17:21:48Z</time>
      </trkpt>
      <trkpt lat="59.321249536098" lon="18.070758737789">
        <ele>0</ele>
        <time>2016-05-03T17:21:50Z</time>
      </trkpt>
      <trkpt lat="59.32125355941" lon="18.070463024357">
        <ele>0</ele>
        <time>2016-05-03T17:21:52Z</time>
      </trkpt>
      <trkpt lat="59.321247859718" lon="18.070313994175">
        <ele>0</ele>
        <time>2016-05-03T17:21:53Z</time>
      </trkpt>
      <trkpt lat="59.321250290469" lon="18.070162030328">
        <ele>0</ele>
        <time>2016-05-03T17:21:54Z</time>
      </trkpt>
      <trkpt lat="59.321246686252" lon="18.070006965178">
        <ele>0</ele>
        <time>2016-05-03T17:21:55Z</time>
      </trkpt>
      <trkpt lat="59.32124014837" lon="18.069860868661">
        <ele>0</ele>
        <time>2016-05-03T17:21:56Z</time>
      </trkpt>
      <trkpt lat="59.32122757552" lon="18.069721645302">
        <ele>0</ele>
        <time>2016-05-03T17:21:57Z</time>
      </trkpt>
      <trkpt lat="59.321200501983" lon="18.069586696712">
        <ele>0</ele>
        <time>2016-05-03T17:21:58Z</time>
      </trkpt>
      <trkpt lat="59.321173176989" lon="18.069443785317">
        <ele>0</ele>
        <time>2016-05-03T17:21:59Z</time>
      </trkpt>
      <trkpt lat="59.321147193099" lon="18.069290480366">
        <ele>0</ele>
        <time>2016-05-03T17:22:00Z</time>
      </trkpt>
      <trkpt lat="59.321125651616" lon="18.069143126564">
        <ele>0</ele>
        <time>2016-05-03T17:22:01Z</time>
      </trkpt>
      <trkpt lat="59.321106457065" lon="18.068999041703">
        <ele>0</ele>
        <time>2016-05-03T17:22:02Z</time>
      </trkpt>
      <trkpt lat="59.321088771256" lon="18.068853029005">
        <ele>0</ele>
        <time>2016-05-03T17:22:03Z</time>
      </trkpt>
      <trkpt lat="59.321064715203" lon="18.068705256108">
        <ele>0</ele>
        <time>2016-05-03T17:22:04Z</time>
      </trkpt>
      <trkpt lat="59.32105155562" lon="18.068550777691">
        <ele>0</ele>
        <time>2016-05-03T17:22:05Z</time>
      </trkpt>
      <trkpt lat="59.321030265594" lon="18.067812248482">
        <ele>0</ele>
        <time>2016-05-03T17:22:10Z</time>
      </trkpt>
      <trkpt lat="59.32102892449" lon="18.067261054738">
        <ele>0</ele>
        <time>2016-05-03T17:22:14Z</time>
      </trkpt>
      <trkpt lat="59.321037976942" lon="18.06711923299">
        <ele>0</ele>
        <time>2016-05-03T17:22:15Z</time>
      </trkpt>
      <trkpt lat="59.321081562822" lon="18.066217005274">
        <ele>0</ele>
        <time>2016-05-03T17:22:21Z</time>
      </trkpt>
      <trkpt lat="59.32112112539" lon="18.06537998874">
        <ele>0</ele>
        <time>2016-05-03T17:22:27Z</time>
      </trkpt>
      <trkpt lat="59.321167980211" lon="18.064542972206">
        <ele>0</ele>
        <time>2016-05-03T17:22:32Z</time>
      </trkpt>
      <trkpt lat="59.321224306579" lon="18.063332039113">
        <ele>0</ele>
        <time>2016-05-03T17:22:39Z</time>
      </trkpt>
      <trkpt lat="59.321232772298" lon="18.063164065837">
        <ele>0</ele>
        <time>2016-05-03T17:22:40Z</time>
      </trkpt>
      <trkpt lat="59.321294714539" lon="18.062135606707">
        <ele>0</ele>
        <time>2016-05-03T17:22:46Z</time>
      </trkpt>
      <trkpt lat="59.321297396747" lon="18.061164647411">
        <ele>0</ele>
        <time>2016-05-03T17:22:52Z</time>
      </trkpt>
      <trkpt lat="59.321282309327" lon="18.060033342368">
        <ele>0</ele>
        <time>2016-05-03T17:22:59Z</time>
      </trkpt>
      <trkpt lat="59.321286667915" lon="18.059868638033">
        <ele>0</ele>
        <time>2016-05-03T17:23:00Z</time>
      </trkpt>
      <trkpt lat="59.321288679571" lon="18.059216442394">
        <ele>0</ele>
        <time>2016-05-03T17:23:04Z</time>
      </trkpt>
      <trkpt lat="59.321257582722" lon="18.05815646732">
        <ele>0</ele>
        <time>2016-05-03T17:23:11Z</time>
      </trkpt>
      <trkpt lat="59.321239729275" lon="18.05801900416">
        <ele>0</ele>
        <time>2016-05-03T17:23:12Z</time>
      </trkpt>
      <trkpt lat="59.321223636027" lon="18.05756889613">
        <ele>0</ele>
        <time>2016-05-03T17:23:15Z</time>
      </trkpt>
      <trkpt lat="59.321224138941" lon="18.057086769242">
        <ele>0</ele>
        <time>2016-05-03T17:23:18Z</time>
      </trkpt>
      <trkpt lat="59.321232520841" lon="18.056919717975">
        <ele>0</ele>
        <time>2016-05-03T17:23:19Z</time>
      </trkpt>
      <trkpt lat="59.32123428104" lon="18.055977508596">
        <ele>0</ele>
        <time>2016-05-03T17:23:25Z</time>
      </trkpt>
      <trkpt lat="59.32124685389" lon="18.055389350673">
        <ele>0</ele>
        <time>2016-05-03T17:23:29Z</time>
      </trkpt>
      <trkpt lat="59.321244758415" lon="18.054645037953">
        <ele>0</ele>
        <time>2016-05-03T17:23:34Z</time>
      </trkpt>
      <trkpt lat="59.321223468389" lon="18.054495421038">
        <ele>0</ele>
        <time>2016-05-03T17:23:35Z</time>
      </trkpt>
      <trkpt lat="59.321198741784" lon="18.05418596129">
        <ele>0</ele>
        <time>2016-05-03T17:23:37Z</time>
      </trkpt>
      <trkpt lat="59.321200334345" lon="18.054027962475">
        <ele>0</ele>
        <time>2016-05-03T17:23:38Z</time>
      </trkpt>
      <trkpt lat="59.321195556662" lon="18.052953319076">
        <ele>0</ele>
        <time>2016-05-03T17:23:45Z</time>
      </trkpt>
      <trkpt lat="59.321187426219" lon="18.052630029193">
        <ele>0</ele>
        <time>2016-05-03T17:23:47Z</time>
      </trkpt>
      <trkpt lat="59.321192622997" lon="18.052468929075">
        <ele>0</ele>
        <time>2016-05-03T17:23:48Z</time>
      </trkpt>
      <trkpt lat="59.321202848915" lon="18.051998033933">
        <ele>0</ele>
        <time>2016-05-03T17:23:51Z</time>
      </trkpt>
      <trkpt lat="59.321205195847" lon="18.051043503161">
        <ele>0</ele>
        <time>2016-05-03T17:23:57Z</time>
      </trkpt>
      <trkpt lat="59.321160939415" lon="18.050125266016">
        <ele>0</ele>
        <time>2016-05-03T17:24:03Z</time>
      </trkpt>
      <trkpt lat="59.321093884215" lon="18.049542304871">
        <ele>0</ele>
        <time>2016-05-03T17:24:07Z</time>
      </trkpt>
      <trkpt lat="59.32094510549" lon="18.048553408309">
        <ele>0</ele>
        <time>2016-05-03T17:24:14Z</time>
      </trkpt>
      <trkpt lat="59.320882325059" lon="18.047660484502">
        <ele>0</ele>
        <time>2016-05-03T17:24:20Z</time>
      </trkpt>
      <trkpt lat="59.320793896014" lon="18.046486934683">
        <ele>0</ele>
        <time>2016-05-03T17:24:28Z</time>
      </trkpt>
      <trkpt lat="59.32078249663" lon="18.046336563397">
        <ele>0</ele>
        <time>2016-05-03T17:24:29Z</time>
      </trkpt>
      <trkpt lat="59.320748382297" lon="18.045441041201">
        <ele>0</ele>
        <time>2016-05-03T17:24:35Z</time>
      </trkpt>
      <trkpt lat="59.320747125012" lon="18.045284467309">
        <ele>0</ele>
        <time>2016-05-03T17:24:36Z</time>
      </trkpt>
      <trkpt lat="59.320749136668" lon="18.044672672428">
        <ele>0</ele>
        <time>2016-05-03T17:24:40Z</time>
      </trkpt>
      <trkpt lat="59.320735390352" lon="18.044520205667">
        <ele>0</ele>
        <time>2016-05-03T17:24:41Z</time>
      </trkpt>
      <trkpt lat="59.320658779786" lon="18.043765499391">
        <ele>0</ele>
        <time>2016-05-03T17:24:46Z</time>
      </trkpt>
      <trkpt lat="59.320637992674" lon="18.04361638539">
        <ele>0</ele>
        <time>2016-05-03T17:24:47Z</time>
      </trkpt>
      <trkpt lat="59.320542187557" lon="18.042881711855">
        <ele>0</ele>
        <time>2016-05-03T17:24:52Z</time>
      </trkpt>
      <trkpt lat="59.320530117621" lon="18.042092891246">
        <ele>0</ele>
        <time>2016-05-03T17:24:57Z</time>
      </trkpt>
      <trkpt lat="59.320507151215" lon="18.041327204681">
        <ele>0</ele>
        <time>2016-05-03T17:25:02Z</time>
      </trkpt>
      <trkpt lat="59.320469684122" lon="18.040735023446">
        <ele>0</ele>
        <time>2016-05-03T17:25:06Z</time>
      </trkpt>
      <trkpt lat="59.320456692177" lon="18.040599152847">
        <ele>0</ele>
        <time>2016-05-03T17:25:07Z</time>
      </trkpt>
      <trkpt lat="59.320371280616" lon="18.039784599805">
        <ele>0</ele>
        <time>2016-05-03T17:25:13Z</time>
      </trkpt>
      <trkpt lat="59.320318055551" lon="18.039254276992">
        <ele>0</ele>
        <time>2016-05-03T17:25:17Z</time>
      </trkpt>
      <trkpt lat="59.320304812149" lon="18.039147826862">
        <ele>0</ele>
        <time>2016-05-03T17:25:18Z</time>
      </trkpt>
      <trkpt lat="59.320297016982" lon="18.03904992627">
        <ele>0</ele>
        <time>2016-05-03T17:25:19Z</time>
      </trkpt>
      <trkpt lat="59.320297603715" lon="18.038973064247">
        <ele>0</ele>
        <time>2016-05-03T17:25:20Z</time>
      </trkpt>
      <trkpt lat="59.320301878484" lon="18.038901985735">
        <ele>0</ele>
        <time>2016-05-03T17:25:21Z</time>
      </trkpt>
      <trkpt lat="59.320292574575" lon="18.038736778486">
        <ele>0</ele>
        <time>2016-05-03T17:25:23Z</time>
      </trkpt>
      <trkpt lat="59.320211773059" lon="18.038358754796">
        <ele>0</ele>
        <time>2016-05-03T17:25:26Z</time>
      </trkpt>
      <trkpt lat="59.320165672609" lon="18.037892134423">
        <ele>0</ele>
        <time>2016-05-03T17:25:29Z</time>
      </trkpt>
      <trkpt lat="59.320148657352" lon="18.037729525563">
        <ele>0</ele>
        <time>2016-05-03T17:25:30Z</time>
      </trkpt>
      <trkpt lat="59.320134994855" lon="18.037559372993">
        <ele>0</ele>
        <time>2016-05-03T17:25:31Z</time>
      </trkpt>
      <trkpt lat="59.320123511652" lon="18.037378240134">
        <ele>0</ele>
        <time>2016-05-03T17:25:32Z</time>
      </trkpt>
      <trkpt lat="59.320108424232" lon="18.037208758116">
        <ele>0</ele>
        <time>2016-05-03T17:25:33Z</time>
      </trkpt>
      <trkpt lat="59.320029466734" lon="18.036355061601">
        <ele>0</ele>
        <time>2016-05-03T17:25:38Z</time>
      </trkpt>
      <trkpt lat="59.319996525867" lon="18.035838904199">
        <ele>0</ele>
        <time>2016-05-03T17:25:41Z</time>
      </trkpt>
      <trkpt lat="59.319985713216" lon="18.035522487474">
        <ele>0</ele>
        <time>2016-05-03T17:25:43Z</time>
      </trkpt>
      <trkpt lat="59.319958974955" lon="18.035265917515">
        <ele>0</ele>
        <time>2016-05-03T17:25:45Z</time>
      </trkpt>
      <trkpt lat="59.319945731553" lon="18.035195341917">
        <ele>0</ele>
        <time>2016-05-03T17:25:46Z</time>
      </trkpt>
      <trkpt lat="59.31993341016" lon="18.035155444073">
        <ele>0</ele>
        <time>2016-05-03T17:25:47Z</time>
      </trkpt>
      <trkpt lat="59.31992838102" lon="18.035100039714">
        <ele>0</ele>
        <time>2016-05-03T17:25:48Z</time>
      </trkpt>
      <trkpt lat="59.31992083731" lon="18.035034912351">
        <ele>0</ele>
        <time>2016-05-03T17:25:49Z</time>
      </trkpt>
      <trkpt lat="59.319922765147" lon="18.03494782441">
        <ele>0</ele>
        <time>2016-05-03T17:25:50Z</time>
      </trkpt>
      <trkpt lat="59.319924525346" lon="18.034627719649">
        <ele>0</ele>
        <time>2016-05-03T17:25:53Z</time>
      </trkpt>
      <trkpt lat="59.319912371591" lon="18.034521437157">
        <ele>0</ele>
        <time>2016-05-03T17:25:54Z</time>
      </trkpt>
      <trkpt lat="59.319887477348" lon="18.034399983426">
        <ele>0</ele>
        <time>2016-05-03T17:25:55Z</time>
      </trkpt>
      <trkpt lat="59.319864008028" lon="18.034293030382">
        <ele>0</ele>
        <time>2016-05-03T17:25:56Z</time>
      </trkpt>
      <trkpt lat="59.319859817078" lon="18.034189346279">
        <ele>0</ele>
        <time>2016-05-03T17:25:57Z</time>
      </trkpt>
      <trkpt lat="59.319855961404" lon="18.034051966938">
        <ele>0</ele>
        <time>2016-05-03T17:25:58Z</time>
      </trkpt>
      <trkpt lat="59.319849088246" lon="18.03391601252">
        <ele>0</ele>
        <time>2016-05-03T17:25:59Z</time>
      </trkpt>
      <trkpt lat="59.319831737713" lon="18.033784081414">
        <ele>0</ele>
        <time>2016-05-03T17:26:00Z</time>
      </trkpt>
      <trkpt lat="59.319785301987" lon="18.033473951114">
        <ele>0</ele>
        <time>2016-05-03T17:26:02Z</time>
      </trkpt>
      <trkpt lat="59.319766191255" lon="18.033317880136">
        <ele>0</ele>
        <time>2016-05-03T17:26:03Z</time>
      </trkpt>
      <trkpt lat="59.319744314496" lon="18.033157534389">
        <ele>0</ele>
        <time>2016-05-03T17:26:04Z</time>
      </trkpt>
      <trkpt lat="59.319722689194" lon="18.033004480895">
        <ele>0</ele>
        <time>2016-05-03T17:26:05Z</time>
      </trkpt>
      <trkpt lat="59.319702404996" lon="18.032858971111">
        <ele>0</ele>
        <time>2016-05-03T17:26:06Z</time>
      </trkpt>
      <trkpt lat="59.319605845508" lon="18.03229746763">
        <ele>0</ele>
        <time>2016-05-03T17:26:10Z</time>
      </trkpt>
      <trkpt lat="59.319578269057" lon="18.031910475307">
        <ele>0</ele>
        <time>2016-05-03T17:26:13Z</time>
      </trkpt>
      <trkpt lat="59.31957550303" lon="18.031790195042">
        <ele>0</ele>
        <time>2016-05-03T17:26:14Z</time>
      </trkpt>
      <trkpt lat="59.319565109474" lon="18.031681230342">
        <ele>0</ele>
        <time>2016-05-03T17:26:15Z</time>
      </trkpt>
      <trkpt lat="59.31950760964" lon="18.03130085972">
        <ele>0</ele>
        <time>2016-05-03T17:26:18Z</time>
      </trkpt>
      <trkpt lat="59.319462934113" lon="18.031049151263">
        <ele>0</ele>
        <time>2016-05-03T17:26:20Z</time>
      </trkpt>
      <trkpt lat="59.319452121462" lon="18.030786881612">
        <ele>0</ele>
        <time>2016-05-03T17:26:22Z</time>
      </trkpt>
      <trkpt lat="59.319417252758" lon="18.030498208976">
        <ele>0</ele>
        <time>2016-05-03T17:26:24Z</time>
      </trkpt>
      <trkpt lat="59.319394118714" lon="18.030365942594">
        <ele>0</ele>
        <time>2016-05-03T17:26:25Z</time>
      </trkpt>
      <trkpt lat="59.319311808456" lon="18.030034103173">
        <ele>0</ele>
        <time>2016-05-03T17:26:28Z</time>
      </trkpt>
      <trkpt lat="59.319296888674" lon="18.029928155957">
        <ele>0</ele>
        <time>2016-05-03T17:26:29Z</time>
      </trkpt>
      <trkpt lat="59.319252380785" lon="18.029572344302">
        <ele>0</ele>
        <time>2016-05-03T17:26:32Z</time>
      </trkpt>
      <trkpt lat="59.319214997511" lon="18.029311583393">
        <ele>0</ele>
        <time>2016-05-03T17:26:34Z</time>
      </trkpt>
      <trkpt lat="59.319149115777" lon="18.028706829308">
        <ele>0</ele>
        <time>2016-05-03T17:26:39Z</time>
      </trkpt>
      <trkpt lat="59.319125311181" lon="18.028600295359">
        <ele>0</ele>
        <time>2016-05-03T17:26:40Z</time>
      </trkpt>
      <trkpt lat="59.319047359511" lon="18.028482529664">
        <ele>0</ele>
        <time>2016-05-03T17:26:42Z</time>
      </trkpt>
      <trkpt lat="59.318899586614" lon="18.028329140894">
        <ele>0</ele>
        <time>2016-05-03T17:26:46Z</time>
      </trkpt>
      <trkpt lat="59.318858180028" lon="18.028277173114">
        <ele>0</ele>
        <time>2016-05-03T17:26:47Z</time>
      </trkpt>
      <trkpt lat="59.318694649159" lon="18.028185223671">
        <ele>0</ele>
        <time>2016-05-03T17:26:51Z</time>
      </trkpt>
      <trkpt lat="59.318592641436" lon="18.028190001354">
        <ele>0</ele>
        <time>2016-05-03T17:26:53Z</time>
      </trkpt>
      <trkpt lat="59.318534219593" lon="18.028188827888">
        <ele>0</ele>
        <time>2016-05-03T17:26:54Z</time>
      </trkpt>
      <trkpt lat="59.318489879342" lon="18.028117833195">
        <ele>0</ele>
        <time>2016-05-03T17:26:55Z</time>
      </trkpt>
      <trkpt lat="59.318456687018" lon="18.028017501852">
        <ele>0</ele>
        <time>2016-05-03T17:26:56Z</time>
      </trkpt>
      <trkpt lat="59.318426931273" lon="18.027913231016">
        <ele>0</ele>
        <time>2016-05-03T17:26:57Z</time>
      </trkpt>
      <trkpt lat="59.31839533151" lon="18.027803009031">
        <ele>0</ele>
        <time>2016-05-03T17:26:58Z</time>
      </trkpt>
      <trkpt lat="59.318375969321" lon="18.02768239349">
        <ele>0</ele>
        <time>2016-05-03T17:26:59Z</time>
      </trkpt>
      <trkpt lat="59.318368257973" lon="18.027299927393">
        <ele>0</ele>
        <time>2016-05-03T17:27:02Z</time>
      </trkpt>
      <trkpt lat="59.318374125303" lon="18.027171013771">
        <ele>0</ele>
        <time>2016-05-03T17:27:03Z</time>
      </trkpt>
      <trkpt lat="59.318400193012" lon="18.02679726485">
        <ele>0</ele>
        <time>2016-05-03T17:27:06Z</time>
      </trkpt>
      <trkpt lat="59.318384602678" lon="18.026696011498">
        <ele>0</ele>
        <time>2016-05-03T17:27:07Z</time>
      </trkpt>
      <trkpt lat="59.318360881901" lon="18.026503395436">
        <ele>0</ele>
        <time>2016-05-03T17:27:09Z</time>
      </trkpt>
      <trkpt lat="59.318343028454" lon="18.026362914792">
        <ele>0</ele>
        <time>2016-05-03T17:27:11Z</time>
      </trkpt>
      <trkpt lat="59.318355182209" lon="18.026296949239">
        <ele>0</ele>
        <time>2016-05-03T17:27:12Z</time>
      </trkpt>
      <trkpt lat="59.318349314879" lon="18.026206759995">
        <ele>0</ele>
        <time>2016-05-03T17:27:13Z</time>
      </trkpt>
      <trkpt lat="59.318334898011" lon="18.026138615148">
        <ele>0</ele>
        <time>2016-05-03T17:27:14Z</time>
      </trkpt>
      <trkpt lat="59.318297179461" lon="18.026085222445">
        <ele>0</ele>
        <time>2016-05-03T17:27:15Z</time>
      </trkpt>
      <trkpt lat="59.318269267734" lon="18.02602696824">
        <ele>0</ele>
        <time>2016-05-03T17:27:16Z</time>
      </trkpt>
      <trkpt lat="59.318215036841" lon="18.025981957437">
        <ele>0</ele>
        <time>2016-05-03T17:27:17Z</time>
      </trkpt>
      <trkpt lat="59.318078579509" lon="18.02601020444">
        <ele>0</ele>
        <time>2016-05-03T17:27:20Z</time>
      </trkpt>
      <trkpt lat="59.318030635041" lon="18.026024369851">
        <ele>0</ele>
        <time>2016-05-03T17:27:21Z</time>
      </trkpt>
      <trkpt lat="59.317807508863" lon="18.026102740616">
        <ele>0</ele>
        <time>2016-05-03T17:27:25Z</time>
      </trkpt>
      <trkpt lat="59.317486398274" lon="18.026237102473">
        <ele>0</ele>
        <time>2016-05-03T17:27:30Z</time>
      </trkpt>
      <trkpt lat="59.317086749282" lon="18.026407255043">
        <ele>0</ele>
        <time>2016-05-03T17:27:36Z</time>
      </trkpt>
      <trkpt lat="59.316234058595" lon="18.026854094132">
        <ele>0</ele>
        <time>2016-05-03T17:27:39Z</time>
      </trkpt>
      <trkpt lat="59.316145378093" lon="18.027034556439">
        <ele>0</ele>
        <time>2016-05-03T17:27:41Z</time>
      </trkpt>
      <trkpt lat="59.31611042557" lon="18.0270780585">
        <ele>0</ele>
        <time>2016-05-03T17:27:42Z</time>
      </trkpt>
      <trkpt lat="59.315987630735" lon="18.027309650397">
        <ele>0</ele>
        <time>2016-05-03T17:27:44Z</time>
      </trkpt>
      <trkpt lat="59.315914875843" lon="18.027680465653">
        <ele>0</ele>
        <time>2016-05-03T17:27:47Z</time>
      </trkpt>
      <trkpt lat="59.315885706831" lon="18.02779638733">
        <ele>0</ele>
        <time>2016-05-03T17:27:48Z</time>
      </trkpt>
      <trkpt lat="59.315789231162" lon="18.028016496024">
        <ele>0</ele>
        <time>2016-05-03T17:27:50Z</time>
      </trkpt>
      <trkpt lat="59.31565025926" lon="18.028372894412">
        <ele>0</ele>
        <time>2016-05-03T17:27:53Z</time>
      </trkpt>
      <trkpt lat="59.315429982928" lon="18.029124834661">
        <ele>0</ele>
        <time>2016-05-03T17:27:59Z</time>
      </trkpt>
      <trkpt lat="59.315338536399" lon="18.029478215565">
        <ele>0</ele>
        <time>2016-05-03T17:28:02Z</time>
      </trkpt>
      <trkpt lat="59.315346080109" lon="18.029594975432">
        <ele>0</ele>
        <time>2016-05-03T17:28:03Z</time>
      </trkpt>
      <trkpt lat="59.315405926875" lon="18.029885072991">
        <ele>0</ele>
        <time>2016-05-03T17:28:06Z</time>
      </trkpt>
      <trkpt lat="59.315409950187" lon="18.02997400495">
        <ele>0</ele>
        <time>2016-05-03T17:28:07Z</time>
      </trkpt>
      <trkpt lat="59.315417158621" lon="18.030056566665">
        <ele>0</ele>
        <time>2016-05-03T17:28:08Z</time>
      </trkpt>
      <trkpt lat="59.315411291291" lon="18.03014331933">
        <ele>0</ele>
        <time>2016-05-03T17:28:09Z</time>
      </trkpt>
      <trkpt lat="59.315410369282" lon="18.03022713833">
        <ele>0</ele>
        <time>2016-05-03T17:28:10Z</time>
      </trkpt>
      <trkpt lat="59.315398886079" lon="18.030302072516">
        <ele>0</ele>
        <time>2016-05-03T17:28:11Z</time>
      </trkpt>
      <trkpt lat="59.315362508633" lon="18.030362254558">
        <ele>0</ele>
        <time>2016-05-03T17:28:12Z</time>
      </trkpt>
      <trkpt lat="59.315284556963" lon="18.030449593956">
        <ele>0</ele>
        <time>2016-05-03T17:28:14Z</time>
      </trkpt>
      <trkpt lat="59.315174502616" lon="18.030743714827">
        <ele>0</ele>
        <time>2016-05-03T17:28:18Z</time>
      </trkpt>
      <trkpt lat="59.315139130998" lon="18.030848656215">
        <ele>0</ele>
        <time>2016-05-03T17:28:19Z</time>
      </trkpt>
      <trkpt lat="59.314964452202" lon="18.031284850291">
        <ele>0</ele>
        <time>2016-05-03T17:28:23Z</time>
      </trkpt>
      <trkpt lat="59.314863785583" lon="18.031518118568">
        <ele>0</ele>
        <time>2016-05-03T17:28:25Z</time>
      </trkpt>
      <trkpt lat="59.314821792264" lon="18.031634543159">
        <ele>0</ele>
        <time>2016-05-03T17:28:26Z</time>
      </trkpt>
      <trkpt lat="59.31477686528" lon="18.03175012956">
        <ele>0</ele>
        <time>2016-05-03T17:28:27Z</time>
      </trkpt>
      <trkpt lat="59.314741577481" lon="18.031861273554">
        <ele>0</ele>
        <time>2016-05-03T17:28:28Z</time>
      </trkpt>
      <trkpt lat="59.31469807542" lon="18.031977195231">
        <ele>0</ele>
        <time>2016-05-03T17:28:29Z</time>
      </trkpt>
      <trkpt lat="59.314524821547" lon="18.032445994898">
        <ele>0</ele>
        <time>2016-05-03T17:28:33Z</time>
      </trkpt>
      <trkpt lat="59.314475703613" lon="18.032570549932">
        <ele>0</ele>
        <time>2016-05-03T17:28:34Z</time>
      </trkpt>
      <trkpt lat="59.314429267887" lon="18.032696529889">
        <ele>0</ele>
        <time>2016-05-03T17:28:35Z</time>
      </trkpt>
      <trkpt lat="59.314380569048" lon="18.032823767131">
        <ele>0</ele>
        <time>2016-05-03T17:28:36Z</time>
      </trkpt>
      <trkpt lat="59.314330696743" lon="18.03295544678">
        <ele>0</ele>
        <time>2016-05-03T17:28:37Z</time>
      </trkpt>
      <trkpt lat="59.314165154218" lon="18.033315197928">
        <ele>0</ele>
        <time>2016-05-03T17:28:40Z</time>
      </trkpt>
      <trkpt lat="59.31409541681" lon="18.033439836781">
        <ele>0</ele>
        <time>2016-05-03T17:28:41Z</time>
      </trkpt>
      <trkpt lat="59.314041269736" lon="18.033596075397">
        <ele>0</ele>
        <time>2016-05-03T17:28:42Z</time>
      </trkpt>
      <trkpt lat="59.313984608092" lon="18.033738064783">
        <ele>0</ele>
        <time>2016-05-03T17:28:43Z</time>
      </trkpt>
      <trkpt lat="59.313933227045" lon="18.033882568739">
        <ele>0</ele>
        <time>2016-05-03T17:28:44Z</time>
      </trkpt>
      <trkpt lat="59.31389676578" lon="18.034037885346">
        <ele>0</ele>
        <time>2016-05-03T17:28:45Z</time>
      </trkpt>
      <trkpt lat="59.313853096081" lon="18.034175767601">
        <ele>0</ele>
        <time>2016-05-03T17:28:46Z</time>
      </trkpt>
      <trkpt lat="59.313808420554" lon="18.034278613514">
        <ele>0</ele>
        <time>2016-05-03T17:28:47Z</time>
      </trkpt>
      <trkpt lat="59.313770869642" lon="18.03439797177">
        <ele>0</ele>
        <time>2016-05-03T17:28:48Z</time>
      </trkpt>
      <trkpt lat="59.313636423966" lon="18.034809690698">
        <ele>0</ele>
        <time>2016-05-03T17:28:51Z</time>
      </trkpt>
      <trkpt lat="59.31358579729" lon="18.034927121117">
        <ele>0</ele>
        <time>2016-05-03T17:28:52Z</time>
      </trkpt>
      <trkpt lat="59.313533578053" lon="18.035047820477">
        <ele>0</ele>
        <time>2016-05-03T17:28:53Z</time>
      </trkpt>
      <trkpt lat="59.313485968861" lon="18.035169777122">
        <ele>0</ele>
        <time>2016-05-03T17:28:54Z</time>
      </trkpt>
      <trkpt lat="59.313411202313" lon="18.035368092876">
        <ele>0</ele>
        <time>2016-05-03T17:28:56Z</time>
      </trkpt>
      <trkpt lat="59.313318498499" lon="18.035589123579">
        <ele>0</ele>
        <time>2016-05-03T17:28:59Z</time>
      </trkpt>
      <trkpt lat="59.31328740165" lon="18.03567034419">
        <ele>0</ele>
        <time>2016-05-03T17:29:00Z</time>
      </trkpt>
      <trkpt lat="59.31309294157" lon="18.036079967643">
        <ele>0</ele>
        <time>2016-05-03T17:29:04Z</time>
      </trkpt>
      <trkpt lat="59.31277275299" lon="18.036684051176">
        <ele>0</ele>
        <time>2016-05-03T17:29:10Z</time>
      </trkpt>
      <trkpt lat="59.312445607433" lon="18.037303473586">
        <ele>0</ele>
        <time>2016-05-03T17:29:16Z</time>
      </trkpt>
      <trkpt lat="59.312112594546" lon="18.037981317839">
        <ele>0</ele>
        <time>2016-05-03T17:29:23Z</time>
      </trkpt>
      <trkpt lat="59.312004887131" lon="18.038298153659">
        <ele>0</ele>
        <time>2016-05-03T17:29:26Z</time>
      </trkpt>
      <trkpt lat="59.311926767823" lon="18.038506108598">
        <ele>0</ele>
        <time>2016-05-03T17:29:28Z</time>
      </trkpt>
      <trkpt lat="59.311770613026" lon="18.038735521201">
        <ele>0</ele>
        <time>2016-05-03T17:29:31Z</time>
      </trkpt>
      <trkpt lat="59.311639017196" lon="18.039003239087">
        <ele>0</ele>
        <time>2016-05-03T17:29:34Z</time>
      </trkpt>
      <trkpt lat="59.311562993363" lon="18.039226700541">
        <ele>0</ele>
        <time>2016-05-03T17:29:36Z</time>
      </trkpt>
      <trkpt lat="59.311380687038" lon="18.039646214636">
        <ele>0</ele>
        <time>2016-05-03T17:29:40Z</time>
      </trkpt>
      <trkpt lat="59.311342214117" lon="18.039752748585">
        <ele>0</ele>
        <time>2016-05-03T17:29:41Z</time>
      </trkpt>
      <trkpt lat="59.311230902485" lon="18.040080145599">
        <ele>0</ele>
        <time>2016-05-03T17:29:44Z</time>
      </trkpt>
      <trkpt lat="59.311062929209" lon="18.040494295278">
        <ele>0</ele>
        <time>2016-05-03T17:29:48Z</time>
      </trkpt>
      <trkpt lat="59.311023534279" lon="18.040602757064">
        <ele>0</ele>
        <time>2016-05-03T17:29:49Z</time>
      </trkpt>
      <trkpt lat="59.310806694526" lon="18.041191334082">
        <ele>0</ele>
        <time>2016-05-03T17:29:54Z</time>
      </trkpt>
      <trkpt lat="59.310710302676" lon="18.041403479971">
        <ele>0</ele>
        <time>2016-05-03T17:29:56Z</time>
      </trkpt>
      <trkpt lat="59.310566888367" lon="18.041740935265">
        <ele>0</ele>
        <time>2016-05-03T17:29:59Z</time>
      </trkpt>
      <trkpt lat="59.310373182658" lon="18.042328254998">
        <ele>0</ele>
        <time>2016-05-03T17:30:04Z</time>
      </trkpt>
      <trkpt lat="59.310221889363" lon="18.042947342132">
        <ele>0</ele>
        <time>2016-05-03T17:30:09Z</time>
      </trkpt>
      <trkpt lat="59.310092975741" lon="18.043449501761">
        <ele>0</ele>
        <time>2016-05-03T17:30:13Z</time>
      </trkpt>
      <trkpt lat="59.310060453969" lon="18.043567602732">
        <ele>0</ele>
        <time>2016-05-03T17:30:14Z</time>
      </trkpt>
      <trkpt lat="59.309980825919" lon="18.043923498206">
        <ele>0</ele>
        <time>2016-05-03T17:30:17Z</time>
      </trkpt>
      <trkpt lat="59.309951824545" lon="18.044166070392">
        <ele>0</ele>
        <time>2016-05-03T17:30:19Z</time>
      </trkpt>
      <trkpt lat="59.30995811097" lon="18.044272352884">
        <ele>0</ele>
        <time>2016-05-03T17:30:20Z</time>
      </trkpt>
      <trkpt lat="59.30995392002" lon="18.044424484369">
        <ele>0</ele>
        <time>2016-05-03T17:30:22Z</time>
      </trkpt>
      <trkpt lat="59.309911507606" lon="18.044657501189">
        <ele>0</ele>
        <time>2016-05-03T17:30:26Z</time>
      </trkpt>
      <trkpt lat="59.309810924806" lon="18.044940222676">
        <ele>0</ele>
        <time>2016-05-03T17:30:29Z</time>
      </trkpt>
      <trkpt lat="59.30977203279" lon="18.045044577331">
        <ele>0</ele>
        <time>2016-05-03T17:30:30Z</time>
      </trkpt>
      <trkpt lat="59.30971335949" lon="18.045282539472">
        <ele>0</ele>
        <time>2016-05-03T17:30:33Z</time>
      </trkpt>
      <trkpt lat="59.309668432506" lon="18.045346661007">
        <ele>0</ele>
        <time>2016-05-03T17:30:34Z</time>
      </trkpt>
      <trkpt lat="59.309620068943" lon="18.045419667356">
        <ele>0</ele>
        <time>2016-05-03T17:30:35Z</time>
      </trkpt>
      <trkpt lat="59.309573884674" lon="18.045518322319">
        <ele>0</ele>
        <time>2016-05-03T17:30:36Z</time>
      </trkpt>
      <trkpt lat="59.309535914667" lon="18.045616725825">
        <ele>0</ele>
        <time>2016-05-03T17:30:37Z</time>
      </trkpt>
      <trkpt lat="59.309495933004" lon="18.045713872046">
        <ele>0</ele>
        <time>2016-05-03T17:30:38Z</time>
      </trkpt>
      <trkpt lat="59.309355955274" lon="18.046047052571">
        <ele>0</ele>
        <time>2016-05-03T17:30:41Z</time>
      </trkpt>
      <trkpt lat="59.309299125992" lon="18.046242686117">
        <ele>0</ele>
        <time>2016-05-03T17:30:43Z</time>
      </trkpt>
      <trkpt lat="59.30925570775" lon="18.046355422672">
        <ele>0</ele>
        <time>2016-05-03T17:30:44Z</time>
      </trkpt>
      <trkpt lat="59.309221761055" lon="18.046472685453">
        <ele>0</ele>
        <time>2016-05-03T17:30:45Z</time>
      </trkpt>
      <trkpt lat="59.309173816587" lon="18.046582907438">
        <ele>0</ele>
        <time>2016-05-03T17:30:46Z</time>
      </trkpt>
      <trkpt lat="59.309137271503" lon="18.046704696445">
        <ele>0</ele>
        <time>2016-05-03T17:30:47Z</time>
      </trkpt>
      <trkpt lat="59.309100894057" lon="18.046839645035">
        <ele>0</ele>
        <time>2016-05-03T17:30:48Z</time>
      </trkpt>
      <trkpt lat="59.309075664538" lon="18.046975096539">
        <ele>0</ele>
        <time>2016-05-03T17:30:49Z</time>
      </trkpt>
      <trkpt lat="59.308934010428" lon="18.047723767847">
        <ele>0</ele>
        <time>2016-05-03T17:30:55Z</time>
      </trkpt>
      <trkpt lat="59.308855555844" lon="18.04813506768">
        <ele>0</ele>
        <time>2016-05-03T17:30:58Z</time>
      </trkpt>
      <trkpt lat="59.308831332153" lon="18.048429020913">
        <ele>0</ele>
        <time>2016-05-03T17:31:00Z</time>
      </trkpt>
      <trkpt lat="59.308790847576" lon="18.048688859813">
        <ele>0</ele>
        <time>2016-05-03T17:31:02Z</time>
      </trkpt>
      <trkpt lat="59.30873016262" lon="18.048912488905">
        <ele>0</ele>
        <time>2016-05-03T17:31:04Z</time>
      </trkpt>
      <trkpt lat="59.308679787401" lon="18.049118767464">
        <ele>0</ele>
        <time>2016-05-03T17:31:06Z</time>
      </trkpt>
      <trkpt lat="59.308649444923" lon="18.049324626928">
        <ele>0</ele>
        <time>2016-05-03T17:31:08Z</time>
      </trkpt>
      <trkpt lat="59.308559926231" lon="18.049948827021">
        <ele>0</ele>
        <time>2016-05-03T17:31:13Z</time>
      </trkpt>
      <trkpt lat="59.308512400858" lon="18.050432043556">
        <ele>0</ele>
        <time>2016-05-03T17:31:17Z</time>
      </trkpt>
      <trkpt lat="59.308510808297" lon="18.050526256112">
        <ele>0</ele>
        <time>2016-05-03T17:31:18Z</time>
      </trkpt>
      <trkpt lat="59.308481806923" lon="18.050634634079">
        <ele>0</ele>
        <time>2016-05-03T17:31:19Z</time>
      </trkpt>
      <trkpt lat="59.308445680934" lon="18.050749047014">
        <ele>0</ele>
        <time>2016-05-03T17:31:20Z</time>
      </trkpt>
      <trkpt lat="59.308365298513" lon="18.051072588354">
        <ele>0</ele>
        <time>2016-05-03T17:31:23Z</time>
      </trkpt>
      <trkpt lat="59.308260860039" lon="18.051285907709">
        <ele>0</ele>
        <time>2016-05-03T17:31:26Z</time>
      </trkpt>
      <trkpt lat="59.308236217253" lon="18.051397386979">
        <ele>0</ele>
        <time>2016-05-03T17:31:27Z</time>
      </trkpt>
      <trkpt lat="59.308096993894" lon="18.051772141728">
        <ele>0</ele>
        <time>2016-05-03T17:31:31Z</time>
      </trkpt>
      <trkpt lat="59.307938156889" lon="18.052253598064">
        <ele>0</ele>
        <time>2016-05-03T17:31:36Z</time>
      </trkpt>
      <trkpt lat="59.307920638718" lon="18.052383349876">
        <ele>0</ele>
        <time>2016-05-03T17:31:37Z</time>
      </trkpt>
      <trkpt lat="59.307857355373" lon="18.052758272263">
        <ele>0</ele>
        <time>2016-05-03T17:31:40Z</time>
      </trkpt>
      <trkpt lat="59.307795161675" lon="18.053207039189">
        <ele>0</ele>
        <time>2016-05-03T17:31:44Z</time>
      </trkpt>
      <trkpt lat="59.307776553857" lon="18.053317680269">
        <ele>0</ele>
        <time>2016-05-03T17:31:45Z</time>
      </trkpt>
      <trkpt lat="59.307675132867" lon="18.053882117415">
        <ele>0</ele>
        <time>2016-05-03T17:31:50Z</time>
      </trkpt>
      <trkpt lat="59.307639090697" lon="18.054112535846">
        <ele>0</ele>
        <time>2016-05-03T17:31:52Z</time>
      </trkpt>
      <trkpt lat="59.307559797923" lon="18.054457870126">
        <ele>0</ele>
        <time>2016-05-03T17:31:55Z</time>
      </trkpt>
      <trkpt lat="59.307494083827" lon="18.054761211087">
        <ele>0</ele>
        <time>2016-05-03T17:31:58Z</time>
      </trkpt>
      <trkpt lat="59.307466255919" lon="18.054940164652">
        <ele>0</ele>
        <time>2016-05-03T17:32:00Z</time>
      </trkpt>
      <trkpt lat="59.307436667812" lon="18.055107215919">
        <ele>0</ele>
        <time>2016-05-03T17:32:02Z</time>
      </trkpt>
      <trkpt lat="59.307392662837" lon="18.055359343471">
        <ele>0</ele>
        <time>2016-05-03T17:32:05Z</time>
      </trkpt>
      <trkpt lat="59.307267437251" lon="18.055880446194">
        <ele>0</ele>
        <time>2016-05-03T17:32:10Z</time>
      </trkpt>
      <trkpt lat="59.307067780393" lon="18.056752582889">
        <ele>0</ele>
        <time>2016-05-03T17:32:17Z</time>
      </trkpt>
      <trkpt lat="59.306886731353" lon="18.057616589141">
        <ele>0</ele>
        <time>2016-05-03T17:32:24Z</time>
      </trkpt>
      <trkpt lat="59.306870638105" lon="18.057745921858">
        <ele>0</ele>
        <time>2016-05-03T17:32:25Z</time>
      </trkpt>
      <trkpt lat="59.306778940119" lon="18.05809192669">
        <ele>0</ele>
        <time>2016-05-03T17:32:28Z</time>
      </trkpt>
      <trkpt lat="59.306750776935" lon="18.05820340596">
        <ele>0</ele>
        <time>2016-05-03T17:32:29Z</time>
      </trkpt>
      <trkpt lat="59.306653546895" lon="18.058626859548">
        <ele>0</ele>
        <time>2016-05-03T17:32:33Z</time>
      </trkpt>
      <trkpt lat="59.306521364332" lon="18.058827270777">
        <ele>0</ele>
        <time>2016-05-03T17:32:36Z</time>
      </trkpt>
      <trkpt lat="59.30641424365" lon="18.059116362508">
        <ele>0</ele>
        <time>2016-05-03T17:32:39Z</time>
      </trkpt>
      <trkpt lat="59.30638239243" lon="18.059215436566">
        <ele>0</ele>
        <time>2016-05-03T17:32:40Z</time>
      </trkpt>
      <trkpt lat="59.306248365849" lon="18.059647691149">
        <ele>0</ele>
        <time>2016-05-03T17:32:45Z</time>
      </trkpt>
      <trkpt lat="59.30621643081" lon="18.059775515124">
        <ele>0</ele>
        <time>2016-05-03T17:32:47Z</time>
      </trkpt>
      <trkpt lat="59.306169073075" lon="18.059936112328">
        <ele>0</ele>
        <time>2016-05-03T17:32:49Z</time>
      </trkpt>
      <trkpt lat="59.306116770019" lon="18.060114395341">
        <ele>0</ele>
        <time>2016-05-03T17:32:51Z</time>
      </trkpt>
      <trkpt lat="59.306064131687" lon="18.060306257032">
        <ele>0</ele>
        <time>2016-05-03T17:32:53Z</time>
      </trkpt>
      <trkpt lat="59.306030855544" lon="18.060402481244">
        <ele>0</ele>
        <time>2016-05-03T17:32:54Z</time>
      </trkpt>
      <trkpt lat="59.305909066537" lon="18.06068277198">
        <ele>0</ele>
        <time>2016-05-03T17:32:58Z</time>
      </trkpt>
      <trkpt lat="59.305871767082" lon="18.060809757765">
        <ele>0</ele>
        <time>2016-05-03T17:33:02Z</time>
      </trkpt>
      <trkpt lat="59.305764478762" lon="18.0611253363">
        <ele>0</ele>
        <time>2016-05-03T17:33:06Z</time>
      </trkpt>
      <trkpt lat="59.305734723017" lon="18.06121586082">
        <ele>0</ele>
        <time>2016-05-03T17:33:07Z</time>
      </trkpt>
      <trkpt lat="59.305599942065" lon="18.061615258355">
        <ele>0</ele>
        <time>2016-05-03T17:33:11Z</time>
      </trkpt>
      <trkpt lat="59.305431465875" lon="18.062015410261">
        <ele>0</ele>
        <time>2016-05-03T17:33:16Z</time>
      </trkpt>
      <trkpt lat="59.305340019346" lon="18.062286732364">
        <ele>0</ele>
        <time>2016-05-03T17:33:19Z</time>
      </trkpt>
      <trkpt lat="59.305318142587" lon="18.06239016501">
        <ele>0</ele>
        <time>2016-05-03T17:33:20Z</time>
      </trkpt>
      <trkpt lat="59.305300959692" lon="18.062490915448">
        <ele>0</ele>
        <time>2016-05-03T17:33:21Z</time>
      </trkpt>
      <trkpt lat="59.305268186463" lon="18.062751173443">
        <ele>0</ele>
        <time>2016-05-03T17:33:24Z</time>
      </trkpt>
      <trkpt lat="59.30525586507" lon="18.062856533926">
        <ele>0</ele>
        <time>2016-05-03T17:33:25Z</time>
      </trkpt>
      <trkpt lat="59.305192330268" lon="18.063193905401">
        <ele>0</ele>
        <time>2016-05-03T17:33:28Z</time>
      </trkpt>
      <trkpt lat="59.305128711647" lon="18.063542592441">
        <ele>0</ele>
        <time>2016-05-03T17:33:31Z</time>
      </trkpt>
      <trkpt lat="59.305089484355" lon="18.063752726674">
        <ele>0</ele>
        <time>2016-05-03T17:33:33Z</time>
      </trkpt>
      <trkpt lat="59.305065931216" lon="18.064077357661">
        <ele>0</ele>
        <time>2016-05-03T17:33:36Z</time>
      </trkpt>
      <trkpt lat="59.305062159361" lon="18.064179281565">
        <ele>0</ele>
        <time>2016-05-03T17:33:37Z</time>
      </trkpt>
      <trkpt lat="59.305063165189" lon="18.064280618736">
        <ele>0</ele>
        <time>2016-05-03T17:33:38Z</time>
      </trkpt>
      <trkpt lat="59.305059141877" lon="18.064561831481">
        <ele>0</ele>
        <time>2016-05-03T17:33:41Z</time>
      </trkpt>
      <trkpt lat="59.305065428302" lon="18.064956032238">
        <ele>0</ele>
        <time>2016-05-03T17:33:45Z</time>
      </trkpt>
      <trkpt lat="59.305053358366" lon="18.065449726148">
        <ele>0</ele>
        <time>2016-05-03T17:33:50Z</time>
      </trkpt>
      <trkpt lat="59.305049418873" lon="18.065839233041">
        <ele>0</ele>
        <time>2016-05-03T17:33:54Z</time>
      </trkpt>
      <trkpt lat="59.305039109136" lon="18.065940151117">
        <ele>0</ele>
        <time>2016-05-03T17:33:55Z</time>
      </trkpt>
      <trkpt lat="59.304910279333" lon="18.066688990063">
        <ele>0</ele>
        <time>2016-05-03T17:34:02Z</time>
      </trkpt>
      <trkpt lat="59.304901645976" lon="18.066879762107">
        <ele>0</ele>
        <time>2016-05-03T17:34:04Z</time>
      </trkpt>
      <trkpt lat="59.30490382527" lon="18.067061481699">
        <ele>0</ele>
        <time>2016-05-03T17:34:06Z</time>
      </trkpt>
      <trkpt lat="59.304901981252" lon="18.067269101362">
        <ele>0</ele>
        <time>2016-05-03T17:34:09Z</time>
      </trkpt>
      <trkpt lat="59.304884043986" lon="18.067331797974">
        <ele>0</ele>
        <time>2016-05-03T17:34:10Z</time>
      </trkpt>
      <trkpt lat="59.304806511411" lon="18.06757520835">
        <ele>0</ele>
        <time>2016-05-03T17:34:13Z</time>
      </trkpt>
      <trkpt lat="59.304786562489" lon="18.067659194988">
        <ele>0</ele>
        <time>2016-05-03T17:34:14Z</time>
      </trkpt>
      <trkpt lat="59.304677430151" lon="18.068054569211">
        <ele>0</ele>
        <time>2016-05-03T17:34:18Z</time>
      </trkpt>
      <trkpt lat="59.304616912833" lon="18.06825917139">
        <ele>0</ele>
        <time>2016-05-03T17:34:20Z</time>
      </trkpt>
      <trkpt lat="59.304591515676" lon="18.068372997592">
        <ele>0</ele>
        <time>2016-05-03T17:34:21Z</time>
      </trkpt>
      <trkpt lat="59.304544996131" lon="18.068600063263">
        <ele>0</ele>
        <time>2016-05-03T17:34:23Z</time>
      </trkpt>
      <trkpt lat="59.304474085257" lon="18.069070623129">
        <ele>0</ele>
        <time>2016-05-03T17:34:27Z</time>
      </trkpt>
      <trkpt lat="59.304458159647" lon="18.069184197874">
        <ele>0</ele>
        <time>2016-05-03T17:34:28Z</time>
      </trkpt>
      <trkpt lat="59.304438043087" lon="18.069299029904">
        <ele>0</ele>
        <time>2016-05-03T17:34:29Z</time>
      </trkpt>
      <trkpt lat="59.304352212431" lon="18.06961787738">
        <ele>0</ele>
        <time>2016-05-03T17:34:32Z</time>
      </trkpt>
      <trkpt lat="59.304221203334" lon="18.070178039757">
        <ele>0</ele>
        <time>2016-05-03T17:34:37Z</time>
      </trkpt>
      <trkpt lat="59.304201924964" lon="18.070292117416">
        <ele>0</ele>
        <time>2016-05-03T17:34:38Z</time>
      </trkpt>
      <trkpt lat="59.304148783718" lon="18.070713894624">
        <ele>0</ele>
        <time>2016-05-03T17:34:42Z</time>
      </trkpt>
      <trkpt lat="59.304109556426" lon="18.071152854727">
        <ele>0</ele>
        <time>2016-05-03T17:34:46Z</time>
      </trkpt>
      <trkpt lat="59.304102431811" lon="18.071272799716">
        <ele>0</ele>
        <time>2016-05-03T17:34:47Z</time>
      </trkpt>
      <trkpt lat="59.304088769314" lon="18.071511683866">
        <ele>0</ele>
        <time>2016-05-03T17:34:49Z</time>
      </trkpt>
      <trkpt lat="59.304055325533" lon="18.071763308504">
        <ele>0</ele>
        <time>2016-05-03T17:34:51Z</time>
      </trkpt>
      <trkpt lat="59.304034370783" lon="18.072133034113">
        <ele>0</ele>
        <time>2016-05-03T17:34:54Z</time>
      </trkpt>
      <trkpt lat="59.304047949461" lon="18.072254655482">
        <ele>0</ele>
        <time>2016-05-03T17:34:55Z</time>
      </trkpt>
      <trkpt lat="59.304171833943" lon="18.072729322479">
        <ele>0</ele>
        <time>2016-05-03T17:34:59Z</time>
      </trkpt>
      <trkpt lat="59.304229166139" lon="18.07295974091">
        <ele>0</ele>
        <time>2016-05-03T17:35:01Z</time>
      </trkpt>
      <trkpt lat="59.304260011531" lon="18.07308044027">
        <ele>0</ele>
        <time>2016-05-03T17:35:02Z</time>
      </trkpt>
      <trkpt lat="59.304291611294" lon="18.073211365548">
        <ele>0</ele>
        <time>2016-05-03T17:35:03Z</time>
      </trkpt>
      <trkpt lat="59.304323546333" lon="18.073354276943">
        <ele>0</ele>
        <time>2016-05-03T17:35:04Z</time>
      </trkpt>
      <trkpt lat="59.304369814421" lon="18.073616462775">
        <ele>0</ele>
        <time>2016-05-03T17:35:06Z</time>
      </trkpt>
      <trkpt lat="59.304408957894" lon="18.07387588258">
        <ele>0</ele>
        <time>2016-05-03T17:35:08Z</time>
      </trkpt>
      <trkpt lat="59.304418261803" lon="18.073997168673">
        <ele>0</ele>
        <time>2016-05-03T17:35:09Z</time>
      </trkpt>
      <trkpt lat="59.304409796084" lon="18.074117868033">
        <ele>0</ele>
        <time>2016-05-03T17:35:10Z</time>
      </trkpt>
      <trkpt lat="59.3043900148" lon="18.074233957348">
        <ele>0</ele>
        <time>2016-05-03T17:35:11Z</time>
      </trkpt>
      <trkpt lat="59.304371239344" lon="18.074340994211">
        <ele>0</ele>
        <time>2016-05-03T17:35:12Z</time>
      </trkpt>
      <trkpt lat="59.304351625698" lon="18.074445265047">
        <ele>0</ele>
        <time>2016-05-03T17:35:13Z</time>
      </trkpt>
      <trkpt lat="59.304326982912" lon="18.074553559195">
        <ele>0</ele>
        <time>2016-05-03T17:35:14Z</time>
      </trkpt>
      <trkpt lat="59.304297730081" lon="18.074656824203">
        <ele>0</ele>
        <time>2016-05-03T17:35:15Z</time>
      </trkpt>
      <trkpt lat="59.304163954957" lon="18.074941054432">
        <ele>0</ele>
        <time>2016-05-03T17:35:18Z</time>
      </trkpt>
      <trkpt lat="59.303843934015" lon="18.075479423869">
        <ele>0</ele>
        <time>2016-05-03T17:35:24Z</time>
      </trkpt>
      <trkpt lat="59.303703201914" lon="18.075768096505">
        <ele>0</ele>
        <time>2016-05-03T17:35:27Z</time>
      </trkpt>
      <trkpt lat="59.303669590495" lon="18.075873959902">
        <ele>0</ele>
        <time>2016-05-03T17:35:28Z</time>
      </trkpt>
      <trkpt lat="59.303615108145" lon="18.076378215006">
        <ele>0</ele>
        <time>2016-05-03T17:35:32Z</time>
      </trkpt>
      <trkpt lat="59.303616533068" lon="18.076633695318">
        <ele>0</ele>
        <time>2016-05-03T17:35:34Z</time>
      </trkpt>
      <trkpt lat="59.303632793954" lon="18.076896132607">
        <ele>0</ele>
        <time>2016-05-03T17:35:36Z</time>
      </trkpt>
      <trkpt lat="59.303653832523" lon="18.077021442012">
        <ele>0</ele>
        <time>2016-05-03T17:35:37Z</time>
      </trkpt>
      <trkpt lat="59.303672775617" lon="18.077145577951">
        <ele>0</ele>
        <time>2016-05-03T17:35:38Z</time>
      </trkpt>
      <trkpt lat="59.303689539417" lon="18.077254291194">
        <ele>0</ele>
        <time>2016-05-03T17:35:39Z</time>
      </trkpt>
      <trkpt lat="59.303705045932" lon="18.077353784347">
        <ele>0</ele>
        <time>2016-05-03T17:35:40Z</time>
      </trkpt>
      <trkpt lat="59.303720133352" lon="18.07745830664">
        <ele>0</ele>
        <time>2016-05-03T17:35:41Z</time>
      </trkpt>
      <trkpt lat="59.303737735342" lon="18.077567522797">
        <ele>0</ele>
        <time>2016-05-03T17:35:42Z</time>
      </trkpt>
      <trkpt lat="59.303817614849" lon="18.078082422914">
        <ele>0</ele>
        <time>2016-05-03T17:35:47Z</time>
      </trkpt>
      <trkpt lat="59.303833205183" lon="18.078176719289">
        <ele>0</ele>
        <time>2016-05-03T17:35:48Z</time>
      </trkpt>
      <trkpt lat="59.303854159933" lon="18.078264393963">
        <ele>0</ele>
        <time>2016-05-03T17:35:49Z</time>
      </trkpt>
      <trkpt lat="59.303882742212" lon="18.078339160511">
        <ele>0</ele>
        <time>2016-05-03T17:35:50Z</time>
      </trkpt>
      <trkpt lat="59.303915180165" lon="18.078400851295">
        <ele>0</ele>
        <time>2016-05-03T17:35:51Z</time>
      </trkpt>
      <trkpt lat="59.303987432143" lon="18.078498919525">
        <ele>0</ele>
        <time>2016-05-03T17:35:53Z</time>
      </trkpt>
      <trkpt lat="59.304024144865" lon="18.078543595052">
        <ele>0</ele>
        <time>2016-05-03T17:35:54Z</time>
      </trkpt>
      <trkpt lat="59.304059600302" lon="18.078588773493">
        <ele>0</ele>
        <time>2016-05-03T17:35:55Z</time>
      </trkpt>
      <trkpt lat="59.304087260572" lon="18.078634371029">
        <ele>0</ele>
        <time>2016-05-03T17:35:56Z</time>
      </trkpt>
      <trkpt lat="59.304105784571" lon="18.078689104836">
        <ele>0</ele>
        <time>2016-05-03T17:35:57Z</time>
      </trkpt>
      <trkpt lat="59.304120452896" lon="18.078748867783">
        <ele>0</ele>
        <time>2016-05-03T17:35:58Z</time>
      </trkpt>
      <trkpt lat="59.304141407646" lon="18.07881282168">
        <ele>0</ele>
        <time>2016-05-03T17:35:59Z</time>
      </trkpt>
      <trkpt lat="59.304153309944" lon="18.078873841912">
        <ele>0</ele>
        <time>2016-05-03T17:36:00Z</time>
      </trkpt>
      <trkpt lat="59.304158087627" lon="18.078937376714">
        <ele>0</ele>
        <time>2016-05-03T17:36:01Z</time>
      </trkpt>
      <trkpt lat="59.304151885021" lon="18.078997307299">
        <ele>0</ele>
        <time>2016-05-03T17:36:02Z</time>
      </trkpt>
      <trkpt lat="59.30411005934" lon="18.079118509573">
        <ele>0</ele>
        <time>2016-05-03T17:36:04Z</time>
      </trkpt>
      <trkpt lat="59.304074771541" lon="18.079171315543">
        <ele>0</ele>
        <time>2016-05-03T17:36:05Z</time>
      </trkpt>
      <trkpt lat="59.304032191489" lon="18.079212973586">
        <ele>0</ele>
        <time>2016-05-03T17:36:06Z</time>
      </trkpt>
      <trkpt lat="59.30398852179" lon="18.079248261385">
        <ele>0</ele>
        <time>2016-05-03T17:36:07Z</time>
      </trkpt>
      <trkpt lat="59.303942924254" lon="18.079287740134">
        <ele>0</ele>
        <time>2016-05-03T17:36:08Z</time>
      </trkpt>
      <trkpt lat="59.303688114494" lon="18.079467112794">
        <ele>0</ele>
        <time>2016-05-03T17:36:13Z</time>
      </trkpt>
      <trkpt lat="59.303354095779" lon="18.079680180692">
        <ele>0</ele>
        <time>2016-05-03T17:36:19Z</time>
      </trkpt>
      <trkpt lat="59.303234486066" lon="18.079740278915">
        <ele>0</ele>
        <time>2016-05-03T17:36:21Z</time>
      </trkpt>
      <trkpt lat="59.303057460338" lon="18.079786044089">
        <ele>0</ele>
        <time>2016-05-03T17:36:24Z</time>
      </trkpt>
      <trkpt lat="59.303000379599" lon="18.079783529519">
        <ele>0</ele>
        <time>2016-05-03T17:36:25Z</time>
      </trkpt>
      <trkpt lat="59.302824527337" lon="18.079783278062">
        <ele>0</ele>
        <time>2016-05-03T17:36:28Z</time>
      </trkpt>
      <trkpt lat="59.302717406655" lon="18.079814542549">
        <ele>0</ele>
        <time>2016-05-03T17:36:30Z</time>
      </trkpt>
      <trkpt lat="59.302669043092" lon="18.079855865316">
        <ele>0</ele>
        <time>2016-05-03T17:36:31Z</time>
      </trkpt>
      <trkpt lat="59.302394954962" lon="18.080039596564">
        <ele>0</ele>
        <time>2016-05-03T17:36:36Z</time>
      </trkpt>
      <trkpt lat="59.302027660104" lon="18.080291724116">
        <ele>0</ele>
        <time>2016-05-03T17:36:43Z</time>
      </trkpt>
      <trkpt lat="59.301924814191" lon="18.080377638591">
        <ele>0</ele>
        <time>2016-05-03T17:36:45Z</time>
      </trkpt>
      <trkpt lat="59.301869828927" lon="18.080426840344">
        <ele>0</ele>
        <time>2016-05-03T17:36:46Z</time>
      </trkpt>
      <trkpt lat="59.301816436224" lon="18.080479059581">
        <ele>0.2</ele>
        <time>2016-05-03T17:36:47Z</time>
      </trkpt>
      <trkpt lat="59.301766563919" lon="18.080539157804">
        <ele>0.6</ele>
        <time>2016-05-03T17:36:48Z</time>
      </trkpt>
      <trkpt lat="59.301718200356" lon="18.080613002343">
        <ele>1</ele>
        <time>2016-05-03T17:36:49Z</time>
      </trkpt>
      <trkpt lat="59.301580821015" lon="18.080826237879">
        <ele>1</ele>
        <time>2016-05-03T17:36:52Z</time>
      </trkpt>
      <trkpt lat="59.301544778845" lon="18.080913577277">
        <ele>1</ele>
        <time>2016-05-03T17:36:53Z</time>
      </trkpt>
      <trkpt lat="59.301510664512" lon="18.0810072031">
        <ele>1</ele>
        <time>2016-05-03T17:36:54Z</time>
      </trkpt>
      <trkpt lat="59.301482668966" lon="18.081111306298">
        <ele>1.4</ele>
        <time>2016-05-03T17:36:55Z</time>
      </trkpt>
      <trkpt lat="59.301453583773" lon="18.081219013713">
        <ele>1.8</ele>
        <time>2016-05-03T17:36:56Z</time>
      </trkpt>
      <trkpt lat="59.301422738381" lon="18.081339713073">
        <ele>2.2</ele>
        <time>2016-05-03T17:36:57Z</time>
      </trkpt>
      <trkpt lat="59.301390468066" lon="18.081451108524">
        <ele>2.6</ele>
        <time>2016-05-03T17:36:58Z</time>
      </trkpt>
      <trkpt lat="59.301363729805" lon="18.081558145387">
        <ele>3</ele>
        <time>2016-05-03T17:36:59Z</time>
      </trkpt>
      <trkpt lat="59.301281084271" lon="18.081864168556">
        <ele>3</ele>
        <time>2016-05-03T17:37:02Z</time>
      </trkpt>
      <trkpt lat="59.301245796472" lon="18.08195938694">
        <ele>3</ele>
        <time>2016-05-03T17:37:03Z</time>
      </trkpt>
      <trkpt lat="59.301173544494" lon="18.082150158984">
        <ele>3.6</ele>
        <time>2016-05-03T17:37:05Z</time>
      </trkpt>
      <trkpt lat="59.301138340514" lon="18.082235067631">
        <ele>4.4</ele>
        <time>2016-05-03T17:37:06Z</time>
      </trkpt>
      <trkpt lat="59.301104645276" lon="18.082311342921">
        <ele>4.8</ele>
        <time>2016-05-03T17:37:07Z</time>
      </trkpt>
      <trkpt lat="59.301077823196" lon="18.082379487768">
        <ele>5.2</ele>
        <time>2016-05-03T17:37:08Z</time>
      </trkpt>
      <trkpt lat="59.301051001116" lon="18.082449644271">
        <ele>5.2</ele>
        <time>2016-05-03T17:37:09Z</time>
      </trkpt>
      <trkpt lat="59.300848745869" lon="18.082930346236">
        <ele>5.2</ele>
        <time>2016-05-03T17:37:15Z</time>
      </trkpt>
      <trkpt lat="59.300816727011" lon="18.083014165236">
        <ele>5.6</ele>
        <time>2016-05-03T17:37:16Z</time>
      </trkpt>
      <trkpt lat="59.300784624334" lon="18.083095721123">
        <ele>6</ele>
        <time>2016-05-03T17:37:17Z</time>
      </trkpt>
      <trkpt lat="59.300752018743" lon="18.083177193191">
        <ele>6.6</ele>
        <time>2016-05-03T17:37:18Z</time>
      </trkpt>
      <trkpt lat="59.300718910238" lon="18.083266795702">
        <ele>7</ele>
        <time>2016-05-03T17:37:19Z</time>
      </trkpt>
      <trkpt lat="59.300690830873" lon="18.083341981345">
        <ele>7.4</ele>
        <time>2016-05-03T17:37:20Z</time>
      </trkpt>
      <trkpt lat="59.300634672143" lon="18.083500315436">
        <ele>7.4</ele>
        <time>2016-05-03T17:37:22Z</time>
      </trkpt>
      <trkpt lat="59.300515984439" lon="18.083798711076">
        <ele>7.4</ele>
        <time>2016-05-03T17:37:26Z</time>
      </trkpt>
      <trkpt lat="59.300461585908" lon="18.083817737989">
        <ele>7.4</ele>
        <time>2016-05-03T17:37:27Z</time>
      </trkpt>
      <trkpt lat="59.3004086123" lon="18.083786138226">
        <ele>7.8</ele>
        <time>2016-05-03T17:37:28Z</time>
      </trkpt>
      <trkpt lat="59.300372486311" lon="18.083723525433">
        <ele>8.2</ele>
        <time>2016-05-03T17:37:29Z</time>
      </trkpt>
      <trkpt lat="59.300350441914" lon="18.083649429437">
        <ele>8.8</ele>
        <time>2016-05-03T17:37:30Z</time>
      </trkpt>
      <trkpt lat="59.30033568977" lon="18.083573489423">
        <ele>9.6</ele>
        <time>2016-05-03T17:37:31Z</time>
      </trkpt>
      <trkpt lat="59.300322446368" lon="18.083497717047">
        <ele>9.6</ele>
        <time>2016-05-03T17:37:32Z</time>
      </trkpt>
      <trkpt lat="59.300311633717" lon="18.083418843368">
        <ele>9.6</ele>
        <time>2016-05-03T17:37:33Z</time>
      </trkpt>
      <trkpt lat="59.300307694224" lon="18.083343154811">
        <ele>10</ele>
        <time>2016-05-03T17:37:34Z</time>
      </trkpt>
      <trkpt lat="59.300303335636" lon="18.08326863972">
        <ele>10.6</ele>
        <time>2016-05-03T17:37:35Z</time>
      </trkpt>
      <trkpt lat="59.300300150514" lon="18.083192029154">
        <ele>11</ele>
        <time>2016-05-03T17:37:36Z</time>
      </trkpt>
      <trkpt lat="59.300294115546" lon="18.083120699185">
        <ele>11.4</ele>
        <time>2016-05-03T17:37:37Z</time>
      </trkpt>
      <trkpt lat="59.300287410026" lon="18.083041657868">
        <ele>11.8</ele>
        <time>2016-05-03T17:37:38Z</time>
      </trkpt>
      <trkpt lat="59.300283135257" lon="18.082964544388">
        <ele>12.2</ele>
        <time>2016-05-03T17:37:39Z</time>
      </trkpt>
      <trkpt lat="59.300278189936" lon="18.082892460048">
        <ele>12.8</ele>
        <time>2016-05-03T17:37:40Z</time>
      </trkpt>
      <trkpt lat="59.300266790552" lon="18.082824063744">
        <ele>13.2</ele>
        <time>2016-05-03T17:37:41Z</time>
      </trkpt>
      <trkpt lat="59.300253295693" lon="18.082765306625">
        <ele>13.6</ele>
        <time>2016-05-03T17:37:42Z</time>
      </trkpt>
      <trkpt lat="59.300244997612" lon="18.082710740456">
        <ele>14.2</ele>
        <time>2016-05-03T17:37:43Z</time>
      </trkpt>
      <trkpt lat="59.300236950988" lon="18.082654078812">
        <ele>14.6</ele>
        <time>2016-05-03T17:37:44Z</time>
      </trkpt>
      <trkpt lat="59.30023091602" lon="18.082594064408">
        <ele>15</ele>
        <time>2016-05-03T17:37:45Z</time>
      </trkpt>
      <trkpt lat="59.300224545776" lon="18.082527093027">
        <ele>15.4</ele>
        <time>2016-05-03T17:37:46Z</time>
      </trkpt>
      <trkpt lat="59.300213816944" lon="18.082461127474">
        <ele>15.8</ele>
        <time>2016-05-03T17:37:47Z</time>
      </trkpt>
      <trkpt lat="59.300204513035" lon="18.082386528564">
        <ele>16.2</ele>
        <time>2016-05-03T17:37:48Z</time>
      </trkpt>
      <trkpt lat="59.300161178612" lon="18.082047815985">
        <ele>16.2</ele>
        <time>2016-05-03T17:37:52Z</time>
      </trkpt>
      <trkpt lat="59.300081131467" lon="18.081292271519">
        <ele>16.2</ele>
        <time>2016-05-03T17:38:00Z</time>
      </trkpt>
      <trkpt lat="59.300025643289" lon="18.080843923688">
        <ele>16.2</ele>
        <time>2016-05-03T17:38:05Z</time>
      </trkpt>
      <trkpt lat="59.299909134879" lon="18.080232966997">
        <ele>16.2</ele>
        <time>2016-05-03T17:38:12Z</time>
      </trkpt>
      <trkpt lat="59.299873930899" lon="18.07996114198">
        <ele>16.2</ele>
        <time>2016-05-03T17:38:14Z</time>
      </trkpt>
      <trkpt lat="59.299805450776" lon="18.079683868728">
        <ele>16.2</ele>
        <time>2016-05-03T17:38:16Z</time>
      </trkpt>
      <trkpt lat="59.299723475794" lon="18.079375750084">
        <ele>16.2</ele>
        <time>2016-05-03T17:38:18Z</time>
      </trkpt>
      <trkpt lat="59.299634795292" lon="18.079080707204">
        <ele>16.2</ele>
        <time>2016-05-03T17:38:20Z</time>
      </trkpt>
      <trkpt lat="59.299393228934" lon="18.078245031774">
        <ele>16.2</ele>
        <time>2016-05-03T17:38:27Z</time>
      </trkpt>
      <trkpt lat="59.299369591976" lon="18.078130702658">
        <ele>16.2</ele>
        <time>2016-05-03T17:38:28Z</time>
      </trkpt>
      <trkpt lat="59.299358192592" lon="18.078006063805">
        <ele>16.8</ele>
        <time>2016-05-03T17:38:29Z</time>
      </trkpt>
      <trkpt lat="59.299352409081" lon="18.077886454092">
        <ele>17.2</ele>
        <time>2016-05-03T17:38:30Z</time>
      </trkpt>
      <trkpt lat="59.299347882855" lon="18.077767347293">
        <ele>17.6</ele>
        <time>2016-05-03T17:38:31Z</time>
      </trkpt>
      <trkpt lat="59.299345955018" lon="18.077644971553">
        <ele>18</ele>
        <time>2016-05-03T17:38:32Z</time>
      </trkpt>
      <trkpt lat="59.299343356629" lon="18.077525278021">
        <ele>18.6</ele>
        <time>2016-05-03T17:38:33Z</time>
      </trkpt>
      <trkpt lat="59.299330029408" lon="18.077398376055">
        <ele>18.6</ele>
        <time>2016-05-03T17:38:34Z</time>
      </trkpt>
      <trkpt lat="59.299307398278" lon="18.077166532701">
        <ele>18.6</ele>
        <time>2016-05-03T17:38:36Z</time>
      </trkpt>
      <trkpt lat="59.29926532114" lon="18.076667222918">
        <ele>18.6</ele>
        <time>2016-05-03T17:38:40Z</time>
      </trkpt>
      <trkpt lat="59.299248138245" lon="18.076547529386">
        <ele>18.6</ele>
        <time>2016-05-03T17:38:41Z</time>
      </trkpt>
      <trkpt lat="59.299078823865" lon="18.075806653245">
        <ele>18.6</ele>
        <time>2016-05-03T17:38:47Z</time>
      </trkpt>
      <trkpt lat="59.298866761795" lon="18.075127384069">
        <ele>19</ele>
        <time>2016-05-03T17:38:53Z</time>
      </trkpt>
      <trkpt lat="59.298831390177" lon="18.07502168831">
        <ele>19.4</ele>
        <time>2016-05-03T17:38:54Z</time>
      </trkpt>
      <trkpt lat="59.298796856749" lon="18.074919010035">
        <ele>19.8</ele>
        <time>2016-05-03T17:38:55Z</time>
      </trkpt>
      <trkpt lat="59.298762742416" lon="18.074821947633">
        <ele>20.2</ele>
        <time>2016-05-03T17:38:56Z</time>
      </trkpt>
      <trkpt lat="59.298723431305" lon="18.074719436996">
        <ele>20.8</ele>
        <time>2016-05-03T17:38:57Z</time>
      </trkpt>
      <trkpt lat="59.29850927376" lon="18.07417008727">
        <ele>20.8</ele>
        <time>2016-05-03T17:39:03Z</time>
      </trkpt>
      <trkpt lat="59.298405254381" lon="18.073896334416">
        <ele>20.8</ele>
        <time>2016-05-03T17:39:06Z</time>
      </trkpt>
      <trkpt lat="59.298341887217" lon="18.07369650992">
        <ele>21.2</ele>
        <time>2016-05-03T17:39:08Z</time>
      </trkpt>
      <trkpt lat="59.29830726997" lon="18.073600369527">
        <ele>21.6</ele>
        <time>2016-05-03T17:39:09Z</time>
      </trkpt>
      <trkpt lat="59.29827038961" lon="18.073503474763">
        <ele>22.4</ele>
        <time>2016-05-03T17:39:10Z</time>
      </trkpt>
      <trkpt lat="59.298231749051" lon="18.073406579999">
        <ele>22.8</ele>
        <time>2016-05-03T17:39:11Z</time>
      </trkpt>
      <trkpt lat="59.298065200698" lon="18.072990167207">
        <ele>22.8</ele>
        <time>2016-05-03T17:39:15Z</time>
      </trkpt>
      <trkpt lat="59.297891024816" lon="18.072421287654">
        <ele>22.8</ele>
        <time>2016-05-03T17:39:20Z</time>
      </trkpt>
      <trkpt lat="59.297862861632" lon="18.072316346266">
        <ele>22.8</ele>
        <time>2016-05-03T17:39:21Z</time>
      </trkpt>
      <trkpt lat="59.297678543651" lon="18.071952152711">
        <ele>22.8</ele>
        <time>2016-05-03T17:39:25Z</time>
      </trkpt>
      <trkpt lat="59.297619451256" lon="18.07188015219">
        <ele>22.8</ele>
        <time>2016-05-03T17:39:26Z</time>
      </trkpt>
      <trkpt lat="59.29750596033" lon="18.07168736849">
        <ele>22.8</ele>
        <time>2016-05-03T17:39:28Z</time>
      </trkpt>
      <trkpt lat="59.297349302619" lon="18.071441024449">
        <ele>22.8</ele>
        <time>2016-05-03T17:39:31Z</time>
      </trkpt>
      <trkpt lat="59.297301274332" lon="18.071351421938">
        <ele>22.8</ele>
        <time>2016-05-03T17:39:32Z</time>
      </trkpt>
      <trkpt lat="59.29725198876" lon="18.071254359536">
        <ele>22.4</ele>
        <time>2016-05-03T17:39:33Z</time>
      </trkpt>
      <trkpt lat="59.297197087315" lon="18.071160733713">
        <ele>21.8</ele>
        <time>2016-05-03T17:39:34Z</time>
      </trkpt>
      <trkpt lat="59.297135983264" lon="18.071063503673">
        <ele>21</ele>
        <time>2016-05-03T17:39:35Z</time>
      </trkpt>
      <trkpt lat="59.297080411267" lon="18.070967782375">
        <ele>20.6</ele>
        <time>2016-05-03T17:39:36Z</time>
      </trkpt>
      <trkpt lat="59.297025426003" lon="18.070868205403">
        <ele>20.6</ele>
        <time>2016-05-03T17:39:37Z</time>
      </trkpt>
      <trkpt lat="59.296927441592" lon="18.070666201613">
        <ele>20.6</ele>
        <time>2016-05-03T17:39:39Z</time>
      </trkpt>
      <trkpt lat="59.296799114703" lon="18.070349868707">
        <ele>20.6</ele>
        <time>2016-05-03T17:39:42Z</time>
      </trkpt>
      <trkpt lat="59.296646312666" lon="18.070020795313">
        <ele>20.6</ele>
        <time>2016-05-03T17:39:45Z</time>
      </trkpt>
      <trkpt lat="59.296617311292" lon="18.069878722108">
        <ele>20.6</ele>
        <time>2016-05-03T17:39:46Z</time>
      </trkpt>
      <trkpt lat="59.296549166445" lon="18.069322080129">
        <ele>20.6</ele>
        <time>2016-05-03T17:39:50Z</time>
      </trkpt>
      <trkpt lat="59.296526032401" lon="18.069208505384">
        <ele>20.6</ele>
        <time>2016-05-03T17:39:51Z</time>
      </trkpt>
      <trkpt lat="59.296445901437" lon="18.06903365895">
        <ele>20.6</ele>
        <time>2016-05-03T17:39:54Z</time>
      </trkpt>
      <trkpt lat="59.296325034439" lon="18.068945649">
        <ele>20.6</ele>
        <time>2016-05-03T17:39:57Z</time>
      </trkpt>
      <trkpt lat="59.296114397292" lon="18.068797540827">
        <ele>20.6</ele>
        <time>2016-05-03T17:40:01Z</time>
      </trkpt>
      <trkpt lat="59.295967211128" lon="18.068559662505">
        <ele>20.6</ele>
        <time>2016-05-03T17:40:04Z</time>
      </trkpt>
      <trkpt lat="59.295908705466" lon="18.068466874872">
        <ele>20.6</ele>
        <time>2016-05-03T17:40:05Z</time>
      </trkpt>
      <trkpt lat="59.295680298691" lon="18.068090779019">
        <ele>20.6</ele>
        <time>2016-05-03T17:40:09Z</time>
      </trkpt>
      <trkpt lat="59.295300263345" lon="18.067488204228">
        <ele>20.6</ele>
        <time>2016-05-03T17:40:15Z</time>
      </trkpt>
      <trkpt lat="59.295006980664" lon="18.066964335478">
        <ele>20.6</ele>
        <time>2016-05-03T17:40:20Z</time>
      </trkpt>
      <trkpt lat="59.294966496087" lon="18.066868278904">
        <ele>20.6</ele>
        <time>2016-05-03T17:40:21Z</time>
      </trkpt>
      <trkpt lat="59.294864991278" lon="18.066666861847">
        <ele>20.6</ele>
        <time>2016-05-03T17:40:23Z</time>
      </trkpt>
      <trkpt lat="59.294603978912" lon="18.066114746094">
        <ele>20.6</ele>
        <time>2016-05-03T17:40:28Z</time>
      </trkpt>
      <trkpt lat="59.294392168299" lon="18.065646114065">
        <ele>20.2</ele>
        <time>2016-05-03T17:40:32Z</time>
      </trkpt>
      <trkpt lat="59.294337769768" lon="18.065523822144">
        <ele>19.8</ele>
        <time>2016-05-03T17:40:33Z</time>
      </trkpt>
      <trkpt lat="59.294287226911" lon="18.065399099472">
        <ele>19.2</ele>
        <time>2016-05-03T17:40:34Z</time>
      </trkpt>
      <trkpt lat="59.294234756217" lon="18.065272951877">
        <ele>18.8</ele>
        <time>2016-05-03T17:40:35Z</time>
      </trkpt>
      <trkpt lat="59.294186476473" lon="18.065148396843">
        <ele>18.4</ele>
        <time>2016-05-03T17:40:36Z</time>
      </trkpt>
      <trkpt lat="59.294139034919" lon="18.06501369971">
        <ele>18.4</ele>
        <time>2016-05-03T17:40:37Z</time>
      </trkpt>
      <trkpt lat="59.294092683012" lon="18.064870788315">
        <ele>18.4</ele>
        <time>2016-05-03T17:40:38Z</time>
      </trkpt>
      <trkpt lat="59.2939294036" lon="18.064285480238">
        <ele>18.4</ele>
        <time>2016-05-03T17:40:42Z</time>
      </trkpt>
      <trkpt lat="59.293898725846" lon="18.064129241622">
        <ele>18.4</ele>
        <time>2016-05-03T17:40:43Z</time>
      </trkpt>
      <trkpt lat="59.293876346173" lon="18.063971578083">
        <ele>18</ele>
        <time>2016-05-03T17:40:44Z</time>
      </trkpt>
      <trkpt lat="59.293861258753" lon="18.06380922068">
        <ele>17.6</ele>
        <time>2016-05-03T17:40:45Z</time>
      </trkpt>
      <trkpt lat="59.29384977555" lon="18.063652060055">
        <ele>17.2</ele>
        <time>2016-05-03T17:40:46Z</time>
      </trkpt>
      <trkpt lat="59.293835107225" lon="18.063498503647">
        <ele>16.8</ele>
        <time>2016-05-03T17:40:47Z</time>
      </trkpt>
      <trkpt lat="59.293815828855" lon="18.063345114877">
        <ele>16.4</ele>
        <time>2016-05-03T17:40:48Z</time>
      </trkpt>
      <trkpt lat="59.293761178867" lon="18.062875979934">
        <ele>16.4</ele>
        <time>2016-05-03T17:40:51Z</time>
      </trkpt>
      <trkpt lat="59.293753551338" lon="18.062708509572">
        <ele>16.4</ele>
        <time>2016-05-03T17:40:52Z</time>
      </trkpt>
      <trkpt lat="59.293742990144" lon="18.062395361788">
        <ele>16.4</ele>
        <time>2016-05-03T17:40:54Z</time>
      </trkpt>
      <trkpt lat="59.293732764226" lon="18.062235854231">
        <ele>16.4</ele>
        <time>2016-05-03T17:40:55Z</time>
      </trkpt>
      <trkpt lat="59.29365699185" lon="18.06116221666">
        <ele>16.4</ele>
        <time>2016-05-03T17:41:02Z</time>
      </trkpt>
      <trkpt lat="59.293622793698" lon="18.060741696737">
        <ele>16.4</ele>
        <time>2016-05-03T17:41:05Z</time>
      </trkpt>
      <trkpt lat="59.293610137029" lon="18.060468530616">
        <ele>16.4</ele>
        <time>2016-05-03T17:41:07Z</time>
      </trkpt>
      <trkpt lat="59.293600665482" lon="18.060340958098">
        <ele>16.4</ele>
        <time>2016-05-03T17:41:08Z</time>
      </trkpt>
      <trkpt lat="59.293558169249" lon="18.059946757341">
        <ele>16.4</ele>
        <time>2016-05-03T17:41:11Z</time>
      </trkpt>
      <trkpt lat="59.293533358825" lon="18.059824716877">
        <ele>16.4</ele>
        <time>2016-05-03T17:41:12Z</time>
      </trkpt>
      <trkpt lat="59.293455323336" lon="18.059586251822">
        <ele>16.4</ele>
        <time>2016-05-03T17:41:14Z</time>
      </trkpt>
      <trkpt lat="59.293355830183" lon="18.059373770657">
        <ele>16</ele>
        <time>2016-05-03T17:41:16Z</time>
      </trkpt>
      <trkpt lat="59.293302018385" lon="18.059283413775">
        <ele>15.6</ele>
        <time>2016-05-03T17:41:17Z</time>
      </trkpt>
      <trkpt lat="59.293245272922" lon="18.059193224531">
        <ele>15.2</ele>
        <time>2016-05-03T17:41:18Z</time>
      </trkpt>
      <trkpt lat="59.293191712581" lon="18.059108818798">
        <ele>14.6</ele>
        <time>2016-05-03T17:41:19Z</time>
      </trkpt>
      <trkpt lat="59.293140163896" lon="18.059024999798">
        <ele>14.2</ele>
        <time>2016-05-03T17:41:20Z</time>
      </trkpt>
      <trkpt lat="59.293075874723" lon="18.058935062011">
        <ele>13.6</ele>
        <time>2016-05-03T17:41:21Z</time>
      </trkpt>
      <trkpt lat="59.293014770672" lon="18.058857361798">
        <ele>13.2</ele>
        <time>2016-05-03T17:41:22Z</time>
      </trkpt>
      <trkpt lat="59.292956348829" lon="18.058786870019">
        <ele>12.6</ele>
        <time>2016-05-03T17:41:23Z</time>
      </trkpt>
      <trkpt lat="59.292899938642" lon="18.058728783452">
        <ele>12.2</ele>
        <time>2016-05-03T17:41:24Z</time>
      </trkpt>
      <trkpt lat="59.292779658377" lon="18.058561732185">
        <ele>12.2</ele>
        <time>2016-05-03T17:41:27Z</time>
      </trkpt>
      <trkpt lat="59.292648397823" lon="18.058302731475">
        <ele>11.8</ele>
        <time>2016-05-03T17:41:30Z</time>
      </trkpt>
      <trkpt lat="59.292598190242" lon="18.058209021833">
        <ele>11.4</ele>
        <time>2016-05-03T17:41:31Z</time>
      </trkpt>
      <trkpt lat="59.29255058105" lon="18.058101901151">
        <ele>10.8</ele>
        <time>2016-05-03T17:41:32Z</time>
      </trkpt>
      <trkpt lat="59.292505151152" lon="18.057988661682">
        <ele>10</ele>
        <time>2016-05-03T17:41:33Z</time>
      </trkpt>
      <trkpt lat="59.292459134521" lon="18.05787567367">
        <ele>9.4</ele>
        <time>2016-05-03T17:41:34Z</time>
      </trkpt>
      <trkpt lat="59.292410770958" lon="18.057761512192">
        <ele>8.8</ele>
        <time>2016-05-03T17:41:35Z</time>
      </trkpt>
      <trkpt lat="59.29235947373" lon="18.057639723185">
        <ele>8</ele>
        <time>2016-05-03T17:41:36Z</time>
      </trkpt>
      <trkpt lat="59.292321252266" lon="18.057507959717">
        <ele>7.6</ele>
        <time>2016-05-03T17:41:37Z</time>
      </trkpt>
      <trkpt lat="59.292291831797" lon="18.057371250928">
        <ele>6.8</ele>
        <time>2016-05-03T17:41:38Z</time>
      </trkpt>
      <trkpt lat="59.292255621989" lon="18.057232949578">
        <ele>6.4</ele>
        <time>2016-05-03T17:41:39Z</time>
      </trkpt>
      <trkpt lat="59.292214215403" lon="18.057096576065">
        <ele>6</ele>
        <time>2016-05-03T17:41:40Z</time>
      </trkpt>
      <trkpt lat="59.292110698938" lon="18.056841933943">
        <ele>5.6</ele>
        <time>2016-05-03T17:41:42Z</time>
      </trkpt>
      <trkpt lat="59.292059066434" lon="18.056731711958">
        <ele>5</ele>
        <time>2016-05-03T17:41:43Z</time>
      </trkpt>
      <trkpt lat="59.292008775034" lon="18.056624926552">
        <ele>4.6</ele>
        <time>2016-05-03T17:41:44Z</time>
      </trkpt>
      <trkpt lat="59.291970134475" lon="18.056512692911">
        <ele>4.2</ele>
        <time>2016-05-03T17:41:45Z</time>
      </trkpt>
      <trkpt lat="59.291948090078" lon="18.05639040099">
        <ele>3.8</ele>
        <time>2016-05-03T17:41:46Z</time>
      </trkpt>
      <trkpt lat="59.291885477285" lon="18.05620180824">
        <ele>3.8</ele>
        <time>2016-05-03T17:41:47Z</time>
      </trkpt>
      <trkpt lat="59.29183895774" lon="18.056129388624">
        <ele>3.8</ele>
        <time>2016-05-03T17:41:50Z</time>
      </trkpt>
      <trkpt lat="59.291830659659" lon="18.056140704189">
        <ele>3.8</ele>
        <time>2016-05-03T17:41:51Z</time>
      </trkpt>
      <trkpt lat="59.291818673542" lon="18.056147577347">
        <ele>3.8</ele>
        <time>2016-05-03T17:41:53Z</time>
      </trkpt>
      <trkpt lat="59.29178531358" lon="18.056141626198">
        <ele>3.8</ele>
        <time>2016-05-03T17:41:54Z</time>
      </trkpt>
      <trkpt lat="59.291610718603" lon="18.056119078887">
        <ele>3.8</ele>
        <time>2016-05-03T17:41:59Z</time>
      </trkpt>
      <trkpt lat="59.291568725284" lon="18.056139363085">
        <ele>3.8</ele>
        <time>2016-05-03T17:42:00Z</time>
      </trkpt>
      <trkpt lat="59.291452971245" lon="18.056211195968">
        <ele>3.8</ele>
        <time>2016-05-03T17:42:04Z</time>
      </trkpt>
      <trkpt lat="59.291454396168" lon="18.056209854864">
        <ele>3.8</ele>
        <time>2016-05-03T17:42:06Z</time>
      </trkpt>
      <trkpt lat="59.291450791951" lon="18.056219326411">
        <ele>3.8</ele>
        <time>2016-05-03T17:42:10Z</time>
      </trkpt>
      <trkpt lat="59.291432770866" lon="18.056246819043">
        <ele>3.8</ele>
        <time>2016-05-03T17:42:11Z</time>
      </trkpt>
      <trkpt lat="59.291342916898" lon="18.056369110964">
        <ele>3.8</ele>
        <time>2016-05-03T17:42:14Z</time>
      </trkpt>
      <trkpt lat="59.291304527796" lon="18.056428287178">
        <ele>3.8</ele>
        <time>2016-05-03T17:42:15Z</time>
      </trkpt>
      <trkpt lat="59.291125071317" lon="18.05670723681">
        <ele>3.8</ele>
        <time>2016-05-03T17:42:19Z</time>
      </trkpt>
      <trkpt lat="59.291086095482" lon="18.056777980046">
        <ele>3.8</ele>
        <time>2016-05-03T17:42:20Z</time>
      </trkpt>
      <trkpt lat="59.291060027773" lon="18.056909575876">
        <ele>3.8</ele>
        <time>2016-05-03T17:42:22Z</time>
      </trkpt>
      <trkpt lat="59.291013089133" lon="18.05707520222">
        <ele>3.8</ele>
        <time>2016-05-03T17:42:25Z</time>
      </trkpt>
      <trkpt lat="59.290930108323" lon="18.057212749199">
        <ele>3.8</ele>
        <time>2016-05-03T17:42:27Z</time>
      </trkpt>
      <trkpt lat="59.290829106428" lon="18.057360605915">
        <ele>3.4</ele>
        <time>2016-05-03T17:42:29Z</time>
      </trkpt>
      <trkpt lat="59.29077445644" lon="18.057436881205">
        <ele>3</ele>
        <time>2016-05-03T17:42:30Z</time>
      </trkpt>
      <trkpt lat="59.29072332685" lon="18.057527992458">
        <ele>2.6</ele>
        <time>2016-05-03T17:42:31Z</time>
      </trkpt>
      <trkpt lat="59.290668425405" lon="18.057625725412">
        <ele>2.2</ele>
        <time>2016-05-03T17:42:32Z</time>
      </trkpt>
      <trkpt lat="59.290612937227" lon="18.05771893214">
        <ele>1.6</ele>
        <time>2016-05-03T17:42:33Z</time>
      </trkpt>
      <trkpt lat="59.290245810007" lon="18.058321926026">
        <ele>1.6</ele>
        <time>2016-05-03T17:42:39Z</time>
      </trkpt>
      <trkpt lat="59.289868708326" lon="18.058948305413">
        <ele>1.2</ele>
        <time>2016-05-03T17:42:45Z</time>
      </trkpt>
      <trkpt lat="59.289811208492" lon="18.059044445806">
        <ele>0.8</ele>
        <time>2016-05-03T17:42:46Z</time>
      </trkpt>
      <trkpt lat="59.289754295391" lon="18.05914050238">
        <ele>0.4</ele>
        <time>2016-05-03T17:42:47Z</time>
      </trkpt>
      <trkpt lat="59.289698555756" lon="18.059233625289">
        <ele>0</ele>
        <time>2016-05-03T17:42:48Z</time>
      </trkpt>
      <trkpt lat="59.28964373813" lon="18.059322976343">
        <ele>0</ele>
        <time>2016-05-03T17:42:49Z</time>
      </trkpt>
      <trkpt lat="59.289384234506" lon="18.059782304463">
        <ele>0</ele>
        <time>2016-05-03T17:42:54Z</time>
      </trkpt>
      <trkpt lat="59.28933444602" lon="18.059864027988">
        <ele>0.4</ele>
        <time>2016-05-03T17:42:55Z</time>
      </trkpt>
      <trkpt lat="59.289279712213" lon="18.059939045993">
        <ele>0.8</ele>
        <time>2016-05-03T17:42:56Z</time>
      </trkpt>
      <trkpt lat="59.289219111076" lon="18.059999395673">
        <ele>1.2</ele>
        <time>2016-05-03T17:42:57Z</time>
      </trkpt>
      <trkpt lat="59.28915423517" lon="18.060044657933">
        <ele>1.6</ele>
        <time>2016-05-03T17:42:58Z</time>
      </trkpt>
      <trkpt lat="59.289084497762" lon="18.060079023723">
        <ele>1.6</ele>
        <time>2016-05-03T17:42:59Z</time>
      </trkpt>
      <trkpt lat="59.289014927992" lon="18.060112383685">
        <ele>1.6</ele>
        <time>2016-05-03T17:43:00Z</time>
      </trkpt>
      <trkpt lat="59.288950219724" lon="18.060175164116">
        <ele>1.6</ele>
        <time>2016-05-03T17:43:01Z</time>
      </trkpt>
      <trkpt lat="59.28886170686" lon="18.060389740756">
        <ele>1.6</ele>
        <time>2016-05-03T17:43:03Z</time>
      </trkpt>
      <trkpt lat="59.288818372437" lon="18.060759466365">
        <ele>1.6</ele>
        <time>2016-05-03T17:43:06Z</time>
      </trkpt>
      <trkpt lat="59.288806134863" lon="18.060853427464">
        <ele>1.6</ele>
        <time>2016-05-03T17:43:07Z</time>
      </trkpt>
      <trkpt lat="59.288788365235" lon="18.060946215097">
        <ele>1.6</ele>
        <time>2016-05-03T17:43:08Z</time>
      </trkpt>
      <trkpt lat="59.288740085491" lon="18.061121312988">
        <ele>1.6</ele>
        <time>2016-05-03T17:43:10Z</time>
      </trkpt>
      <trkpt lat="59.288630114963" lon="18.061388611779">
        <ele>1.6</ele>
        <time>2016-05-03T17:43:13Z</time>
      </trkpt>
      <trkpt lat="59.288551492741" lon="18.061561027462">
        <ele>1.6</ele>
        <time>2016-05-03T17:43:15Z</time>
      </trkpt>
      <trkpt lat="59.288311183668" lon="18.061997640633">
        <ele>1.6</ele>
        <time>2016-05-03T17:43:20Z</time>
      </trkpt>
      <trkpt lat="59.287923520793" lon="18.062636844327">
        <ele>1.6</ele>
        <time>2016-05-03T17:43:27Z</time>
      </trkpt>
      <trkpt lat="59.287509119657" lon="18.063323321937">
        <ele>1.6</ele>
        <time>2016-05-03T17:43:34Z</time>
      </trkpt>
      <trkpt lat="59.28744851852" lon="18.063422060719">
        <ele>1.6</ele>
        <time>2016-05-03T17:43:35Z</time>
      </trkpt>
      <trkpt lat="59.287386073365" lon="18.063524152261">
        <ele>1.2</ele>
        <time>2016-05-03T17:43:36Z</time>
      </trkpt>
      <trkpt lat="59.287327735341" lon="18.06362146612">
        <ele>0.8</ele>
        <time>2016-05-03T17:43:37Z</time>
      </trkpt>
      <trkpt lat="59.28726998405" lon="18.063716516866">
        <ele>0.2</ele>
        <time>2016-05-03T17:43:38Z</time>
      </trkpt>
      <trkpt lat="59.287212568035" lon="18.063812741078">
        <ele>0</ele>
        <time>2016-05-03T17:43:39Z</time>
      </trkpt>
      <trkpt lat="59.287155487296" lon="18.063911144584">
        <ele>0</ele>
        <time>2016-05-03T17:43:40Z</time>
      </trkpt>
      <trkpt lat="59.286997907576" lon="18.064181963773">
        <ele>0</ele>
        <time>2016-05-03T17:43:43Z</time>
      </trkpt>
      <trkpt lat="59.286900426079" lon="18.064333676163">
        <ele>0</ele>
        <time>2016-05-03T17:43:45Z</time>
      </trkpt>
      <trkpt lat="59.286781654556" lon="18.064433504592">
        <ele>0</ele>
        <time>2016-05-03T17:43:47Z</time>
      </trkpt>
      <trkpt lat="59.28660865214" lon="18.064692840578">
        <ele>0</ele>
        <time>2016-05-03T17:43:50Z</time>
      </trkpt>
      <trkpt lat="59.286210679528" lon="18.065341012905">
        <ele>0</ele>
        <time>2016-05-03T17:43:57Z</time>
      </trkpt>
      <trkpt lat="59.285798206229" lon="18.066041236831">
        <ele>0</ele>
        <time>2016-05-03T17:44:04Z</time>
      </trkpt>
      <trkpt lat="59.285399395427" lon="18.066694773574">
        <ele>0</ele>
        <time>2016-05-03T17:44:11Z</time>
      </trkpt>
      <trkpt lat="59.284964207179" lon="18.06742684872">
        <ele>0</ele>
        <time>2016-05-03T17:44:19Z</time>
      </trkpt>
      <trkpt lat="59.28454838112" lon="18.068125396266">
        <ele>0</ele>
        <time>2016-05-03T17:44:27Z</time>
      </trkpt>
      <trkpt lat="59.284240597752" lon="18.068791841135">
        <ele>0</ele>
        <time>2016-05-03T17:44:34Z</time>
      </trkpt>
      <trkpt lat="59.283994588987" lon="18.069553755845">
        <ele>0</ele>
        <time>2016-05-03T17:44:41Z</time>
      </trkpt>
      <trkpt lat="59.283760901615" lon="18.070435867001">
        <ele>0</ele>
        <time>2016-05-03T17:44:49Z</time>
      </trkpt>
      <trkpt lat="59.283655541132" lon="18.070830403034">
        <ele>0</ele>
        <time>2016-05-03T17:44:53Z</time>
      </trkpt>
      <trkpt lat="59.283627042672" lon="18.070921681925">
        <ele>0</ele>
        <time>2016-05-03T17:44:54Z</time>
      </trkpt>
      <trkpt lat="59.283600639687" lon="18.071023354372">
        <ele>0</ele>
        <time>2016-05-03T17:44:55Z</time>
      </trkpt>
      <trkpt lat="59.283485220924" lon="18.071435660033">
        <ele>0</ele>
        <time>2016-05-03T17:44:59Z</time>
      </trkpt>
      <trkpt lat="59.28330534535" lon="18.072026751621">
        <ele>0</ele>
        <time>2016-05-03T17:45:05Z</time>
      </trkpt>
      <trkpt lat="59.283269470818" lon="18.072063129067">
        <ele>0</ele>
        <time>2016-05-03T17:45:06Z</time>
      </trkpt>
      <trkpt lat="59.283176347909" lon="18.071973945651">
        <ele>0</ele>
        <time>2016-05-03T17:45:08Z</time>
      </trkpt>
      <trkpt lat="59.283127481432" lon="18.07190948884">
        <ele>0</ele>
        <time>2016-05-03T17:45:09Z</time>
      </trkpt>
      <trkpt lat="59.282896224811" lon="18.071657445107">
        <ele>0</ele>
        <time>2016-05-03T17:45:13Z</time>
      </trkpt>
      <trkpt lat="59.282831432724" lon="18.071592066287">
        <ele>0</ele>
        <time>2016-05-03T17:45:14Z</time>
      </trkpt>
      <trkpt lat="59.282353077691" lon="18.071068700451">
        <ele>0</ele>
        <time>2016-05-03T17:45:22Z</time>
      </trkpt>
      <trkpt lat="59.28193741927" lon="18.070594787825">
        <ele>0</ele>
        <time>2016-05-03T17:45:29Z</time>
      </trkpt>
      <trkpt lat="59.281481863005" lon="18.070102435019">
        <ele>0</ele>
        <time>2016-05-03T17:45:37Z</time>
      </trkpt>
      <trkpt lat="59.281424698447" lon="18.070047533574">
        <ele>0.2</ele>
        <time>2016-05-03T17:45:38Z</time>
      </trkpt>
      <trkpt lat="59.281366192785" lon="18.069983160582">
        <ele>0.6</ele>
        <time>2016-05-03T17:45:39Z</time>
      </trkpt>
      <trkpt lat="59.281308525313" lon="18.069923900549">
        <ele>1.2</ele>
        <time>2016-05-03T17:45:40Z</time>
      </trkpt>
      <trkpt lat="59.281248930004" lon="18.069866400715">
        <ele>1.6</ele>
        <time>2016-05-03T17:45:41Z</time>
      </trkpt>
      <trkpt lat="59.281191011075" lon="18.069807811234">
        <ele>1.6</ele>
        <time>2016-05-03T17:45:42Z</time>
      </trkpt>
      <trkpt lat="59.280799576345" lon="18.069384525284">
        <ele>1.6</ele>
        <time>2016-05-03T17:45:49Z</time>
      </trkpt>
      <trkpt lat="59.280585083524" lon="18.069220826777">
        <ele>1.6</ele>
        <time>2016-05-03T17:45:53Z</time>
      </trkpt>
      <trkpt lat="59.280529762984" lon="18.069209175936">
        <ele>1.6</ele>
        <time>2016-05-03T17:45:54Z</time>
      </trkpt>
      <trkpt lat="59.280282413115" lon="18.069205823176">
        <ele>1.6</ele>
        <time>2016-05-03T17:45:59Z</time>
      </trkpt>
      <trkpt lat="59.280241844719" lon="18.069201799864">
        <ele>2</ele>
        <time>2016-05-03T17:46:00Z</time>
      </trkpt>
      <trkpt lat="59.28019566045" lon="18.069202386597">
        <ele>2.4</ele>
        <time>2016-05-03T17:46:01Z</time>
      </trkpt>
      <trkpt lat="59.280142770661" lon="18.069204901167">
        <ele>2.8</ele>
        <time>2016-05-03T17:46:02Z</time>
      </trkpt>
      <trkpt lat="59.280082337162" lon="18.069206074633">
        <ele>3.2</ele>
        <time>2016-05-03T17:46:03Z</time>
      </trkpt>
      <trkpt lat="59.28002131693" lon="18.06920381152">
        <ele>3.8</ele>
        <time>2016-05-03T17:46:04Z</time>
      </trkpt>
      <trkpt lat="59.279630552752" lon="18.069219150397">
        <ele>3.8</ele>
        <time>2016-05-03T17:46:10Z</time>
      </trkpt>
      <trkpt lat="59.279237357823" lon="18.069233902541">
        <ele>3.8</ele>
        <time>2016-05-03T17:46:16Z</time>
      </trkpt>
      <trkpt lat="59.278833266424" lon="18.069253851463">
        <ele>3.8</ele>
        <time>2016-05-03T17:46:22Z</time>
      </trkpt>
      <trkpt lat="59.278441161142" lon="18.06922811903">
        <ele>3.8</ele>
        <time>2016-05-03T17:46:28Z</time>
      </trkpt>
      <trkpt lat="59.278284671069" lon="18.069018822987">
        <ele>3.8</ele>
        <time>2016-05-03T17:46:31Z</time>
      </trkpt>
      <trkpt lat="59.278137484905" lon="18.068833080083">
        <ele>3.8</ele>
        <time>2016-05-03T17:46:34Z</time>
      </trkpt>
      <trkpt lat="59.27808174527" lon="18.068826206925">
        <ele>3.8</ele>
        <time>2016-05-03T17:46:35Z</time>
      </trkpt>
      <trkpt lat="59.27791243089" lon="18.068947744475">
        <ele>3.8</ele>
        <time>2016-05-03T17:46:38Z</time>
      </trkpt>
      <trkpt lat="59.27777329135" lon="18.069253348549">
        <ele>3.8</ele>
        <time>2016-05-03T17:46:41Z</time>
      </trkpt>
      <trkpt lat="59.277643707176" lon="18.069313865867">
        <ele>3.8</ele>
        <time>2016-05-03T17:46:43Z</time>
      </trkpt>
      <trkpt lat="59.277511273156" lon="18.06932451088">
        <ele>3.8</ele>
        <time>2016-05-03T17:46:45Z</time>
      </trkpt>
      <trkpt lat="59.277296528878" lon="18.069333982427">
        <ele>3.8</ele>
        <time>2016-05-03T17:46:48Z</time>
      </trkpt>
      <trkpt lat="59.276870476901" lon="18.069343873069">
        <ele>3.8</ele>
        <time>2016-05-03T17:46:54Z</time>
      </trkpt>
      <trkpt lat="59.276435959205" lon="18.069329037106">
        <ele>3.8</ele>
        <time>2016-05-03T17:47:00Z</time>
      </trkpt>
      <trkpt lat="59.276079979912" lon="18.069341358499">
        <ele>3.8</ele>
        <time>2016-05-03T17:47:05Z</time>
      </trkpt>
      <trkpt lat="59.275522499743" lon="18.06935217115">
        <ele>3.8</ele>
        <time>2016-05-03T17:47:13Z</time>
      </trkpt>
      <trkpt lat="59.275459467855" lon="18.069351416779">
        <ele>3.8</ele>
        <time>2016-05-03T17:47:14Z</time>
      </trkpt>
      <trkpt lat="59.275087060038" lon="18.069357367928">
        <ele>3.8</ele>
        <time>2016-05-03T17:47:20Z</time>
      </trkpt>
      <trkpt lat="59.274697553145" lon="18.069370108416">
        <ele>3.8</ele>
        <time>2016-05-03T17:47:27Z</time>
      </trkpt>
      <trkpt lat="59.27464684265" lon="18.069369354045">
        <ele>4.2</ele>
        <time>2016-05-03T17:47:28Z</time>
      </trkpt>
      <trkpt lat="59.274601077476" lon="18.069365917466">
        <ele>4.8</ele>
        <time>2016-05-03T17:47:29Z</time>
      </trkpt>
      <trkpt lat="59.274557240139" lon="18.069364995457">
        <ele>5.2</ele>
        <time>2016-05-03T17:47:30Z</time>
      </trkpt>
      <trkpt lat="59.27451859958" lon="18.069351249141">
        <ele>5.8</ele>
        <time>2016-05-03T17:47:31Z</time>
      </trkpt>
      <trkpt lat="59.274479959021" lon="18.069335323531">
        <ele>6.4</ele>
        <time>2016-05-03T17:47:32Z</time>
      </trkpt>
      <trkpt lat="59.274440564091" lon="18.06932031993">
        <ele>6.8</ele>
        <time>2016-05-03T17:47:33Z</time>
      </trkpt>
      <trkpt lat="59.274401336799" lon="18.069303472311">
        <ele>7.2</ele>
        <time>2016-05-03T17:47:34Z</time>
      </trkpt>
      <trkpt lat="59.274361774231" lon="18.069271285815">
        <ele>7.8</ele>
        <time>2016-05-03T17:47:35Z</time>
      </trkpt>
      <trkpt lat="59.274336628531" lon="18.069250079608">
        <ele>8.2</ele>
        <time>2016-05-03T17:47:36Z</time>
      </trkpt>
      <trkpt lat="59.274301759827" lon="18.069242954993">
        <ele>8.8</ele>
        <time>2016-05-03T17:47:37Z</time>
      </trkpt>
      <trkpt lat="59.274223053786" lon="18.069219234216">
        <ele>8.8</ele>
        <time>2016-05-03T17:47:39Z</time>
      </trkpt>
      <trkpt lat="59.274096570915" lon="18.069142958926">
        <ele>8.8</ele>
        <time>2016-05-03T17:47:42Z</time>
      </trkpt>
      <trkpt lat="59.274054577596" lon="18.069113370819">
        <ele>9.2</ele>
        <time>2016-05-03T17:47:43Z</time>
      </trkpt>
      <trkpt lat="59.274015015028" lon="18.069082776884">
        <ele>9.6</ele>
        <time>2016-05-03T17:47:44Z</time>
      </trkpt>
      <trkpt lat="59.273972770252" lon="18.069053104958">
        <ele>10</ele>
        <time>2016-05-03T17:47:45Z</time>
      </trkpt>
      <trkpt lat="59.273930944571" lon="18.069024187403">
        <ele>10.4</ele>
        <time>2016-05-03T17:47:46Z</time>
      </trkpt>
      <trkpt lat="59.273891214365" lon="18.068988731966">
        <ele>10.8</ele>
        <time>2016-05-03T17:47:47Z</time>
      </trkpt>
      <trkpt lat="59.273811670134" lon="18.068915390341">
        <ele>11.6</ele>
        <time>2016-05-03T17:47:49Z</time>
      </trkpt>
      <trkpt lat="59.273770263548" lon="18.068884796406">
        <ele>12</ele>
        <time>2016-05-03T17:47:50Z</time>
      </trkpt>
      <trkpt lat="59.273731455351" lon="18.068855208299">
        <ele>12.4</ele>
        <time>2016-05-03T17:47:51Z</time>
      </trkpt>
      <trkpt lat="59.273693485344" lon="18.06881908231">
        <ele>12.8</ele>
        <time>2016-05-03T17:47:52Z</time>
      </trkpt>
      <trkpt lat="59.273593908372" lon="18.068706513393">
        <ele>13.4</ele>
        <time>2016-05-03T17:47:55Z</time>
      </trkpt>
      <trkpt lat="59.273556608917" lon="18.068672901974">
        <ele>13.8</ele>
        <time>2016-05-03T17:47:56Z</time>
      </trkpt>
      <trkpt lat="59.273520566747" lon="18.06863970965">
        <ele>14.2</ele>
        <time>2016-05-03T17:47:57Z</time>
      </trkpt>
      <trkpt lat="59.273486284776" lon="18.068609450991">
        <ele>14.6</ele>
        <time>2016-05-03T17:47:58Z</time>
      </trkpt>
      <trkpt lat="59.273452002805" lon="18.068574414649">
        <ele>15</ele>
        <time>2016-05-03T17:47:59Z</time>
      </trkpt>
      <trkpt lat="59.273396011713" lon="18.068498474635">
        <ele>15</ele>
        <time>2016-05-03T17:48:01Z</time>
      </trkpt>
      <trkpt lat="59.2733099296" lon="18.068406273735">
        <ele>15</ele>
        <time>2016-05-03T17:48:05Z</time>
      </trkpt>
      <trkpt lat="59.273288807212" lon="18.068395544903">
        <ele>15.4</ele>
        <time>2016-05-03T17:48:06Z</time>
      </trkpt>
      <trkpt lat="59.273269445023" lon="18.068385989537">
        <ele>15.8</ele>
        <time>2016-05-03T17:48:07Z</time>
      </trkpt>
      <trkpt lat="59.273263242417" lon="18.068378278189">
        <ele>16.2</ele>
        <time>2016-05-03T17:48:08Z</time>
      </trkpt>
      <trkpt lat="59.273261566037" lon="18.068377691456">
        <ele>16.8</ele>
        <time>2016-05-03T17:48:09Z</time>
      </trkpt>
      <trkpt lat="59.273248238816" lon="18.068361933484">
        <ele>17.2</ele>
        <time>2016-05-03T17:48:10Z</time>
      </trkpt>
      <trkpt lat="59.273141034315" lon="18.068221369021">
        <ele>17.2</ele>
        <time>2016-05-03T17:48:14Z</time>
      </trkpt>
      <trkpt lat="59.273039026592" lon="18.06792138082">
        <ele>17.2</ele>
        <time>2016-05-03T17:48:18Z</time>
      </trkpt>
      <trkpt lat="59.273018658575" lon="18.067817529079">
        <ele>17.2</ele>
        <time>2016-05-03T17:48:19Z</time>
      </trkpt>
      <trkpt lat="59.272976078523" lon="18.067632037632">
        <ele>17.2</ele>
        <time>2016-05-03T17:48:21Z</time>
      </trkpt>
      <trkpt lat="59.272890080229" lon="18.067504884209">
        <ele>17.2</ele>
        <time>2016-05-03T17:48:23Z</time>
      </trkpt>
      <trkpt lat="59.272807183238" lon="18.067345125195">
        <ele>17.2</ele>
        <time>2016-05-03T17:48:25Z</time>
      </trkpt>
      <trkpt lat="59.272731829957" lon="18.067168434743">
        <ele>17.2</ele>
        <time>2016-05-03T17:48:27Z</time>
      </trkpt>
      <trkpt lat="59.27266117054" lon="18.066992414843">
        <ele>17.2</ele>
        <time>2016-05-03T17:48:29Z</time>
      </trkpt>
      <trkpt lat="59.272523958837" lon="18.066618582103">
        <ele>17.2</ele>
        <time>2016-05-03T17:48:33Z</time>
      </trkpt>
      <trkpt lat="59.272295971157" lon="18.066074177698">
        <ele>17.6</ele>
        <time>2016-05-03T17:48:39Z</time>
      </trkpt>
      <trkpt lat="59.27226470667" lon="18.065976528563">
        <ele>18</ele>
        <time>2016-05-03T17:48:40Z</time>
      </trkpt>
      <trkpt lat="59.272237716952" lon="18.065892793382">
        <ele>18.6</ele>
        <time>2016-05-03T17:48:41Z</time>
      </trkpt>
      <trkpt lat="59.272202345334" lon="18.065801765948">
        <ele>19</ele>
        <time>2016-05-03T17:48:42Z</time>
      </trkpt>
      <trkpt lat="59.27216244749" lon="18.06571191198">
        <ele>19.4</ele>
        <time>2016-05-03T17:48:43Z</time>
      </trkpt>
      <trkpt lat="59.272152053934" lon="18.065612754103">
        <ele>19.4</ele>
        <time>2016-05-03T17:48:44Z</time>
      </trkpt>
      <trkpt lat="59.272141073645" lon="18.065513847683">
        <ele>19.4</ele>
        <time>2016-05-03T17:48:45Z</time>
      </trkpt>
      <trkpt lat="59.272087513304" lon="18.065340845267">
        <ele>19.4</ele>
        <time>2016-05-03T17:48:47Z</time>
      </trkpt>
      <trkpt lat="59.272043843605" lon="18.065251075118">
        <ele>19.4</ele>
        <time>2016-05-03T17:48:48Z</time>
      </trkpt>
      <trkpt lat="59.271784926714" lon="18.064695019872">
        <ele>19.4</ele>
        <time>2016-05-03T17:48:54Z</time>
      </trkpt>
      <trkpt lat="59.271681661706" lon="18.064380447165">
        <ele>19.4</ele>
        <time>2016-05-03T17:48:57Z</time>
      </trkpt>
      <trkpt lat="59.271647882649" lon="18.064275673415">
        <ele>19.4</ele>
        <time>2016-05-03T17:48:58Z</time>
      </trkpt>
      <trkpt lat="59.271526009823" lon="18.063777285641">
        <ele>19.4</ele>
        <time>2016-05-03T17:49:02Z</time>
      </trkpt>
      <trkpt lat="59.271510754765" lon="18.063642169413">
        <ele>19.4</ele>
        <time>2016-05-03T17:49:03Z</time>
      </trkpt>
      <trkpt lat="59.27138376898" lon="18.062774810401">
        <ele>19</ele>
        <time>2016-05-03T17:49:09Z</time>
      </trkpt>
      <trkpt lat="59.27136113785" lon="18.062627791875">
        <ele>18.6</ele>
        <time>2016-05-03T17:49:10Z</time>
      </trkpt>
      <trkpt lat="59.271328951354" lon="18.062478007322">
        <ele>18.2</ele>
        <time>2016-05-03T17:49:11Z</time>
      </trkpt>
      <trkpt lat="59.271297519229" lon="18.062327803674">
        <ele>17.8</ele>
        <time>2016-05-03T17:49:12Z</time>
      </trkpt>
      <trkpt lat="59.271267595846" lon="18.062178857311">
        <ele>17.4</ele>
        <time>2016-05-03T17:49:13Z</time>
      </trkpt>
      <trkpt lat="59.271190650004" lon="18.061871493038">
        <ele>17.4</ele>
        <time>2016-05-03T17:49:15Z</time>
      </trkpt>
      <trkpt lat="59.271031058628" lon="18.06109264689">
        <ele>17.4</ele>
        <time>2016-05-03T17:49:21Z</time>
      </trkpt>
      <trkpt lat="59.2708372691" lon="18.060318913701">
        <ele>17.4</ele>
        <time>2016-05-03T17:49:27Z</time>
      </trkpt>
      <trkpt lat="59.2706696311" lon="18.059558004819">
        <ele>17.4</ele>
        <time>2016-05-03T17:49:33Z</time>
      </trkpt>
      <trkpt lat="59.270605844841" lon="18.059334459546">
        <ele>17.4</ele>
        <time>2016-05-03T17:49:35Z</time>
      </trkpt>
      <trkpt lat="59.270496377227" lon="18.059007984541">
        <ele>17.4</ele>
        <time>2016-05-03T17:49:38Z</time>
      </trkpt>
      <trkpt lat="59.270431417502" lon="18.058792821168">
        <ele>17</ele>
        <time>2016-05-03T17:49:40Z</time>
      </trkpt>
      <trkpt lat="59.270395040056" lon="18.058685951943">
        <ele>16.4</ele>
        <time>2016-05-03T17:49:41Z</time>
      </trkpt>
      <trkpt lat="59.270360758085" lon="18.058589140998">
        <ele>15.6</ele>
        <time>2016-05-03T17:49:42Z</time>
      </trkpt>
      <trkpt lat="59.270320608784" lon="18.058486295085">
        <ele>14.8</ele>
        <time>2016-05-03T17:49:43Z</time>
      </trkpt>
      <trkpt lat="59.270285404804" lon="18.058387472484">
        <ele>14</ele>
        <time>2016-05-03T17:49:44Z</time>
      </trkpt>
      <trkpt lat="59.270240980734" lon="18.058274987386">
        <ele>14.2</ele>
        <time>2016-05-03T17:49:45Z</time>
      </trkpt>
      <trkpt lat="59.270193622999" lon="18.058161412641">
        <ele>14.4</ele>
        <time>2016-05-03T17:49:46Z</time>
      </trkpt>
      <trkpt lat="59.270145427074" lon="18.058045658602">
        <ele>14.4</ele>
        <time>2016-05-03T17:49:47Z</time>
      </trkpt>
      <trkpt lat="59.270102008832" lon="18.057929234011">
        <ele>14.6</ele>
        <time>2016-05-03T17:49:48Z</time>
      </trkpt>
      <trkpt lat="59.270058925866" lon="18.057815994542">
        <ele>14.8</ele>
        <time>2016-05-03T17:49:49Z</time>
      </trkpt>
      <trkpt lat="59.269826076684" lon="18.057206295136">
        <ele>14.8</ele>
        <time>2016-05-03T17:49:54Z</time>
      </trkpt>
      <trkpt lat="59.269783831908" lon="18.057081823921">
        <ele>14.4</ele>
        <time>2016-05-03T17:49:55Z</time>
      </trkpt>
      <trkpt lat="59.269741922408" lon="18.056959951095">
        <ele>14</ele>
        <time>2016-05-03T17:49:56Z</time>
      </trkpt>
      <trkpt lat="59.269699593813" lon="18.056849226196">
        <ele>13.6</ele>
        <time>2016-05-03T17:49:57Z</time>
      </trkpt>
      <trkpt lat="59.269655002105" lon="18.05674244079">
        <ele>13.2</ele>
        <time>2016-05-03T17:49:58Z</time>
      </trkpt>
      <trkpt lat="59.269613092605" lon="18.056624088362">
        <ele>12.6</ele>
        <time>2016-05-03T17:49:59Z</time>
      </trkpt>
      <trkpt lat="59.269570261096" lon="18.056503975735">
        <ele>12.6</ele>
        <time>2016-05-03T17:50:00Z</time>
      </trkpt>
      <trkpt lat="59.269463894785" lon="18.056191666141">
        <ele>12.6</ele>
        <time>2016-05-03T17:50:03Z</time>
      </trkpt>
      <trkpt lat="59.269449058822" lon="18.056080857423">
        <ele>12.6</ele>
        <time>2016-05-03T17:50:04Z</time>
      </trkpt>
      <trkpt lat="59.26938971497" lon="18.055861922195">
        <ele>12.6</ele>
        <time>2016-05-03T17:50:07Z</time>
      </trkpt>
      <trkpt lat="59.269256694217" lon="18.055690596159">
        <ele>12.6</ele>
        <time>2016-05-03T17:50:11Z</time>
      </trkpt>
      <trkpt lat="59.269102551076" lon="18.055487502722">
        <ele>12.6</ele>
        <time>2016-05-03T17:50:14Z</time>
      </trkpt>
      <trkpt lat="59.26896978178" lon="18.055154489835">
        <ele>12.6</ele>
        <time>2016-05-03T17:50:17Z</time>
      </trkpt>
      <trkpt lat="59.268921334398" lon="18.055045692773">
        <ele>12.6</ele>
        <time>2016-05-03T17:50:18Z</time>
      </trkpt>
      <trkpt lat="59.268611455555" lon="18.054278078371">
        <ele>12.6</ele>
        <time>2016-05-03T17:50:25Z</time>
      </trkpt>
      <trkpt lat="59.268530654039" lon="18.054050342148">
        <ele>12.6</ele>
        <time>2016-05-03T17:50:27Z</time>
      </trkpt>
      <trkpt lat="59.268497461715" lon="18.053759154942">
        <ele>12.6</ele>
        <time>2016-05-03T17:50:29Z</time>
      </trkpt>
      <trkpt lat="59.268547920753" lon="18.053327319454">
        <ele>12.6</ele>
        <time>2016-05-03T17:50:32Z</time>
      </trkpt>
      <trkpt lat="59.268602235465" lon="18.053126070035">
        <ele>12.6</ele>
        <time>2016-05-03T17:50:34Z</time>
      </trkpt>
      <trkpt lat="59.26862528569" lon="18.053053985695">
        <ele>12.6</ele>
        <time>2016-05-03T17:50:35Z</time>
      </trkpt>
      <trkpt lat="59.268681276782" lon="18.052924652978">
        <ele>12.6</ele>
        <time>2016-05-03T17:50:37Z</time>
      </trkpt>
      <trkpt lat="59.268737100236" lon="18.052735557314">
        <ele>12.6</ele>
        <time>2016-05-03T17:50:40Z</time>
      </trkpt>
      <trkpt lat="59.268738776616" lon="18.052585186028">
        <ele>12.6</ele>
        <time>2016-05-03T17:50:43Z</time>
      </trkpt>
      <trkpt lat="59.268704578464" lon="18.052520645398">
        <ele>12.6</ele>
        <time>2016-05-03T17:50:44Z</time>
      </trkpt>
      <trkpt lat="59.268622519663" lon="18.052345044593">
        <ele>12.6</ele>
        <time>2016-05-03T17:50:46Z</time>
      </trkpt>
      <trkpt lat="59.268541969604" lon="18.052176736041">
        <ele>12.6</ele>
        <time>2016-05-03T17:50:48Z</time>
      </trkpt>
      <trkpt lat="59.268498132267" lon="18.052106495719">
        <ele>12.6</ele>
        <time>2016-05-03T17:50:49Z</time>
      </trkpt>
      <trkpt lat="59.268318005236" lon="18.051737273024">
        <ele>12.6</ele>
        <time>2016-05-03T17:50:53Z</time>
      </trkpt>
      <trkpt lat="59.268002342882" lon="18.051258079801">
        <ele>12.6</ele>
        <time>2016-05-03T17:50:59Z</time>
      </trkpt>
      <trkpt lat="59.267767901139" lon="18.051025901171">
        <ele>13</ele>
        <time>2016-05-03T17:51:03Z</time>
      </trkpt>
      <trkpt lat="59.267699840111" lon="18.050959684161">
        <ele>13.4</ele>
        <time>2016-05-03T17:51:04Z</time>
      </trkpt>
      <trkpt lat="59.267627671952" lon="18.050895478807">
        <ele>13.8</ele>
        <time>2016-05-03T17:51:05Z</time>
      </trkpt>
      <trkpt lat="59.26755826982" lon="18.050830016168">
        <ele>14.6</ele>
        <time>2016-05-03T17:51:06Z</time>
      </trkpt>
      <trkpt lat="59.267426590171" lon="18.050667491127">
        <ele>14.6</ele>
        <time>2016-05-03T17:51:08Z</time>
      </trkpt>
      <trkpt lat="59.267374370934" lon="18.05058509705">
        <ele>14.6</ele>
        <time>2016-05-03T17:51:09Z</time>
      </trkpt>
      <trkpt lat="59.267089470153" lon="18.050089894398">
        <ele>14.6</ele>
        <time>2016-05-03T17:51:15Z</time>
      </trkpt>
      <trkpt lat="59.266942367808" lon="18.049848663316">
        <ele>15.2</ele>
        <time>2016-05-03T17:51:18Z</time>
      </trkpt>
      <trkpt lat="59.266898111376" lon="18.049783033039">
        <ele>15.6</ele>
        <time>2016-05-03T17:51:19Z</time>
      </trkpt>
      <trkpt lat="59.266853603487" lon="18.049721845169">
        <ele>16</ele>
        <time>2016-05-03T17:51:20Z</time>
      </trkpt>
      <trkpt lat="59.266809849969" lon="18.049676834366">
        <ele>16.4</ele>
        <time>2016-05-03T17:51:21Z</time>
      </trkpt>
      <trkpt lat="59.266785291002" lon="18.049632577934">
        <ele>16.8</ele>
        <time>2016-05-03T17:51:22Z</time>
      </trkpt>
      <trkpt lat="59.266770119763" lon="18.049562421431">
        <ele>17.4</ele>
        <time>2016-05-03T17:51:24Z</time>
      </trkpt>
      <trkpt lat="59.266761654044" lon="18.049499557181">
        <ele>17.8</ele>
        <time>2016-05-03T17:51:25Z</time>
      </trkpt>
      <trkpt lat="59.266772299057" lon="18.049420432045">
        <ele>18.2</ele>
        <time>2016-05-03T17:51:26Z</time>
      </trkpt>
      <trkpt lat="59.266789062857" lon="18.049338289425">
        <ele>18.6</ele>
        <time>2016-05-03T17:51:27Z</time>
      </trkpt>
      <trkpt lat="59.266811358711" lon="18.049235946426">
        <ele>19.2</ele>
        <time>2016-05-03T17:51:28Z</time>
      </trkpt>
      <trkpt lat="59.266778836939" lon="18.049008377841">
        <ele>18.6</ele>
        <time>2016-05-03T17:51:30Z</time>
      </trkpt>
      <trkpt lat="59.266759223293" lon="18.048886337377">
        <ele>17.8</ele>
        <time>2016-05-03T17:51:31Z</time>
      </trkpt>
      <trkpt lat="59.266731311566" lon="18.048744934724">
        <ele>17.4</ele>
        <time>2016-05-03T17:51:32Z</time>
      </trkpt>
      <trkpt lat="59.266705914409" lon="18.048620212052">
        <ele>16.8</ele>
        <time>2016-05-03T17:51:33Z</time>
      </trkpt>
      <trkpt lat="59.266670039877" lon="18.048362468627">
        <ele>16.8</ele>
        <time>2016-05-03T17:51:35Z</time>
      </trkpt>
      <trkpt lat="59.266623855608" lon="18.048022834039">
        <ele>16.4</ele>
        <time>2016-05-03T17:51:38Z</time>
      </trkpt>
      <trkpt lat="59.266580018271" lon="18.047949995328">
        <ele>16</ele>
        <time>2016-05-03T17:51:39Z</time>
      </trkpt>
      <trkpt lat="59.266527882853" lon="18.04790875638">
        <ele>15.6</ele>
        <time>2016-05-03T17:51:40Z</time>
      </trkpt>
      <trkpt lat="59.26646862282" lon="18.047878665359">
        <ele>15.2</ele>
        <time>2016-05-03T17:51:41Z</time>
      </trkpt>
      <trkpt lat="59.266402573448" lon="18.047828876873">
        <ele>14.8</ele>
        <time>2016-05-03T17:51:42Z</time>
      </trkpt>
      <trkpt lat="59.266251196334" lon="18.047595692415">
        <ele>14.8</ele>
        <time>2016-05-03T17:51:45Z</time>
      </trkpt>
      <trkpt lat="59.266192774491" lon="18.047516399641">
        <ele>14.8</ele>
        <time>2016-05-03T17:51:46Z</time>
      </trkpt>
      <trkpt lat="59.26616184528" lon="18.04732118519">
        <ele>14.8</ele>
        <time>2016-05-03T17:51:48Z</time>
      </trkpt>
      <trkpt lat="59.266229822489" lon="18.046957494549">
        <ele>14.8</ele>
        <time>2016-05-03T17:51:51Z</time>
      </trkpt>
      <trkpt lat="59.266262847175" lon="18.046838639207">
        <ele>14.8</ele>
        <time>2016-05-03T17:51:52Z</time>
      </trkpt>
      <trkpt lat="59.266388659494" lon="18.04647126053">
        <ele>14.8</ele>
        <time>2016-05-03T17:51:55Z</time>
      </trkpt>
      <trkpt lat="59.266430233718" lon="18.046359865079">
        <ele>14.4</ele>
        <time>2016-05-03T17:51:56Z</time>
      </trkpt>
      <trkpt lat="59.266472562313" lon="18.046259869012">
        <ele>14</ele>
        <time>2016-05-03T17:51:57Z</time>
      </trkpt>
      <trkpt lat="59.266513633623" lon="18.046158867117">
        <ele>13.6</ele>
        <time>2016-05-03T17:51:58Z</time>
      </trkpt>
      <trkpt lat="59.266543054092" lon="18.046065157475">
        <ele>13.2</ele>
        <time>2016-05-03T17:51:59Z</time>
      </trkpt>
      <trkpt lat="59.266573312751" lon="18.045992905497">
        <ele>12.8</ele>
        <time>2016-05-03T17:52:00Z</time>
      </trkpt>
      <trkpt lat="59.266608349093" lon="18.045845048781">
        <ele>13.2</ele>
        <time>2016-05-03T17:52:02Z</time>
      </trkpt>
      <trkpt lat="59.266627376006" lon="18.045770617509">
        <ele>13.6</ele>
        <time>2016-05-03T17:52:03Z</time>
      </trkpt>
      <trkpt lat="59.266647073471" lon="18.045697024427">
        <ele>14</ele>
        <time>2016-05-03T17:52:04Z</time>
      </trkpt>
      <trkpt lat="59.266669704601" lon="18.04561798311">
        <ele>14.4</ele>
        <time>2016-05-03T17:52:05Z</time>
      </trkpt>
      <trkpt lat="59.266680265795" lon="18.045538187422">
        <ele>15</ele>
        <time>2016-05-03T17:52:06Z</time>
      </trkpt>
      <trkpt lat="59.266689318247" lon="18.045455206612">
        <ele>15.6</ele>
        <time>2016-05-03T17:52:07Z</time>
      </trkpt>
      <trkpt lat="59.266692754826" lon="18.045344900808">
        <ele>16</ele>
        <time>2016-05-03T17:52:08Z</time>
      </trkpt>
      <trkpt lat="59.26669325774" lon="18.045251442623">
        <ele>16.6</ele>
        <time>2016-05-03T17:52:09Z</time>
      </trkpt>
      <trkpt lat="59.266676661578" lon="18.0452081082">
        <ele>17.2</ele>
        <time>2016-05-03T17:52:10Z</time>
      </trkpt>
      <trkpt lat="59.26657255838" lon="18.04516787508">
        <ele>17.2</ele>
        <time>2016-05-03T17:52:13Z</time>
      </trkpt>
      <trkpt lat="59.266477926729" lon="18.045124456838">
        <ele>16.8</ele>
        <time>2016-05-03T17:52:15Z</time>
      </trkpt>
      <trkpt lat="59.266416906497" lon="18.045083804623">
        <ele>16.4</ele>
        <time>2016-05-03T17:52:16Z</time>
      </trkpt>
      <trkpt lat="59.266356472998" lon="18.045047008082">
        <ele>16</ele>
        <time>2016-05-03T17:52:17Z</time>
      </trkpt>
      <trkpt lat="59.266286819409" lon="18.044998728338">
        <ele>15.6</ele>
        <time>2016-05-03T17:52:18Z</time>
      </trkpt>
      <trkpt lat="59.266198558002" lon="18.044934774441">
        <ele>15</ele>
        <time>2016-05-03T17:52:19Z</time>
      </trkpt>
      <trkpt lat="59.266035697685" lon="18.04479320415">
        <ele>15</ele>
        <time>2016-05-03T17:52:21Z</time>
      </trkpt>
      <trkpt lat="59.265758759709" lon="18.044471925923">
        <ele>15</ele>
        <time>2016-05-03T17:52:25Z</time>
      </trkpt>
      <trkpt lat="59.265698829124" lon="18.044363296499">
        <ele>15</ele>
        <time>2016-05-03T17:52:26Z</time>
      </trkpt>
      <trkpt lat="59.26556170124" lon="18.044018548952">
        <ele>15</ele>
        <time>2016-05-03T17:52:29Z</time>
      </trkpt>
      <trkpt lat="59.265355757957" lon="18.043727697022">
        <ele>15</ele>
        <time>2016-05-03T17:52:33Z</time>
      </trkpt>
      <trkpt lat="59.265243105221" lon="18.043588808939">
        <ele>15.6</ele>
        <time>2016-05-03T17:52:35Z</time>
      </trkpt>
      <trkpt lat="59.265192981459" lon="18.043522340472">
        <ele>16</ele>
        <time>2016-05-03T17:52:36Z</time>
      </trkpt>
      <trkpt lat="59.265149144122" lon="18.043472551986">
        <ele>16.6</ele>
        <time>2016-05-03T17:52:37Z</time>
      </trkpt>
      <trkpt lat="59.265094745591" lon="18.043448328295">
        <ele>17.2</ele>
        <time>2016-05-03T17:52:38Z</time>
      </trkpt>
      <trkpt lat="59.265037413395" lon="18.04342611626">
        <ele>17.8</ele>
        <time>2016-05-03T17:52:39Z</time>
      </trkpt>
      <trkpt lat="59.264986870538" lon="18.043374316118">
        <ele>18.4</ele>
        <time>2016-05-03T17:52:40Z</time>
      </trkpt>
      <trkpt lat="59.264948062341" lon="18.043323773261">
        <ele>19</ele>
        <time>2016-05-03T17:52:41Z</time>
      </trkpt>
      <trkpt lat="59.264895088733" lon="18.043275074422">
        <ele>19.6</ele>
        <time>2016-05-03T17:52:42Z</time>
      </trkpt>
      <trkpt lat="59.264837169804" lon="18.043221849357">
        <ele>19.6</ele>
        <time>2016-05-03T17:52:43Z</time>
      </trkpt>
      <trkpt lat="59.264711441304" lon="18.043138449452">
        <ele>19.6</ele>
        <time>2016-05-03T17:52:45Z</time>
      </trkpt>
      <trkpt lat="59.264638351136" lon="18.043104083662">
        <ele>19.6</ele>
        <time>2016-05-03T17:52:46Z</time>
      </trkpt>
      <trkpt lat="59.264201235051" lon="18.042803927823">
        <ele>19.6</ele>
        <time>2016-05-03T17:52:52Z</time>
      </trkpt>
      <trkpt lat="59.264048013919" lon="18.042694544028">
        <ele>19</ele>
        <time>2016-05-03T17:52:54Z</time>
      </trkpt>
      <trkpt lat="59.263969224059" lon="18.042648695035">
        <ele>18.6</ele>
        <time>2016-05-03T17:52:55Z</time>
      </trkpt>
      <trkpt lat="59.263892445855" lon="18.042596475798">
        <ele>18.2</ele>
        <time>2016-05-03T17:52:56Z</time>
      </trkpt>
      <trkpt lat="59.263817763126" lon="18.042536712851">
        <ele>17.6</ele>
        <time>2016-05-03T17:52:57Z</time>
      </trkpt>
      <trkpt lat="59.26374450532" lon="18.042468148909">
        <ele>17.2</ele>
        <time>2016-05-03T17:52:58Z</time>
      </trkpt>
      <trkpt lat="59.263591451826" lon="18.042337558907">
        <ele>16.8</ele>
        <time>2016-05-03T17:53:00Z</time>
      </trkpt>
      <trkpt lat="59.263511823776" lon="18.04227528139">
        <ele>16.4</ele>
        <time>2016-05-03T17:53:01Z</time>
      </trkpt>
      <trkpt lat="59.263436386676" lon="18.042216775728">
        <ele>16</ele>
        <time>2016-05-03T17:53:02Z</time>
      </trkpt>
      <trkpt lat="59.263360195205" lon="18.042157767152">
        <ele>15.6</ele>
        <time>2016-05-03T17:53:03Z</time>
      </trkpt>
      <trkpt lat="59.262943447137" lon="18.041822407333">
        <ele>15</ele>
        <time>2016-05-03T17:53:09Z</time>
      </trkpt>
      <trkpt lat="59.262744209374" lon="18.041553851257">
        <ele>15</ele>
        <time>2016-05-03T17:53:13Z</time>
      </trkpt>
      <trkpt lat="59.262465008285" lon="18.041292419796">
        <ele>15</ele>
        <time>2016-05-03T17:53:18Z</time>
      </trkpt>
      <trkpt lat="59.262410609754" lon="18.041233914134">
        <ele>15</ele>
        <time>2016-05-03T17:53:19Z</time>
      </trkpt>
      <trkpt lat="59.262112800847" lon="18.040944319489">
        <ele>15</ele>
        <time>2016-05-03T17:53:24Z</time>
      </trkpt>
      <trkpt lat="59.261658669505" lon="18.040470742139">
        <ele>15</ele>
        <time>2016-05-03T17:53:31Z</time>
      </trkpt>
      <trkpt lat="59.261416684052" lon="18.040120378719">
        <ele>14.6</ele>
        <time>2016-05-03T17:53:35Z</time>
      </trkpt>
      <trkpt lat="59.261355328544" lon="18.040031698217">
        <ele>14.2</ele>
        <time>2016-05-03T17:53:36Z</time>
      </trkpt>
      <trkpt lat="59.261283663299" lon="18.039936982747">
        <ele>13.8</ele>
        <time>2016-05-03T17:53:37Z</time>
      </trkpt>
      <trkpt lat="59.261219541764" lon="18.03983698668">
        <ele>13.4</ele>
        <time>2016-05-03T17:53:38Z</time>
      </trkpt>
      <trkpt lat="59.261158270075" lon="18.03973975664">
        <ele>13</ele>
        <time>2016-05-03T17:53:39Z</time>
      </trkpt>
      <trkpt lat="59.261099764413" lon="18.039646885188">
        <ele>13</ele>
        <time>2016-05-03T17:53:40Z</time>
      </trkpt>
      <trkpt lat="59.260937239372" lon="18.039355949439">
        <ele>12.6</ele>
        <time>2016-05-03T17:53:43Z</time>
      </trkpt>
      <trkpt lat="59.260885606868" lon="18.039260228141">
        <ele>12</ele>
        <time>2016-05-03T17:53:44Z</time>
      </trkpt>
      <trkpt lat="59.260831375975" lon="18.039166686137">
        <ele>11.6</ele>
        <time>2016-05-03T17:53:45Z</time>
      </trkpt>
      <trkpt lat="59.260775217245" lon="18.039055039229">
        <ele>11.2</ele>
        <time>2016-05-03T17:53:46Z</time>
      </trkpt>
      <trkpt lat="59.260727440415" lon="18.038929897462">
        <ele>10.8</ele>
        <time>2016-05-03T17:53:47Z</time>
      </trkpt>
      <trkpt lat="59.260506912626" lon="18.038301003505">
        <ele>10.8</ele>
        <time>2016-05-03T17:53:52Z</time>
      </trkpt>
      <trkpt lat="59.260470618999" lon="18.038229254441">
        <ele>10.8</ele>
        <time>2016-05-03T17:53:53Z</time>
      </trkpt>
      <trkpt lat="59.260451592086" lon="18.03812288813">
        <ele>10.8</ele>
        <time>2016-05-03T17:53:55Z</time>
      </trkpt>
      <trkpt lat="59.260501464391" lon="18.037997243449">
        <ele>10.8</ele>
        <time>2016-05-03T17:53:58Z</time>
      </trkpt>
      <trkpt lat="59.260616883154" lon="18.037816278228">
        <ele>10.8</ele>
        <time>2016-05-03T17:54:01Z</time>
      </trkpt>
      <trkpt lat="59.260832381803" lon="18.037492653069">
        <ele>10.8</ele>
        <time>2016-05-03T17:54:05Z</time>
      </trkpt>
      <trkpt lat="59.261048718642" lon="18.037071043499">
        <ele>10.8</ele>
        <time>2016-05-03T17:54:09Z</time>
      </trkpt>
      <trkpt lat="59.261141003361" lon="18.036677932389">
        <ele>10.2</ele>
        <time>2016-05-03T17:54:12Z</time>
      </trkpt>
      <trkpt lat="59.261156258419" lon="18.036542145609">
        <ele>9.8</ele>
        <time>2016-05-03T17:54:13Z</time>
      </trkpt>
      <trkpt lat="59.261152402745" lon="18.036402670793">
        <ele>9.4</ele>
        <time>2016-05-03T17:54:14Z</time>
      </trkpt>
      <trkpt lat="59.261149217623" lon="18.036282055252">
        <ele>9</ele>
        <time>2016-05-03T17:54:15Z</time>
      </trkpt>
      <trkpt lat="59.261145445768" lon="18.036151297612">
        <ele>8.6</ele>
        <time>2016-05-03T17:54:16Z</time>
      </trkpt>
      <trkpt lat="59.2611310289" lon="18.036041913817">
        <ele>8.6</ele>
        <time>2016-05-03T17:54:17Z</time>
      </trkpt>
      <trkpt lat="59.261071182134" lon="18.035928925805">
        <ele>8.6</ele>
        <time>2016-05-03T17:54:19Z</time>
      </trkpt>
      <trkpt lat="59.260991134989" lon="18.035907384322">
        <ele>8.2</ele>
        <time>2016-05-03T17:54:22Z</time>
      </trkpt>
      <trkpt lat="59.260943944892" lon="18.035875365464">
        <ele>7.8</ele>
        <time>2016-05-03T17:54:23Z</time>
      </trkpt>
      <trkpt lat="59.260893150578" lon="18.035876371292">
        <ele>7</ele>
        <time>2016-05-03T17:54:24Z</time>
      </trkpt>
      <trkpt lat="59.260858198055" lon="18.035887603038">
        <ele>6.6</ele>
        <time>2016-05-03T17:54:25Z</time>
      </trkpt>
      <trkpt lat="59.260800446764" lon="18.035930769823">
        <ele>6.6</ele>
        <time>2016-05-03T17:54:27Z</time>
      </trkpt>
      <trkpt lat="59.260638424637" lon="18.036062868567">
        <ele>6.6</ele>
        <time>2016-05-03T17:54:31Z</time>
      </trkpt>
      <trkpt lat="59.260501464391" lon="18.036361096569">
        <ele>6.6</ele>
        <time>2016-05-03T17:54:35Z</time>
      </trkpt>
      <trkpt lat="59.260455615398" lon="18.036454554754">
        <ele>6.6</ele>
        <time>2016-05-03T17:54:36Z</time>
      </trkpt>
      <trkpt lat="59.26028110424" lon="18.03691589453">
        <ele>6.6</ele>
        <time>2016-05-03T17:54:40Z</time>
      </trkpt>
      <trkpt lat="59.260108940014" lon="18.037387376405">
        <ele>6.2</ele>
        <time>2016-05-03T17:54:44Z</time>
      </trkpt>
      <trkpt lat="59.260077843165" lon="18.037512099077">
        <ele>5.8</ele>
        <time>2016-05-03T17:54:45Z</time>
      </trkpt>
      <trkpt lat="59.260045740488" lon="18.037644365459">
        <ele>5.4</ele>
        <time>2016-05-03T17:54:46Z</time>
      </trkpt>
      <trkpt lat="59.26001791258" lon="18.037781325705">
        <ele>4.8</ele>
        <time>2016-05-03T17:54:47Z</time>
      </trkpt>
      <trkpt lat="59.259974242881" lon="18.037908730585">
        <ele>4.4</ele>
        <time>2016-05-03T17:54:48Z</time>
      </trkpt>
      <trkpt lat="59.259906852405" lon="18.03817485591">
        <ele>4.4</ele>
        <time>2016-05-03T17:54:50Z</time>
      </trkpt>
      <trkpt lat="59.259741561337" lon="18.038957893008">
        <ele>4.4</ele>
        <time>2016-05-03T17:54:56Z</time>
      </trkpt>
      <trkpt lat="59.259697137267" lon="18.039463237759">
        <ele>4.8</ele>
        <time>2016-05-03T17:55:00Z</time>
      </trkpt>
      <trkpt lat="59.259698729828" lon="18.039597348159">
        <ele>5.2</ele>
        <time>2016-05-03T17:55:01Z</time>
      </trkpt>
      <trkpt lat="59.259705519167" lon="18.039723663392">
        <ele>5.8</ele>
        <time>2016-05-03T17:55:02Z</time>
      </trkpt>
      <trkpt lat="59.259717505284" lon="18.039849810987">
        <ele>6.2</ele>
        <time>2016-05-03T17:55:03Z</time>
      </trkpt>
      <trkpt lat="59.259731670695" lon="18.039975120392">
        <ele>6.6</ele>
        <time>2016-05-03T17:55:04Z</time>
      </trkpt>
      <trkpt lat="59.259746674296" lon="18.040102357634">
        <ele>6.6</ele>
        <time>2016-05-03T17:55:05Z</time>
      </trkpt>
      <trkpt lat="59.259762935182" lon="18.04023009779">
        <ele>7</ele>
        <time>2016-05-03T17:55:06Z</time>
      </trkpt>
      <trkpt lat="59.259774586023" lon="18.04035247353">
        <ele>7.4</ele>
        <time>2016-05-03T17:55:07Z</time>
      </trkpt>
      <trkpt lat="59.259787494149" lon="18.040479543134">
        <ele>7.8</ele>
        <time>2016-05-03T17:55:08Z</time>
      </trkpt>
      <trkpt lat="59.259798642076" lon="18.040597979381">
        <ele>8.2</ele>
        <time>2016-05-03T17:55:09Z</time>
      </trkpt>
      <trkpt lat="59.259810292917" lon="18.040709458651">
        <ele>8.6</ele>
        <time>2016-05-03T17:55:10Z</time>
      </trkpt>
      <trkpt lat="59.259842479413" lon="18.041110113471">
        <ele>8.6</ele>
        <time>2016-05-03T17:55:14Z</time>
      </trkpt>
      <trkpt lat="59.259863853258" lon="18.04131303927">
        <ele>9</ele>
        <time>2016-05-03T17:55:16Z</time>
      </trkpt>
      <trkpt lat="59.259876090832" lon="18.041405994541">
        <ele>9.6</ele>
        <time>2016-05-03T17:55:17Z</time>
      </trkpt>
      <trkpt lat="59.259887825492" lon="18.041500710011">
        <ele>10</ele>
        <time>2016-05-03T17:55:18Z</time>
      </trkpt>
      <trkpt lat="59.259900146885" lon="18.041601292811">
        <ele>10.4</ele>
        <time>2016-05-03T17:55:19Z</time>
      </trkpt>
      <trkpt lat="59.259907103862" lon="18.041704976914">
        <ele>10.8</ele>
        <time>2016-05-03T17:55:20Z</time>
      </trkpt>
      <trkpt lat="59.259925795499" lon="18.042001528536">
        <ele>11.2</ele>
        <time>2016-05-03T17:55:23Z</time>
      </trkpt>
      <trkpt lat="59.25992571168" lon="18.04209926149">
        <ele>11.6</ele>
        <time>2016-05-03T17:55:24Z</time>
      </trkpt>
      <trkpt lat="59.259928142431" lon="18.042204286697">
        <ele>12</ele>
        <time>2016-05-03T17:55:25Z</time>
      </trkpt>
      <trkpt lat="59.259931662829" lon="18.042306210601">
        <ele>12.4</ele>
        <time>2016-05-03T17:55:26Z</time>
      </trkpt>
      <trkpt lat="59.259932752476" lon="18.042414169473">
        <ele>13</ele>
        <time>2016-05-03T17:55:27Z</time>
      </trkpt>
      <trkpt lat="59.259917497418" lon="18.042729161275">
        <ele>13</ele>
        <time>2016-05-03T17:55:30Z</time>
      </trkpt>
      <trkpt lat="59.259899392514" lon="18.042942732087">
        <ele>13.4</ele>
        <time>2016-05-03T17:55:32Z</time>
      </trkpt>
      <trkpt lat="59.259890675338" lon="18.043043398706">
        <ele>13.8</ele>
        <time>2016-05-03T17:55:33Z</time>
      </trkpt>
      <trkpt lat="59.259879695049" lon="18.043142221307">
        <ele>14.2</ele>
        <time>2016-05-03T17:55:34Z</time>
      </trkpt>
      <trkpt lat="59.259867792751" lon="18.043243139383">
        <ele>14.6</ele>
        <time>2016-05-03T17:55:35Z</time>
      </trkpt>
      <trkpt lat="59.259865781095" lon="18.043343219269">
        <ele>15</ele>
        <time>2016-05-03T17:55:36Z</time>
      </trkpt>
      <trkpt lat="59.259855387539" lon="18.04344288006">
        <ele>15</ele>
        <time>2016-05-03T17:55:37Z</time>
      </trkpt>
      <trkpt lat="59.25980082137" lon="18.043851581504">
        <ele>15</ele>
        <time>2016-05-03T17:55:41Z</time>
      </trkpt>
      <trkpt lat="59.259757570766" lon="18.044041934453">
        <ele>15</ele>
        <time>2016-05-03T17:55:43Z</time>
      </trkpt>
      <trkpt lat="59.259565709075" lon="18.044622045752">
        <ele>15</ele>
        <time>2016-05-03T17:55:50Z</time>
      </trkpt>
      <trkpt lat="59.259534109312" lon="18.044693208083">
        <ele>15.4</ele>
        <time>2016-05-03T17:55:51Z</time>
      </trkpt>
      <trkpt lat="59.259505107938" lon="18.044765040966">
        <ele>15.8</ele>
        <time>2016-05-03T17:55:52Z</time>
      </trkpt>
      <trkpt lat="59.25947728003" lon="18.04483176089">
        <ele>16.2</ele>
        <time>2016-05-03T17:55:53Z</time>
      </trkpt>
      <trkpt lat="59.259452218149" lon="18.044896133882">
        <ele>16.6</ele>
        <time>2016-05-03T17:55:54Z</time>
      </trkpt>
      <trkpt lat="59.259428916467" lon="18.044978779416">
        <ele>17.2</ele>
        <time>2016-05-03T17:55:55Z</time>
      </trkpt>
      <trkpt lat="59.259400753283" lon="18.045053462145">
        <ele>17.2</ele>
        <time>2016-05-03T17:55:56Z</time>
      </trkpt>
      <trkpt lat="59.259342750535" lon="18.04518212431">
        <ele>17.2</ele>
        <time>2016-05-03T17:55:58Z</time>
      </trkpt>
      <trkpt lat="59.259281897941" lon="18.045244737103">
        <ele>17.2</ele>
        <time>2016-05-03T17:56:01Z</time>
      </trkpt>
      <trkpt lat="59.259150972663" lon="18.045344649351">
        <ele>17.2</ele>
        <time>2016-05-03T17:56:05Z</time>
      </trkpt>
      <trkpt lat="59.258942682448" lon="18.045558723077">
        <ele>17.2</ele>
        <time>2016-05-03T17:56:09Z</time>
      </trkpt>
      <trkpt lat="59.258749898748" lon="18.045700628644">
        <ele>16.6</ele>
        <time>2016-05-03T17:56:12Z</time>
      </trkpt>
      <trkpt lat="59.258680915711" lon="18.045738850108">
        <ele>16.2</ele>
        <time>2016-05-03T17:56:13Z</time>
      </trkpt>
      <trkpt lat="59.258608999009" lon="18.045779167047">
        <ele>15.8</ele>
        <time>2016-05-03T17:56:14Z</time>
      </trkpt>
      <trkpt lat="59.25853766904" lon="18.045823423479">
        <ele>15.4</ele>
        <time>2016-05-03T17:56:15Z</time>
      </trkpt>
      <trkpt lat="59.258461142293" lon="18.045880252761">
        <ele>15</ele>
        <time>2016-05-03T17:56:16Z</time>
      </trkpt>
      <trkpt lat="59.258322338029" lon="18.04599852137">
        <ele>14.6</ele>
        <time>2016-05-03T17:56:18Z</time>
      </trkpt>
      <trkpt lat="59.258250002232" lon="18.046073539375">
        <ele>14.2</ele>
        <time>2016-05-03T17:56:19Z</time>
      </trkpt>
      <trkpt lat="59.258182527937" lon="18.04615610109">
        <ele>13.8</ele>
        <time>2016-05-03T17:56:20Z</time>
      </trkpt>
      <trkpt lat="59.258122681171" lon="18.04623405276">
        <ele>13.4</ele>
        <time>2016-05-03T17:56:21Z</time>
      </trkpt>
      <trkpt lat="59.258062080034" lon="18.046308986946">
        <ele>13</ele>
        <time>2016-05-03T17:56:22Z</time>
      </trkpt>
      <trkpt lat="59.257998461413" lon="18.046385513693">
        <ele>13</ele>
        <time>2016-05-03T17:56:23Z</time>
      </trkpt>
      <trkpt lat="59.257936267715" lon="18.046450808694">
        <ele>13.4</ele>
        <time>2016-05-03T17:56:24Z</time>
      </trkpt>
      <trkpt lat="59.257874157836" lon="18.046515852238">
        <ele>13.8</ele>
        <time>2016-05-03T17:56:25Z</time>
      </trkpt>
      <trkpt lat="59.257807857007" lon="18.046572010968">
        <ele>14.6</ele>
        <time>2016-05-03T17:56:26Z</time>
      </trkpt>
      <trkpt lat="59.257740634169" lon="18.046636719236">
        <ele>15</ele>
        <time>2016-05-03T17:56:27Z</time>
      </trkpt>
      <trkpt lat="59.257610798538" lon="18.046749707248">
        <ele>15</ele>
        <time>2016-05-03T17:56:29Z</time>
      </trkpt>
      <trkpt lat="59.25748406421" lon="18.046889014426">
        <ele>15</ele>
        <time>2016-05-03T17:56:31Z</time>
      </trkpt>
      <trkpt lat="59.257368226352" lon="18.047070314923">
        <ele>15</ele>
        <time>2016-05-03T17:56:33Z</time>
      </trkpt>
      <trkpt lat="59.257273846158" lon="18.047253040343">
        <ele>15.4</ele>
        <time>2016-05-03T17:56:35Z</time>
      </trkpt>
      <trkpt lat="59.257228500079" lon="18.047338451904">
        <ele>15.8</ele>
        <time>2016-05-03T17:56:36Z</time>
      </trkpt>
      <trkpt lat="59.257192206452" lon="18.047422187085">
        <ele>16.2</ele>
        <time>2016-05-03T17:56:37Z</time>
      </trkpt>
      <trkpt lat="59.257151135142" lon="18.047495193434">
        <ele>16.6</ele>
        <time>2016-05-03T17:56:38Z</time>
      </trkpt>
      <trkpt lat="59.257119200103" lon="18.0475634221">
        <ele>17</ele>
        <time>2016-05-03T17:56:39Z</time>
      </trkpt>
      <trkpt lat="59.257072848196" lon="18.04766987223">
        <ele>17.4</ele>
        <time>2016-05-03T17:56:41Z</time>
      </trkpt>
      <trkpt lat="59.257051306713" lon="18.047717900517">
        <ele>18</ele>
        <time>2016-05-03T17:56:42Z</time>
      </trkpt>
      <trkpt lat="59.257028591764" lon="18.047755954343">
        <ele>18.4</ele>
        <time>2016-05-03T17:56:43Z</time>
      </trkpt>
      <trkpt lat="59.257004870987" lon="18.047800210775">
        <ele>19</ele>
        <time>2016-05-03T17:56:44Z</time>
      </trkpt>
      <trkpt lat="59.25697863564" lon="18.04784170118">
        <ele>19.6</ele>
        <time>2016-05-03T17:56:45Z</time>
      </trkpt>
      <trkpt lat="59.25694678442" lon="18.047894171874">
        <ele>20.2</ele>
        <time>2016-05-03T17:56:46Z</time>
      </trkpt>
      <trkpt lat="59.256917866865" lon="18.047929543492">
        <ele>20.8</ele>
        <time>2016-05-03T17:56:47Z</time>
      </trkpt>
      <trkpt lat="59.256893056441" lon="18.047966842947">
        <ele>21.4</ele>
        <time>2016-05-03T17:56:48Z</time>
      </trkpt>
      <trkpt lat="59.256859445022" lon="18.048000622004">
        <ele>22</ele>
        <time>2016-05-03T17:56:49Z</time>
      </trkpt>
      <trkpt lat="59.25682524687" lon="18.048046722454">
        <ele>22.8</ele>
        <time>2016-05-03T17:56:50Z</time>
      </trkpt>
      <trkpt lat="59.256793060374" lon="18.048095840388">
        <ele>23.2</ele>
        <time>2016-05-03T17:56:51Z</time>
      </trkpt>
      <trkpt lat="59.256766322113" lon="18.04814931691">
        <ele>23.8</ele>
        <time>2016-05-03T17:56:52Z</time>
      </trkpt>
      <trkpt lat="59.256729357934" lon="18.048259790352">
        <ele>24.2</ele>
        <time>2016-05-03T17:56:54Z</time>
      </trkpt>
      <trkpt lat="59.256713013229" lon="18.04832114586">
        <ele>24.6</ele>
        <time>2016-05-03T17:56:55Z</time>
      </trkpt>
      <trkpt lat="59.256702116759" lon="18.048386943775">
        <ele>25</ele>
        <time>2016-05-03T17:56:56Z</time>
      </trkpt>
      <trkpt lat="59.256696081791" lon="18.048455088622">
        <ele>25.4</ele>
        <time>2016-05-03T17:56:57Z</time>
      </trkpt>
      <trkpt lat="59.256695914153" lon="18.048522898193">
        <ele>25.8</ele>
        <time>2016-05-03T17:56:58Z</time>
      </trkpt>
      <trkpt lat="59.256697171438" lon="18.048664887579">
        <ele>26.2</ele>
        <time>2016-05-03T17:57:00Z</time>
      </trkpt>
      <trkpt lat="59.256711420668" lon="18.048736385186">
        <ele>26.8</ele>
        <time>2016-05-03T17:57:01Z</time>
      </trkpt>
      <trkpt lat="59.256726256631" lon="18.048811738467">
        <ele>27.2</ele>
        <time>2016-05-03T17:57:02Z</time>
      </trkpt>
      <trkpt lat="59.256738578024" lon="18.048880889142">
        <ele>27.6</ele>
        <time>2016-05-03T17:57:03Z</time>
      </trkpt>
      <trkpt lat="59.256751318512" lon="18.048949536903">
        <ele>28</ele>
        <time>2016-05-03T17:57:04Z</time>
      </trkpt>
      <trkpt lat="59.256769004321" lon="18.049008210203">
        <ele>28.4</ele>
        <time>2016-05-03T17:57:05Z</time>
      </trkpt>
      <trkpt lat="59.256773698185" lon="18.049078953439">
        <ele>28.8</ele>
        <time>2016-05-03T17:57:06Z</time>
      </trkpt>
      <trkpt lat="59.256787276863" lon="18.049147349743">
        <ele>29.4</ele>
        <time>2016-05-03T17:57:07Z</time>
      </trkpt>
      <trkpt lat="59.256797335143" lon="18.049213063839">
        <ele>29.8</ele>
        <time>2016-05-03T17:57:08Z</time>
      </trkpt>
      <trkpt lat="59.256805549405" lon="18.049292272794">
        <ele>30.2</ele>
        <time>2016-05-03T17:57:09Z</time>
      </trkpt>
      <trkpt lat="59.25685877447" lon="18.049720001151">
        <ele>30.2</ele>
        <time>2016-05-03T17:57:14Z</time>
      </trkpt>
      <trkpt lat="59.256916861037" lon="18.050508737941">
        <ele>30.2</ele>
        <time>2016-05-03T17:57:21Z</time>
      </trkpt>
      <trkpt lat="59.256919878521" lon="18.050625665446">
        <ele>30.2</ele>
        <time>2016-05-03T17:57:22Z</time>
      </trkpt>
      <trkpt lat="59.256946281506" lon="18.051082730453">
        <ele>30.2</ele>
        <time>2016-05-03T17:57:26Z</time>
      </trkpt>
      <trkpt lat="59.256967571532" lon="18.051517248149">
        <ele>30.2</ele>
        <time>2016-05-03T17:57:30Z</time>
      </trkpt>
      <trkpt lat="59.256964302591" lon="18.051620764614">
        <ele>30.2</ele>
        <time>2016-05-03T17:57:31Z</time>
      </trkpt>
      <trkpt lat="59.257005373901" lon="18.052151506522">
        <ele>30.2</ele>
        <time>2016-05-03T17:57:36Z</time>
      </trkpt>
      <trkpt lat="59.257047031944" lon="18.052544198537">
        <ele>31</ele>
        <time>2016-05-03T17:57:40Z</time>
      </trkpt>
      <trkpt lat="59.257064298658" lon="18.052627514623">
        <ele>31.6</ele>
        <time>2016-05-03T17:57:41Z</time>
      </trkpt>
      <trkpt lat="59.257078212612" lon="18.052716781858">
        <ele>32</ele>
        <time>2016-05-03T17:57:42Z</time>
      </trkpt>
      <trkpt lat="59.257087013607" lon="18.052802193419">
        <ele>32.4</ele>
        <time>2016-05-03T17:57:43Z</time>
      </trkpt>
      <trkpt lat="59.257124564519" lon="18.053166806069">
        <ele>32.4</ele>
        <time>2016-05-03T17:57:47Z</time>
      </trkpt>
      <trkpt lat="59.257120792664" lon="18.053380209243">
        <ele>32.8</ele>
        <time>2016-05-03T17:57:49Z</time>
      </trkpt>
      <trkpt lat="59.257113919506" lon="18.053489676857">
        <ele>33.4</ele>
        <time>2016-05-03T17:57:50Z</time>
      </trkpt>
      <trkpt lat="59.257105705244" lon="18.053595791711">
        <ele>33.8</ele>
        <time>2016-05-03T17:57:51Z</time>
      </trkpt>
      <trkpt lat="59.257083157933" lon="18.053692099742">
        <ele>34.4</ele>
        <time>2016-05-03T17:57:52Z</time>
      </trkpt>
      <trkpt lat="59.257061532631" lon="18.053780780244">
        <ele>34.8</ele>
        <time>2016-05-03T17:57:53Z</time>
      </trkpt>
      <trkpt lat="59.256984251513" lon="18.054225440039">
        <ele>35.2</ele>
        <time>2016-05-03T17:57:58Z</time>
      </trkpt>
      <trkpt lat="59.256969080274" lon="18.054315545464">
        <ele>35.6</ele>
        <time>2016-05-03T17:57:59Z</time>
      </trkpt>
      <trkpt lat="59.256955836872" lon="18.054406069984">
        <ele>36.2</ele>
        <time>2016-05-03T17:58:00Z</time>
      </trkpt>
      <trkpt lat="59.256942844927" lon="18.054492822649">
        <ele>36.6</ele>
        <time>2016-05-03T17:58:01Z</time>
      </trkpt>
      <trkpt lat="59.256932283733" lon="18.054594411277">
        <ele>37</ele>
        <time>2016-05-03T17:58:02Z</time>
      </trkpt>
      <trkpt lat="59.256913592096" lon="18.054693652973">
        <ele>37</ele>
        <time>2016-05-03T17:58:03Z</time>
      </trkpt>
      <trkpt lat="59.256877633745" lon="18.054880066429">
        <ele>37.4</ele>
        <time>2016-05-03T17:58:05Z</time>
      </trkpt>
      <trkpt lat="59.256857265728" lon="18.054974949537">
        <ele>38.2</ele>
        <time>2016-05-03T17:58:06Z</time>
      </trkpt>
      <trkpt lat="59.256837903539" lon="18.055070838473">
        <ele>38.6</ele>
        <time>2016-05-03T17:58:07Z</time>
      </trkpt>
      <trkpt lat="59.256813679848" lon="18.055154322197">
        <ele>39</ele>
        <time>2016-05-03T17:58:08Z</time>
      </trkpt>
      <trkpt lat="59.256723574423" lon="18.055249205305">
        <ele>39</ele>
        <time>2016-05-03T17:58:10Z</time>
      </trkpt>
      <trkpt lat="59.256583764331" lon="18.055162620278">
        <ele>39.4</ele>
        <time>2016-05-03T17:58:13Z</time>
      </trkpt>
      <trkpt lat="59.256538250614" lon="18.055134121818">
        <ele>39.8</ele>
        <time>2016-05-03T17:58:14Z</time>
      </trkpt>
      <trkpt lat="59.256494748553" lon="18.055111239231">
        <ele>40.4</ele>
        <time>2016-05-03T17:58:15Z</time>
      </trkpt>
      <trkpt lat="59.256447390818" lon="18.055071760482">
        <ele>40.8</ele>
        <time>2016-05-03T17:58:16Z</time>
      </trkpt>
      <trkpt lat="59.256400619816" lon="18.055024905661">
        <ele>41.2</ele>
        <time>2016-05-03T17:58:17Z</time>
      </trkpt>
      <trkpt lat="59.256351166606" lon="18.054997077753">
        <ele>41.2</ele>
        <time>2016-05-03T17:58:18Z</time>
      </trkpt>
      <trkpt lat="59.256245135571" lon="18.054836312911">
        <ele>41.2</ele>
        <time>2016-05-03T17:58:21Z</time>
      </trkpt>
      <trkpt lat="59.256226192477" lon="18.054766994598">
        <ele>41.2</ele>
        <time>2016-05-03T17:58:22Z</time>
      </trkpt>
      <trkpt lat="59.256144468952" lon="18.054349492159">
        <ele>41.2</ele>
        <time>2016-05-03T17:58:27Z</time>
      </trkpt>
      <trkpt lat="59.256123849478" lon="18.054054700736">
        <ele>42</ele>
        <time>2016-05-03T17:58:30Z</time>
      </trkpt>
      <trkpt lat="59.256122676012" lon="18.053953615022">
        <ele>42.4</ele>
        <time>2016-05-03T17:58:31Z</time>
      </trkpt>
      <trkpt lat="59.256123849478" lon="18.053846410521">
        <ele>42.8</ele>
        <time>2016-05-03T17:58:32Z</time>
      </trkpt>
      <trkpt lat="59.256131979921" lon="18.053753287612">
        <ele>43.2</ele>
        <time>2016-05-03T17:58:33Z</time>
      </trkpt>
      <trkpt lat="59.256153186128" lon="18.053576848617">
        <ele>43.8</ele>
        <time>2016-05-03T17:58:35Z</time>
      </trkpt>
      <trkpt lat="59.256164585512" lon="18.053486994649">
        <ele>44.2</ele>
        <time>2016-05-03T17:58:36Z</time>
      </trkpt>
      <trkpt lat="59.256164669331" lon="18.053391105713">
        <ele>44.6</ele>
        <time>2016-05-03T17:58:37Z</time>
      </trkpt>
      <trkpt lat="59.25616140039" lon="18.053293372759">
        <ele>45</ele>
        <time>2016-05-03T17:58:38Z</time>
      </trkpt>
      <trkpt lat="59.256164166417" lon="18.053191197398">
        <ele>45.4</ele>
        <time>2016-05-03T17:58:39Z</time>
      </trkpt>
      <trkpt lat="59.256180427303" lon="18.052811413509">
        <ele>45.4</ele>
        <time>2016-05-03T17:58:43Z</time>
      </trkpt>
      <trkpt lat="59.256168357367" lon="18.052668250657">
        <ele>45.4</ele>
        <time>2016-05-03T17:58:45Z</time>
      </trkpt>
      <trkpt lat="59.256162154761" lon="18.052602033647">
        <ele>45.8</ele>
        <time>2016-05-03T17:58:46Z</time>
      </trkpt>
      <trkpt lat="59.256156035974" lon="18.0525255069">
        <ele>46.4</ele>
        <time>2016-05-03T17:58:47Z</time>
      </trkpt>
      <trkpt lat="59.256151761205" lon="18.052453757836">
        <ele>46.8</ele>
        <time>2016-05-03T17:58:48Z</time>
      </trkpt>
      <trkpt lat="59.256142457296" lon="18.052383098419">
        <ele>47.4</ele>
        <time>2016-05-03T17:58:49Z</time>
      </trkpt>
      <trkpt lat="59.256131728464" lon="18.052306236396">
        <ele>47.8</ele>
        <time>2016-05-03T17:58:50Z</time>
      </trkpt>
      <trkpt lat="59.256120915813" lon="18.052223171767">
        <ele>47.8</ele>
        <time>2016-05-03T17:58:51Z</time>
      </trkpt>
      <trkpt lat="59.256112953008" lon="18.052145387735">
        <ele>48.4</ele>
        <time>2016-05-03T17:58:52Z</time>
      </trkpt>
      <trkpt lat="59.256101134529" lon="18.052066681694">
        <ele>48.8</ele>
        <time>2016-05-03T17:58:53Z</time>
      </trkpt>
      <trkpt lat="59.256090573335" lon="18.0519890653">
        <ele>49.4</ele>
        <time>2016-05-03T17:58:54Z</time>
      </trkpt>
      <trkpt lat="59.256081856159" lon="18.051905581576">
        <ele>50.4</ele>
        <time>2016-05-03T17:58:55Z</time>
      </trkpt>
      <trkpt lat="59.256072049336" lon="18.051830144476">
        <ele>50.8</ele>
        <time>2016-05-03T17:58:56Z</time>
      </trkpt>
      <trkpt lat="59.256063080703" lon="18.051758898326">
        <ele>51.2</ele>
        <time>2016-05-03T17:58:57Z</time>
      </trkpt>
      <trkpt lat="59.256049502025" lon="18.051698045732">
        <ele>51.8</ele>
        <time>2016-05-03T17:58:58Z</time>
      </trkpt>
      <trkpt lat="59.256041455401" lon="18.051630152342">
        <ele>52.2</ele>
        <time>2016-05-03T17:58:59Z</time>
      </trkpt>
      <trkpt lat="59.256034917519" lon="18.051561756038">
        <ele>52.6</ele>
        <time>2016-05-03T17:59:00Z</time>
      </trkpt>
      <trkpt lat="59.256009771819" lon="18.051319602947">
        <ele>53</ele>
        <time>2016-05-03T17:59:04Z</time>
      </trkpt>
      <trkpt lat="59.256003150118" lon="18.051268808633">
        <ele>53.4</ele>
        <time>2016-05-03T17:59:05Z</time>
      </trkpt>
      <trkpt lat="59.256001222281" lon="18.05122295964">
        <ele>53.8</ele>
        <time>2016-05-03T17:59:06Z</time>
      </trkpt>
      <trkpt lat="59.256002060471" lon="18.051182055968">
        <ele>54.2</ele>
        <time>2016-05-03T17:59:07Z</time>
      </trkpt>
      <trkpt lat="59.256001725195" lon="18.051139056821">
        <ele>54.8</ele>
        <time>2016-05-03T17:59:08Z</time>
      </trkpt>
      <trkpt lat="59.25600382067" lon="18.051089603611">
        <ele>54.8</ele>
        <time>2016-05-03T17:59:09Z</time>
      </trkpt>
      <trkpt lat="59.25601387895" lon="18.050991283924">
        <ele>54.8</ele>
        <time>2016-05-03T17:59:11Z</time>
      </trkpt>
      <trkpt lat="59.256084789824" lon="18.050856000058">
        <ele>54.8</ele>
        <time>2016-05-03T17:59:14Z</time>
      </trkpt>
      <trkpt lat="59.256185121167" lon="18.050609236922">
        <ele>55.2</ele>
        <time>2016-05-03T17:59:18Z</time>
      </trkpt>
      <trkpt lat="59.256201382053" lon="18.05052642375">
        <ele>55.6</ele>
        <time>2016-05-03T17:59:19Z</time>
      </trkpt>
      <trkpt lat="59.256211188876" lon="18.050454926143">
        <ele>56.4</ele>
        <time>2016-05-03T17:59:20Z</time>
      </trkpt>
      <trkpt lat="59.256215715102" lon="18.050382757984">
        <ele>56.8</ele>
        <time>2016-05-03T17:59:21Z</time>
      </trkpt>
      <trkpt lat="59.256194760352" lon="18.050219227115">
        <ele>56.8</ele>
        <time>2016-05-03T17:59:24Z</time>
      </trkpt>
      <trkpt lat="59.256129130075" lon="18.050200284021">
        <ele>56.8</ele>
        <time>2016-05-03T17:59:28Z</time>
      </trkpt>
      <trkpt lat="59.256126615505" lon="18.050360545949">
        <ele>56.8</ele>
        <time>2016-05-03T17:59:31Z</time>
      </trkpt>
      <trkpt lat="59.256137176699" lon="18.050541092075">
        <ele>56.8</ele>
        <time>2016-05-03T17:59:33Z</time>
      </trkpt>
      <trkpt lat="59.256132482835" lon="18.050617032089">
        <ele>56.8</ele>
        <time>2016-05-03T17:59:34Z</time>
      </trkpt>
      <trkpt lat="59.256116641044" lon="18.050692301551">
        <ele>56.8</ele>
        <time>2016-05-03T17:59:35Z</time>
      </trkpt>
      <trkpt lat="59.256001641376" lon="18.051014920882">
        <ele>56.8</ele>
        <time>2016-05-03T17:59:39Z</time>
      </trkpt>
      <trkpt lat="59.255978758789" lon="18.051107373239">
        <ele>56.8</ele>
        <time>2016-05-03T17:59:40Z</time>
      </trkpt>
      <trkpt lat="59.255987727422" lon="18.051344581009">
        <ele>56.8</ele>
        <time>2016-05-03T17:59:42Z</time>
      </trkpt>
      <trkpt lat="59.256002731023" lon="18.051475757744">
        <ele>56.2</ele>
        <time>2016-05-03T17:59:43Z</time>
      </trkpt>
      <trkpt lat="59.256021925574" lon="18.051612634171">
        <ele>55.4</ele>
        <time>2016-05-03T17:59:44Z</time>
      </trkpt>
      <trkpt lat="59.256042042134" lon="18.051748253313">
        <ele>55</ele>
        <time>2016-05-03T17:59:45Z</time>
      </trkpt>
      <trkpt lat="59.256070540594" lon="18.05189602621">
        <ele>54.4</ele>
        <time>2016-05-03T17:59:46Z</time>
      </trkpt>
      <trkpt lat="59.256094009914" lon="18.052051510455">
        <ele>53.8</ele>
        <time>2016-05-03T17:59:47Z</time>
      </trkpt>
      <trkpt lat="59.256123933297" lon="18.052217136799">
        <ele>53</ele>
        <time>2016-05-03T17:59:48Z</time>
      </trkpt>
      <trkpt lat="59.256156706526" lon="18.052406064825">
        <ele>52.4</ele>
        <time>2016-05-03T17:59:49Z</time>
      </trkpt>
      <trkpt lat="59.256180427303" lon="18.052581581811">
        <ele>51.8</ele>
        <time>2016-05-03T17:59:50Z</time>
      </trkpt>
      <trkpt lat="59.256197358741" lon="18.052774533149">
        <ele>50.8</ele>
        <time>2016-05-03T17:59:51Z</time>
      </trkpt>
      <trkpt lat="59.256202890795" lon="18.052979973518">
        <ele>50</ele>
        <time>2016-05-03T17:59:52Z</time>
      </trkpt>
      <trkpt lat="59.256195095628" lon="18.053192622321">
        <ele>49</ele>
        <time>2016-05-03T17:59:53Z</time>
      </trkpt>
      <trkpt lat="59.256163747322" lon="18.053393368826">
        <ele>47.8</ele>
        <time>2016-05-03T17:59:54Z</time>
      </trkpt>
      <trkpt lat="59.256139020717" lon="18.053579782282">
        <ele>46.6</ele>
        <time>2016-05-03T17:59:55Z</time>
      </trkpt>
      <trkpt lat="59.256113539741" lon="18.053759741675">
        <ele>45.4</ele>
        <time>2016-05-03T17:59:56Z</time>
      </trkpt>
      <trkpt lat="59.25609434519" lon="18.05393701886">
        <ele>44.4</ele>
        <time>2016-05-03T17:59:57Z</time>
      </trkpt>
      <trkpt lat="59.256086298566" lon="18.054096023503">
        <ele>43.2</ele>
        <time>2016-05-03T17:59:58Z</time>
      </trkpt>
      <trkpt lat="59.256085041281" lon="18.05426810391">
        <ele>42</ele>
        <time>2016-05-03T17:59:59Z</time>
      </trkpt>
      <trkpt lat="59.256126112591" lon="18.054594327458">
        <ele>42</ele>
        <time>2016-05-03T18:00:01Z</time>
      </trkpt>
      <trkpt lat="59.256153521404" lon="18.054741094527">
        <ele>41.6</ele>
        <time>2016-05-03T18:00:02Z</time>
      </trkpt>
      <trkpt lat="59.256192832515" lon="18.054875372565">
        <ele>41.2</ele>
        <time>2016-05-03T18:00:03Z</time>
      </trkpt>
      <trkpt lat="59.256242537182" lon="18.054995317554">
        <ele>40.6</ele>
        <time>2016-05-03T18:00:04Z</time>
      </trkpt>
      <trkpt lat="59.256302970681" lon="18.055084081875">
        <ele>40.2</ele>
        <time>2016-05-03T18:00:05Z</time>
      </trkpt>
      <trkpt lat="59.256370277338" lon="18.055155579482">
        <ele>39.8</ele>
        <time>2016-05-03T18:00:06Z</time>
      </trkpt>
      <trkpt lat="59.256509668335" lon="18.055290192796">
        <ele>39.8</ele>
        <time>2016-05-03T18:00:08Z</time>
      </trkpt>
      <trkpt lat="59.256578399915" lon="18.055341573843">
        <ele>39.8</ele>
        <time>2016-05-03T18:00:09Z</time>
      </trkpt>
      <trkpt lat="59.256654004653" lon="18.05534685444">
        <ele>39.8</ele>
        <time>2016-05-03T18:00:10Z</time>
      </trkpt>
      <trkpt lat="59.256719215835" lon="18.055266555838">
        <ele>39.8</ele>
        <time>2016-05-03T18:00:11Z</time>
      </trkpt>
      <trkpt lat="59.256805297948" lon="18.054976458279">
        <ele>39.8</ele>
        <time>2016-05-03T18:00:13Z</time>
      </trkpt>
      <trkpt lat="59.256890960966" lon="18.054510089363">
        <ele>39.4</ele>
        <time>2016-05-03T18:00:16Z</time>
      </trkpt>
      <trkpt lat="59.256919375607" lon="18.05434186463">
        <ele>38.8</ele>
        <time>2016-05-03T18:00:17Z</time>
      </trkpt>
      <trkpt lat="59.256947790248" lon="18.054171795879">
        <ele>38.4</ele>
        <time>2016-05-03T18:00:18Z</time>
      </trkpt>
      <trkpt lat="59.25698031202" lon="18.05399569216">
        <ele>38</ele>
        <time>2016-05-03T18:00:19Z</time>
      </trkpt>
      <trkpt lat="59.257012582335" lon="18.053801399718">
        <ele>37.4</ele>
        <time>2016-05-03T18:00:20Z</time>
      </trkpt>
      <trkpt lat="59.257046109935" lon="18.053620685954">
        <ele>37</ele>
        <time>2016-05-03T18:00:21Z</time>
      </trkpt>
      <trkpt lat="59.257064214839" lon="18.053425303865">
        <ele>36.4</ele>
        <time>2016-05-03T18:00:22Z</time>
      </trkpt>
      <trkpt lat="59.257054743292" lon="18.053221875152">
        <ele>35.8</ele>
        <time>2016-05-03T18:00:23Z</time>
      </trkpt>
      <trkpt lat="59.257040326424" lon="18.053022134475">
        <ele>35</ele>
        <time>2016-05-03T18:00:24Z</time>
      </trkpt>
      <trkpt lat="59.25702473609" lon="18.052825746558">
        <ele>34.2</ele>
        <time>2016-05-03T18:00:25Z</time>
      </trkpt>
      <trkpt lat="59.25700629591" lon="18.0526344716">
        <ele>33.6</ele>
        <time>2016-05-03T18:00:26Z</time>
      </trkpt>
      <trkpt lat="59.256984670608" lon="18.052429701783">
        <ele>33</ele>
        <time>2016-05-03T18:00:27Z</time>
      </trkpt>
      <trkpt lat="59.256967487713" lon="18.052233900599">
        <ele>32.4</ele>
        <time>2016-05-03T18:00:28Z</time>
      </trkpt>
      <trkpt lat="59.256947538791" lon="18.05201924014">
        <ele>31.8</ele>
        <time>2016-05-03T18:00:29Z</time>
      </trkpt>
      <trkpt lat="59.256926332584" lon="18.051802400387">
        <ele>31.2</ele>
        <time>2016-05-03T18:00:30Z</time>
      </trkpt>
      <trkpt lat="59.256907473309" lon="18.051596960018">
        <ele>30.8</ele>
        <time>2016-05-03T18:00:31Z</time>
      </trkpt>
      <trkpt lat="59.256883165799" lon="18.051404763051">
        <ele>30.2</ele>
        <time>2016-05-03T18:00:32Z</time>
      </trkpt>
      <trkpt lat="59.256864809438" lon="18.051212566084">
        <ele>29.6</ele>
        <time>2016-05-03T18:00:33Z</time>
      </trkpt>
      <trkpt lat="59.256846704534" lon="18.051007209534">
        <ele>29.2</ele>
        <time>2016-05-03T18:00:34Z</time>
      </trkpt>
      <trkpt lat="59.256834802236" lon="18.05081811387">
        <ele>28.6</ele>
        <time>2016-05-03T18:00:35Z</time>
      </trkpt>
      <trkpt lat="59.256817200246" lon="18.050466996079">
        <ele>28.6</ele>
        <time>2016-05-03T18:00:37Z</time>
      </trkpt>
      <trkpt lat="59.256768836683" lon="18.049495701507">
        <ele>28.6</ele>
        <time>2016-05-03T18:00:43Z</time>
      </trkpt>
      <trkpt lat="59.25667772543" lon="18.048772008261">
        <ele>28.6</ele>
        <time>2016-05-03T18:00:48Z</time>
      </trkpt>
      <trkpt lat="59.256646041848" lon="18.048427344533">
        <ele>28.6</ele>
        <time>2016-05-03T18:00:50Z</time>
      </trkpt>
      <trkpt lat="59.256638833414" lon="18.048227352399">
        <ele>28</ele>
        <time>2016-05-03T18:00:51Z</time>
      </trkpt>
      <trkpt lat="59.256703038768" lon="18.048089302506">
        <ele>27.6</ele>
        <time>2016-05-03T18:00:52Z</time>
      </trkpt>
      <trkpt lat="59.256754335996" lon="18.047983439109">
        <ele>27.2</ele>
        <time>2016-05-03T18:00:53Z</time>
      </trkpt>
      <trkpt lat="59.256798340971" lon="18.047904733068">
        <ele>26.4</ele>
        <time>2016-05-03T18:00:54Z</time>
      </trkpt>
      <trkpt lat="59.256839999014" lon="18.047849999261">
        <ele>25.8</ele>
        <time>2016-05-03T18:00:55Z</time>
      </trkpt>
      <trkpt lat="59.256869335664" lon="18.047809766141">
        <ele>25.2</ele>
        <time>2016-05-03T18:00:56Z</time>
      </trkpt>
      <trkpt lat="59.256873358976" lon="18.047774562161">
        <ele>24.4</ele>
        <time>2016-05-03T18:00:57Z</time>
      </trkpt>
      <trkpt lat="59.256878807211" lon="18.047758888008">
        <ele>23.8</ele>
        <time>2016-05-03T18:00:58Z</time>
      </trkpt>
      <trkpt lat="59.256832706761" lon="18.047733742308">
        <ele>23.8</ele>
        <time>2016-05-03T18:01:01Z</time>
      </trkpt>
      <trkpt lat="59.256817954617" lon="18.047720750363">
        <ele>23.4</ele>
        <time>2016-05-03T18:01:02Z</time>
      </trkpt>
      <trkpt lat="59.256782415361" lon="18.047720582725">
        <ele>22.8</ele>
        <time>2016-05-03T18:01:03Z</time>
      </trkpt>
      <trkpt lat="59.25674310425" lon="18.047728796987">
        <ele>22.4</ele>
        <time>2016-05-03T18:01:04Z</time>
      </trkpt>
      <trkpt lat="59.256696919981" lon="18.047740699285">
        <ele>22</ele>
        <time>2016-05-03T18:01:05Z</time>
      </trkpt>
      <trkpt lat="59.256654339929" lon="18.047754864696">
        <ele>21.6</ele>
        <time>2016-05-03T18:01:06Z</time>
      </trkpt>
      <trkpt lat="59.256602455968" lon="18.047784788079">
        <ele>21.2</ele>
        <time>2016-05-03T18:01:07Z</time>
      </trkpt>
      <trkpt lat="59.256551494016" lon="18.047802725345">
        <ele>20.8</ele>
        <time>2016-05-03T18:01:08Z</time>
      </trkpt>
      <trkpt lat="59.256502627539" lon="18.047810771969">
        <ele>20.4</ele>
        <time>2016-05-03T18:01:09Z</time>
      </trkpt>
      <trkpt lat="59.256436913443" lon="18.047840946809">
        <ele>20</ele>
        <time>2016-05-03T18:01:10Z</time>
      </trkpt>
      <trkpt lat="59.256379832704" lon="18.047873468581">
        <ele>19.4</ele>
        <time>2016-05-03T18:01:11Z</time>
      </trkpt>
      <trkpt lat="59.256309843839" lon="18.047916635366">
        <ele>18.8</ele>
        <time>2016-05-03T18:01:12Z</time>
      </trkpt>
      <trkpt lat="59.256234658196" lon="18.047967010585">
        <ele>18.2</ele>
        <time>2016-05-03T18:01:13Z</time>
      </trkpt>
      <trkpt lat="59.256162909132" lon="18.048028701369">
        <ele>17.8</ele>
        <time>2016-05-03T18:01:14Z</time>
      </trkpt>
      <trkpt lat="59.256091746801" lon="18.048088464316">
        <ele>17.2</ele>
        <time>2016-05-03T18:01:15Z</time>
      </trkpt>
      <trkpt lat="59.255939028583" lon="18.048172534773">
        <ele>16.8</ele>
        <time>2016-05-03T18:01:17Z</time>
      </trkpt>
      <trkpt lat="59.255887563717" lon="18.048184269433">
        <ele>16.4</ele>
        <time>2016-05-03T18:01:18Z</time>
      </trkpt>
      <trkpt lat="59.255854287574" lon="18.048186700184">
        <ele>16</ele>
        <time>2016-05-03T18:01:19Z</time>
      </trkpt>
      <trkpt lat="59.255828555141" lon="18.048199859767">
        <ele>15.6</ele>
        <time>2016-05-03T18:01:20Z</time>
      </trkpt>
      <trkpt lat="59.255807516572" lon="18.048240511982">
        <ele>15.2</ele>
        <time>2016-05-03T18:01:21Z</time>
      </trkpt>
      <trkpt lat="59.255787064736" lon="18.048296670712">
        <ele>15.2</ele>
        <time>2016-05-03T18:01:22Z</time>
      </trkpt>
      <trkpt lat="59.255720931545" lon="18.048457351735">
        <ele>15.2</ele>
        <time>2016-05-03T18:01:25Z</time>
      </trkpt>
      <trkpt lat="59.255679022045" lon="18.048534968129">
        <ele>15.2</ele>
        <time>2016-05-03T18:01:26Z</time>
      </trkpt>
      <trkpt lat="59.255558071228" lon="18.048759603049">
        <ele>15.2</ele>
        <time>2016-05-03T18:01:29Z</time>
      </trkpt>
      <trkpt lat="59.255472324391" lon="18.048915674027">
        <ele>15.2</ele>
        <time>2016-05-03T18:01:31Z</time>
      </trkpt>
      <trkpt lat="59.255172671466" lon="18.049589914063">
        <ele>15.2</ele>
        <time>2016-05-03T18:01:39Z</time>
      </trkpt>
      <trkpt lat="59.255141155522" lon="18.04966057348">
        <ele>15.6</ele>
        <time>2016-05-03T18:01:40Z</time>
      </trkpt>
      <trkpt lat="59.255110393949" lon="18.049716983667">
        <ele>16</ele>
        <time>2016-05-03T18:01:41Z</time>
      </trkpt>
      <trkpt lat="59.255095809443" lon="18.049720336427">
        <ele>16.6</ele>
        <time>2016-05-03T18:01:42Z</time>
      </trkpt>
      <trkpt lat="59.25505750416" lon="18.049711954527">
        <ele>17</ele>
        <time>2016-05-03T18:01:43Z</time>
      </trkpt>
      <trkpt lat="59.255033029012" lon="18.049716229296">
        <ele>17.4</ele>
        <time>2016-05-03T18:01:44Z</time>
      </trkpt>
      <trkpt lat="59.254936720981" lon="18.049703404989">
        <ele>17.4</ele>
        <time>2016-05-03T18:01:47Z</time>
      </trkpt>
      <trkpt lat="59.254818703829" lon="18.049646408069">
        <ele>17</ele>
        <time>2016-05-03T18:01:50Z</time>
      </trkpt>
      <trkpt lat="59.254750642801" lon="18.049585890751">
        <ele>16.6</ele>
        <time>2016-05-03T18:01:51Z</time>
      </trkpt>
      <trkpt lat="59.254657519892" lon="18.049481536096">
        <ele>15.6</ele>
        <time>2016-05-03T18:01:52Z</time>
      </trkpt>
      <trkpt lat="59.254601277343" lon="18.049397800915">
        <ele>14.6</ele>
        <time>2016-05-03T18:01:53Z</time>
      </trkpt>
      <trkpt lat="59.254554254884" lon="18.049332673552">
        <ele>13.6</ele>
        <time>2016-05-03T18:01:54Z</time>
      </trkpt>
      <trkpt lat="59.254504885493" lon="18.04926997694">
        <ele>12.8</ele>
        <time>2016-05-03T18:01:55Z</time>
      </trkpt>
      <trkpt lat="59.254463981821" lon="18.049205268672">
        <ele>11.8</ele>
        <time>2016-05-03T18:01:56Z</time>
      </trkpt>
      <trkpt lat="59.254420312122" lon="18.049149696675">
        <ele>10.8</ele>
        <time>2016-05-03T18:01:57Z</time>
      </trkpt>
      <trkpt lat="59.254387371255" lon="18.049072499376">
        <ele>10</ele>
        <time>2016-05-03T18:01:58Z</time>
      </trkpt>
      <trkpt lat="59.254356274406" lon="18.048986249625">
        <ele>9.4</ele>
        <time>2016-05-03T18:01:59Z</time>
      </trkpt>
      <trkpt lat="59.254326015747" lon="18.048897150028">
        <ele>8.8</ele>
        <time>2016-05-03T18:02:00Z</time>
      </trkpt>
      <trkpt lat="59.254318304399" lon="18.048819198358">
        <ele>8.2</ele>
        <time>2016-05-03T18:02:01Z</time>
      </trkpt>
      <trkpt lat="59.254296762916" lon="18.048720040481">
        <ele>7.6</ele>
        <time>2016-05-03T18:02:02Z</time>
      </trkpt>
      <trkpt lat="59.25425619452" lon="18.048626498477">
        <ele>7</ele>
        <time>2016-05-03T18:02:03Z</time>
      </trkpt>
      <trkpt lat="59.254183691085" lon="18.048496998122">
        <ele>7</ele>
        <time>2016-05-03T18:02:05Z</time>
      </trkpt>
      <trkpt lat="59.254105236501" lon="18.04852566422">
        <ele>7</ele>
        <time>2016-05-03T18:02:07Z</time>
      </trkpt>
      <trkpt lat="59.254003983149" lon="18.048476965381">
        <ele>7</ele>
        <time>2016-05-03T18:02:11Z</time>
      </trkpt>
      <trkpt lat="59.253989817738" lon="18.048482245978">
        <ele>7</ele>
        <time>2016-05-03T18:02:12Z</time>
      </trkpt>
      <trkpt lat="59.253950758084" lon="18.048367916862">
        <ele>7</ele>
        <time>2016-05-03T18:02:15Z</time>
      </trkpt>
      <trkpt lat="59.253894347897" lon="18.048208996038">
        <ele>7</ele>
        <time>2016-05-03T18:02:19Z</time>
      </trkpt>
      <trkpt lat="59.253809187793" lon="18.048257359601">
        <ele>7</ele>
        <time>2016-05-03T18:02:21Z</time>
      </trkpt>
      <trkpt lat="59.253672479004" lon="18.048293904685">
        <ele>7</ele>
        <time>2016-05-03T18:02:25Z</time>
      </trkpt>
      <trkpt lat="59.253719920558" lon="18.048310333209">
        <ele>7</ele>
        <time>2016-05-03T18:02:28Z</time>
      </trkpt>
      <trkpt lat="59.25375076595" lon="18.048290216649">
        <ele>7</ele>
        <time>2016-05-03T18:02:29Z</time>
      </trkpt>
      <trkpt lat="59.253862161401" lon="18.048224334915">
        <ele>7</ele>
        <time>2016-05-03T18:02:32Z</time>
      </trkpt>
      <trkpt lat="59.253982190209" lon="18.04815769881">
        <ele>7</ele>
        <time>2016-05-03T18:02:35Z</time>
      </trkpt>
      <trkpt lat="59.254047317572" lon="18.048027863179">
        <ele>7</ele>
        <time>2016-05-03T18:02:37Z</time>
      </trkpt>
      <trkpt lat="59.254020830768" lon="18.047844131931">
        <ele>7</ele>
        <time>2016-05-03T18:02:39Z</time>
      </trkpt>
      <trkpt lat="59.254006497719" lon="18.047740699285">
        <ele>7</ele>
        <time>2016-05-03T18:02:40Z</time>
      </trkpt>
      <trkpt lat="59.253984537141" lon="18.047641709046">
        <ele>7</ele>
        <time>2016-05-03T18:02:41Z</time>
      </trkpt>
      <trkpt lat="59.253897030105" lon="18.047363849061">
        <ele>7</ele>
        <time>2016-05-03T18:02:44Z</time>
      </trkpt>
      <trkpt lat="59.253822598833" lon="18.047205347332">
        <ele>7</ele>
        <time>2016-05-03T18:02:46Z</time>
      </trkpt>
      <trkpt lat="59.253773816175" lon="18.047130748422">
        <ele>7</ele>
        <time>2016-05-03T18:02:47Z</time>
      </trkpt>
      <trkpt lat="59.25371975292" lon="18.047053215847">
        <ele>7</ele>
        <time>2016-05-03T18:02:48Z</time>
      </trkpt>
      <trkpt lat="59.253663342733" lon="18.046961182585">
        <ele>6.6</ele>
        <time>2016-05-03T18:02:49Z</time>
      </trkpt>
      <trkpt lat="59.253596790447" lon="18.046870658065">
        <ele>6</ele>
        <time>2016-05-03T18:02:50Z</time>
      </trkpt>
      <trkpt lat="59.253526633944" lon="18.046785414142">
        <ele>5.6</ele>
        <time>2016-05-03T18:02:51Z</time>
      </trkpt>
      <trkpt lat="59.253467709187" lon="18.046705031721">
        <ele>5.2</ele>
        <time>2016-05-03T18:02:52Z</time>
      </trkpt>
      <trkpt lat="59.253409538801" lon="18.04661123826">
        <ele>4.8</ele>
        <time>2016-05-03T18:02:53Z</time>
      </trkpt>
      <trkpt lat="59.253308285449" lon="18.046424740985">
        <ele>4.8</ele>
        <time>2016-05-03T18:02:55Z</time>
      </trkpt>
      <trkpt lat="59.253265789216" lon="18.04629272606">
        <ele>4.8</ele>
        <time>2016-05-03T18:02:56Z</time>
      </trkpt>
      <trkpt lat="59.253188591917" lon="18.045772461527">
        <ele>4.8</ele>
        <time>2016-05-03T18:02:59Z</time>
      </trkpt>
      <trkpt lat="59.253185658252" lon="18.045472640964">
        <ele>4.8</ele>
        <time>2016-05-03T18:03:01Z</time>
      </trkpt>
      <trkpt lat="59.253225639915" lon="18.045357389839">
        <ele>4.8</ele>
        <time>2016-05-03T18:03:02Z</time>
      </trkpt>
      <trkpt lat="59.253416579597" lon="18.045105765201">
        <ele>4.8</ele>
        <time>2016-05-03T18:03:05Z</time>
      </trkpt>
      <trkpt lat="59.25349930895" lon="18.045043487684">
        <ele>4.8</ele>
        <time>2016-05-03T18:03:06Z</time>
      </trkpt>
      <trkpt lat="59.253876997364" lon="18.044691950798">
        <ele>4.8</ele>
        <time>2016-05-03T18:03:11Z</time>
      </trkpt>
      <trkpt lat="59.253976658155" lon="18.044263048975">
        <ele>4.8</ele>
        <time>2016-05-03T18:03:14Z</time>
      </trkpt>
      <trkpt lat="59.25391924214" lon="18.043752088351">
        <ele>4.4</ele>
        <time>2016-05-03T18:03:17Z</time>
      </trkpt>
      <trkpt lat="59.25389074368" lon="18.043573218605">
        <ele>4</ele>
        <time>2016-05-03T18:03:18Z</time>
      </trkpt>
      <trkpt lat="59.2538639216" lon="18.043403820406">
        <ele>3.6</ele>
        <time>2016-05-03T18:03:19Z</time>
      </trkpt>
      <trkpt lat="59.253838608262" lon="18.043234841302">
        <ele>3.2</ele>
        <time>2016-05-03T18:03:20Z</time>
      </trkpt>
      <trkpt lat="59.253813462562" lon="18.043055971556">
        <ele>2.6</ele>
        <time>2016-05-03T18:03:21Z</time>
      </trkpt>
      <trkpt lat="59.25378261717" lon="18.042716839882">
        <ele>2.6</ele>
        <time>2016-05-03T18:03:23Z</time>
      </trkpt>
      <trkpt lat="59.253680525628" lon="18.041903544125">
        <ele>2.6</ele>
        <time>2016-05-03T18:03:28Z</time>
      </trkpt>
      <trkpt lat="59.253659319421" lon="18.041753340477">
        <ele>3</ele>
        <time>2016-05-03T18:03:29Z</time>
      </trkpt>
      <trkpt lat="59.253648087675" lon="18.041620403543">
        <ele>3.6</ele>
        <time>2016-05-03T18:03:30Z</time>
      </trkpt>
      <trkpt lat="59.253632664979" lon="18.041498195441">
        <ele>4</ele>
        <time>2016-05-03T18:03:31Z</time>
      </trkpt>
      <trkpt lat="59.253612045505" lon="18.041381267936">
        <ele>4.4</ele>
        <time>2016-05-03T18:03:32Z</time>
      </trkpt>
      <trkpt lat="59.253587570357" lon="18.041267525553">
        <ele>4.8</ele>
        <time>2016-05-03T18:03:33Z</time>
      </trkpt>
      <trkpt lat="59.253524706107" lon="18.041066192315">
        <ele>5.2</ele>
        <time>2016-05-03T18:03:35Z</time>
      </trkpt>
      <trkpt lat="59.253491262326" lon="18.040976170709">
        <ele>5.6</ele>
        <time>2016-05-03T18:03:36Z</time>
      </trkpt>
      <trkpt lat="59.253457734726" lon="18.040891764976">
        <ele>6</ele>
        <time>2016-05-03T18:03:37Z</time>
      </trkpt>
      <trkpt lat="59.253420686728" lon="18.040794954031">
        <ele>6.4</ele>
        <time>2016-05-03T18:03:38Z</time>
      </trkpt>
      <trkpt lat="59.253385650386" lon="18.040706105891">
        <ele>6.8</ele>
        <time>2016-05-03T18:03:39Z</time>
      </trkpt>
      <trkpt lat="59.253286241052" lon="18.040496474572">
        <ele>6.8</ele>
        <time>2016-05-03T18:03:42Z</time>
      </trkpt>
      <trkpt lat="59.253245924113" lon="18.040446266991">
        <ele>7.2</ele>
        <time>2016-05-03T18:03:43Z</time>
      </trkpt>
      <trkpt lat="59.253203344061" lon="18.040375020841">
        <ele>7.8</ele>
        <time>2016-05-03T18:03:44Z</time>
      </trkpt>
      <trkpt lat="59.253162440389" lon="18.040320119396">
        <ele>8.2</ele>
        <time>2016-05-03T18:03:45Z</time>
      </trkpt>
      <trkpt lat="59.25312379983" lon="18.040283406674">
        <ele>8.6</ele>
        <time>2016-05-03T18:03:46Z</time>
      </trkpt>
      <trkpt lat="59.253081974149" lon="18.040242586821">
        <ele>9</ele>
        <time>2016-05-03T18:03:47Z</time>
      </trkpt>
      <trkpt lat="59.252977703313" lon="18.040135130863">
        <ele>9.4</ele>
        <time>2016-05-03T18:03:50Z</time>
      </trkpt>
      <trkpt lat="59.25293269251" lon="18.040094394829">
        <ele>9.8</ele>
        <time>2016-05-03T18:03:51Z</time>
      </trkpt>
      <trkpt lat="59.252885250956" lon="18.040040080117">
        <ele>10.2</ele>
        <time>2016-05-03T18:03:52Z</time>
      </trkpt>
      <trkpt lat="59.252840659248" lon="18.039989285803">
        <ele>11</ele>
        <time>2016-05-03T18:03:53Z</time>
      </trkpt>
      <trkpt lat="59.252543017979" lon="18.039704301203">
        <ele>11</ele>
        <time>2016-05-03T18:03:59Z</time>
      </trkpt>
      <trkpt lat="59.252268426935" lon="18.039495424255">
        <ele>11</ele>
        <time>2016-05-03T18:04:04Z</time>
      </trkpt>
      <trkpt lat="59.252221823571" lon="18.039443791751">
        <ele>11</ele>
        <time>2016-05-03T18:04:05Z</time>
      </trkpt>
      <trkpt lat="59.252145883557" lon="18.039326109875">
        <ele>11</ele>
        <time>2016-05-03T18:04:07Z</time>
      </trkpt>
      <trkpt lat="59.252120067305" lon="18.039230807672">
        <ele>11</ele>
        <time>2016-05-03T18:04:08Z</time>
      </trkpt>
      <trkpt lat="59.252040271617" lon="18.039120920963">
        <ele>11</ele>
        <time>2016-05-03T18:04:11Z</time>
      </trkpt>
      <trkpt lat="59.252042786187" lon="18.039026959864">
        <ele>11</ele>
        <time>2016-05-03T18:04:14Z</time>
      </trkpt>
      <trkpt lat="59.252003894171" lon="18.038867033212">
        <ele>11</ele>
        <time>2016-05-03T18:04:17Z</time>
      </trkpt>
      <trkpt lat="59.251945891423" lon="18.038666454345">
        <ele>11</ele>
        <time>2016-05-03T18:04:19Z</time>
      </trkpt>
      <trkpt lat="59.251915548945" lon="18.03855371779">
        <ele>11</ele>
        <time>2016-05-03T18:04:20Z</time>
      </trkpt>
      <trkpt lat="59.251702900142" lon="18.037993387775">
        <ele>11</ele>
        <time>2016-05-03T18:04:25Z</time>
      </trkpt>
      <trkpt lat="59.251648417792" lon="18.037885177446">
        <ele>10.6</ele>
        <time>2016-05-03T18:04:26Z</time>
      </trkpt>
      <trkpt lat="59.251591839967" lon="18.037767076475">
        <ele>10</ele>
        <time>2016-05-03T18:04:27Z</time>
      </trkpt>
      <trkpt lat="59.251536519427" lon="18.037645455106">
        <ele>9.6</ele>
        <time>2016-05-03T18:04:28Z</time>
      </trkpt>
      <trkpt lat="59.251487904407" lon="18.03750598029">
        <ele>9.2</ele>
        <time>2016-05-03T18:04:29Z</time>
      </trkpt>
      <trkpt lat="59.251428560555" lon="18.037399027246">
        <ele>8.6</ele>
        <time>2016-05-03T18:04:30Z</time>
      </trkpt>
      <trkpt lat="59.251153466597" lon="18.036878511256">
        <ele>8.2</ele>
        <time>2016-05-03T18:04:35Z</time>
      </trkpt>
      <trkpt lat="59.251099319523" lon="18.036771474393">
        <ele>7.6</ele>
        <time>2016-05-03T18:04:36Z</time>
      </trkpt>
      <trkpt lat="59.251048106114" lon="18.036655720354">
        <ele>7.2</ele>
        <time>2016-05-03T18:04:37Z</time>
      </trkpt>
      <trkpt lat="59.250996725067" lon="18.036541977971">
        <ele>6.8</ele>
        <time>2016-05-03T18:04:38Z</time>
      </trkpt>
      <trkpt lat="59.250944086735" lon="18.036441227533">
        <ele>6.2</ele>
        <time>2016-05-03T18:04:39Z</time>
      </trkpt>
      <trkpt lat="59.250856998794" lon="18.036204103582">
        <ele>6.2</ele>
        <time>2016-05-03T18:04:41Z</time>
      </trkpt>
      <trkpt lat="59.250814083466" lon="18.0360802191">
        <ele>6.2</ele>
        <time>2016-05-03T18:04:42Z</time>
      </trkpt>
      <trkpt lat="59.250624149612" lon="18.035541933482">
        <ele>5.8</ele>
        <time>2016-05-03T18:04:46Z</time>
      </trkpt>
      <trkpt lat="59.250575450773" lon="18.035412936041">
        <ele>5.4</ele>
        <time>2016-05-03T18:04:47Z</time>
      </trkpt>
      <trkpt lat="59.25052205807" lon="18.035290979396">
        <ele>4.8</ele>
        <time>2016-05-03T18:04:48Z</time>
      </trkpt>
      <trkpt lat="59.250472521041" lon="18.035178075203">
        <ele>4.4</ele>
        <time>2016-05-03T18:04:49Z</time>
      </trkpt>
      <trkpt lat="59.25042147527" lon="18.035077492403">
        <ele>4</ele>
        <time>2016-05-03T18:04:50Z</time>
      </trkpt>
      <trkpt lat="59.250376296829" lon="18.034951680084">
        <ele>4</ele>
        <time>2016-05-03T18:04:51Z</time>
      </trkpt>
      <trkpt lat="59.250349642387" lon="18.034828466154">
        <ele>4</ele>
        <time>2016-05-03T18:04:52Z</time>
      </trkpt>
      <trkpt lat="59.250373446983" lon="18.03460249013">
        <ele>4</ele>
        <time>2016-05-03T18:04:54Z</time>
      </trkpt>
      <trkpt lat="59.25039297681" lon="18.034468128273">
        <ele>4</ele>
        <time>2016-05-03T18:04:55Z</time>
      </trkpt>
      <trkpt lat="59.250474448878" lon="18.034070155661">
        <ele>4</ele>
        <time>2016-05-03T18:04:58Z</time>
      </trkpt>
      <trkpt lat="59.250557345869" lon="18.03336699807">
        <ele>4</ele>
        <time>2016-05-03T18:05:03Z</time>
      </trkpt>
      <trkpt lat="59.250603865414" lon="18.032953435124">
        <ele>4</ele>
        <time>2016-05-03T18:05:06Z</time>
      </trkpt>
      <trkpt lat="59.25065281571" lon="18.032499136144">
        <ele>4</ele>
        <time>2016-05-03T18:05:09Z</time>
      </trkpt>
      <trkpt lat="59.250819028787" lon="18.0314534103">
        <ele>4</ele>
        <time>2016-05-03T18:05:16Z</time>
      </trkpt>
      <trkpt lat="59.250869823101" lon="18.030771458916">
        <ele>4</ele>
        <time>2016-05-03T18:05:20Z</time>
      </trkpt>
      <trkpt lat="59.250870326015" lon="18.030627709331">
        <ele>4</ele>
        <time>2016-05-03T18:05:21Z</time>
      </trkpt>
      <trkpt lat="59.250861273563" lon="18.030118341268">
        <ele>4</ele>
        <time>2016-05-03T18:05:25Z</time>
      </trkpt>
      <trkpt lat="59.250823890289" lon="18.029567901895">
        <ele>4</ele>
        <time>2016-05-03T18:05:29Z</time>
      </trkpt>
      <trkpt lat="59.250825985764" lon="18.029294651955">
        <ele>4</ele>
        <time>2016-05-03T18:05:31Z</time>
      </trkpt>
      <trkpt lat="59.250842330469" lon="18.029177389174">
        <ele>4</ele>
        <time>2016-05-03T18:05:32Z</time>
      </trkpt>
      <trkpt lat="59.250866637979" lon="18.028953005711">
        <ele>4</ele>
        <time>2016-05-03T18:05:34Z</time>
      </trkpt>
      <trkpt lat="59.250860016278" lon="18.028682018884">
        <ele>4</ele>
        <time>2016-05-03T18:05:36Z</time>
      </trkpt>
      <trkpt lat="59.250879210829" lon="18.028568611777">
        <ele>4</ele>
        <time>2016-05-03T18:05:37Z</time>
      </trkpt>
      <trkpt lat="59.250884910521" lon="18.028353699861">
        <ele>4</ele>
        <time>2016-05-03T18:05:39Z</time>
      </trkpt>
      <trkpt lat="59.250855154776" lon="18.028173237554">
        <ele>4</ele>
        <time>2016-05-03T18:05:41Z</time>
      </trkpt>
      <trkpt lat="59.250863536676" lon="18.027762189178">
        <ele>4</ele>
        <time>2016-05-03T18:05:44Z</time>
      </trkpt>
      <trkpt lat="59.250843755392" lon="18.027516012775">
        <ele>4</ele>
        <time>2016-05-03T18:05:47Z</time>
      </trkpt>
      <trkpt lat="59.250757505641" lon="18.027218120049">
        <ele>4</ele>
        <time>2016-05-03T18:05:50Z</time>
      </trkpt>
      <trkpt lat="59.250658347764" lon="18.027066659116">
        <ele>4</ele>
        <time>2016-05-03T18:05:52Z</time>
      </trkpt>
      <trkpt lat="59.250607637269" lon="18.026993904224">
        <ele>4</ele>
        <time>2016-05-03T18:05:53Z</time>
      </trkpt>
      <trkpt lat="59.250384846367" lon="18.02662208314">
        <ele>4</ele>
        <time>2016-05-03T18:05:58Z</time>
      </trkpt>
      <trkpt lat="59.250286191404" lon="18.026501886694">
        <ele>4</ele>
        <time>2016-05-03T18:06:00Z</time>
      </trkpt>
      <trkpt lat="59.250184518957" lon="18.026617473095">
        <ele>4</ele>
        <time>2016-05-03T18:06:02Z</time>
      </trkpt>
      <trkpt lat="59.250101957242" lon="18.026942355539">
        <ele>4</ele>
        <time>2016-05-03T18:06:05Z</time>
      </trkpt>
      <trkpt lat="59.249994166008" lon="18.02730604618">
        <ele>4</ele>
        <time>2016-05-03T18:06:08Z</time>
      </trkpt>
      <trkpt lat="59.249902468022" lon="18.027521125734">
        <ele>4</ele>
        <time>2016-05-03T18:06:10Z</time>
      </trkpt>
      <trkpt lat="59.249647490624" lon="18.027928150798">
        <ele>4</ele>
        <time>2016-05-03T18:06:15Z</time>
      </trkpt>
      <trkpt lat="59.249346664233" lon="18.028416480292">
        <ele>4</ele>
        <time>2016-05-03T18:06:21Z</time>
      </trkpt>
      <trkpt lat="59.249332415003" lon="18.028576658401">
        <ele>3.4</ele>
        <time>2016-05-03T18:06:22Z</time>
      </trkpt>
      <trkpt lat="59.249333588469" lon="18.028733902845">
        <ele>3</ele>
        <time>2016-05-03T18:06:23Z</time>
      </trkpt>
      <trkpt lat="59.249333337012" lon="18.028887207796">
        <ele>2.6</ele>
        <time>2016-05-03T18:06:24Z</time>
      </trkpt>
      <trkpt lat="59.249336773591" lon="18.029038249634">
        <ele>2.2</ele>
        <time>2016-05-03T18:06:25Z</time>
      </trkpt>
      <trkpt lat="59.249334594297" lon="18.029184346151">
        <ele>1.8</ele>
        <time>2016-05-03T18:06:26Z</time>
      </trkpt>
      <trkpt lat="59.249339874894" lon="18.029654403103">
        <ele>1.8</ele>
        <time>2016-05-03T18:06:29Z</time>
      </trkpt>
      <trkpt lat="59.249314393918" lon="18.02994969744">
        <ele>1.8</ele>
        <time>2016-05-03T18:06:31Z</time>
      </trkpt>
      <trkpt lat="59.249238118628" lon="18.030185647925">
        <ele>1.8</ele>
        <time>2016-05-03T18:06:33Z</time>
      </trkpt>
      <trkpt lat="59.249028738766" lon="18.030939935106">
        <ele>1.8</ele>
        <time>2016-05-03T18:06:39Z</time>
      </trkpt>
      <trkpt lat="59.248834278686" lon="18.031761445125">
        <ele>1.8</ele>
        <time>2016-05-03T18:06:45Z</time>
      </trkpt>
      <trkpt lat="59.248799745258" lon="18.032199483219">
        <ele>1.8</ele>
        <time>2016-05-03T18:06:48Z</time>
      </trkpt>
      <trkpt lat="59.248785831304" lon="18.03233937713">
        <ele>1.8</ele>
        <time>2016-05-03T18:06:49Z</time>
      </trkpt>
      <trkpt lat="59.248648368144" lon="18.032652441095">
        <ele>1.8</ele>
        <time>2016-05-03T18:06:52Z</time>
      </trkpt>
      <trkpt lat="59.248421470111" lon="18.032750006411">
        <ele>1.8</ele>
        <time>2016-05-03T18:06:56Z</time>
      </trkpt>
      <trkpt lat="59.248336142369" lon="18.032605670093">
        <ele>2.2</ele>
        <time>2016-05-03T18:06:58Z</time>
      </trkpt>
      <trkpt lat="59.248289036091" lon="18.032545152775">
        <ele>2.6</ele>
        <time>2016-05-03T18:06:59Z</time>
      </trkpt>
      <trkpt lat="59.248220975063" lon="18.032507937139">
        <ele>3</ele>
        <time>2016-05-03T18:07:00Z</time>
      </trkpt>
      <trkpt lat="59.24815417132" lon="18.032467117286">
        <ele>3.4</ele>
        <time>2016-05-03T18:07:01Z</time>
      </trkpt>
      <trkpt lat="59.248083930998" lon="18.032437026265">
        <ele>4</ele>
        <time>2016-05-03T18:07:02Z</time>
      </trkpt>
      <trkpt lat="59.247922411785" lon="18.032391847824">
        <ele>4</ele>
        <time>2016-05-03T18:07:04Z</time>
      </trkpt>
      <trkpt lat="59.247804394633" lon="18.032481366516">
        <ele>4</ele>
        <time>2016-05-03T18:07:06Z</time>
      </trkpt>
      <trkpt lat="59.247674223726" lon="18.032563844412">
        <ele>4</ele>
        <time>2016-05-03T18:07:08Z</time>
      </trkpt>
      <trkpt lat="59.247456210507" lon="18.032774313921">
        <ele>4</ele>
        <time>2016-05-03T18:07:12Z</time>
      </trkpt>
      <trkpt lat="59.247404326546" lon="18.032827287529">
        <ele>4</ele>
        <time>2016-05-03T18:07:13Z</time>
      </trkpt>
      <trkpt lat="59.247320088451" lon="18.032828293357">
        <ele>4.4</ele>
        <time>2016-05-03T18:07:15Z</time>
      </trkpt>
      <trkpt lat="59.247279352417" lon="18.032749335859">
        <ele>4.8</ele>
        <time>2016-05-03T18:07:16Z</time>
      </trkpt>
      <trkpt lat="59.247228222827" lon="18.032630061422">
        <ele>5.2</ele>
        <time>2016-05-03T18:07:17Z</time>
      </trkpt>
      <trkpt lat="59.247190504277" lon="18.032547415888">
        <ele>5.6</ele>
        <time>2016-05-03T18:07:18Z</time>
      </trkpt>
      <trkpt lat="59.247142224533" lon="18.032444402337">
        <ele>5.2</ele>
        <time>2016-05-03T18:07:19Z</time>
      </trkpt>
      <trkpt lat="59.247090172934" lon="18.032342562252">
        <ele>4.8</ele>
        <time>2016-05-03T18:07:20Z</time>
      </trkpt>
      <trkpt lat="59.247042396104" lon="18.032252959741">
        <ele>4.4</ele>
        <time>2016-05-03T18:07:21Z</time>
      </trkpt>
      <trkpt lat="59.246985650641" lon="18.032161177936">
        <ele>4</ele>
        <time>2016-05-03T18:07:22Z</time>
      </trkpt>
      <trkpt lat="59.246933263766" lon="18.032083561542">
        <ele>3.6</ele>
        <time>2016-05-03T18:07:23Z</time>
      </trkpt>
      <trkpt lat="59.246875847751" lon="18.03200913027">
        <ele>3.6</ele>
        <time>2016-05-03T18:07:24Z</time>
      </trkpt>
      <trkpt lat="59.246458010036" lon="18.031469838824">
        <ele>3.6</ele>
        <time>2016-05-03T18:07:31Z</time>
      </trkpt>
      <trkpt lat="59.246008237282" lon="18.030850248776">
        <ele>3.6</ele>
        <time>2016-05-03T18:07:39Z</time>
      </trkpt>
      <trkpt lat="59.24569408367" lon="18.030292684788">
        <ele>3.6</ele>
        <time>2016-05-03T18:07:45Z</time>
      </trkpt>
      <trkpt lat="59.245427623069" lon="18.029881049679">
        <ele>3.6</ele>
        <time>2016-05-03T18:07:50Z</time>
      </trkpt>
      <trkpt lat="59.245233330627" lon="18.029578966003">
        <ele>4</ele>
        <time>2016-05-03T18:07:54Z</time>
      </trkpt>
      <trkpt lat="59.245196114991" lon="18.029510821156">
        <ele>4.4</ele>
        <time>2016-05-03T18:07:55Z</time>
      </trkpt>
      <trkpt lat="59.245152361473" lon="18.02944426887">
        <ele>4.8</ele>
        <time>2016-05-03T18:07:56Z</time>
      </trkpt>
      <trkpt lat="59.245110368154" lon="18.029380231154">
        <ele>5.2</ele>
        <time>2016-05-03T18:07:57Z</time>
      </trkpt>
      <trkpt lat="59.245069799758" lon="18.029316193438">
        <ele>5.6</ele>
        <time>2016-05-03T18:07:58Z</time>
      </trkpt>
      <trkpt lat="59.244998721246" lon="18.029186441626">
        <ele>6</ele>
        <time>2016-05-03T18:08:00Z</time>
      </trkpt>
      <trkpt lat="59.244974413736" lon="18.029122655367">
        <ele>6.4</ele>
        <time>2016-05-03T18:08:01Z</time>
      </trkpt>
      <trkpt lat="59.244950190045" lon="18.029060713126">
        <ele>7</ele>
        <time>2016-05-03T18:08:02Z</time>
      </trkpt>
      <trkpt lat="59.24491540516" lon="18.029009583536">
        <ele>7.4</ele>
        <time>2016-05-03T18:08:03Z</time>
      </trkpt>
      <trkpt lat="59.244878943895" lon="18.028946132553">
        <ele>7.8</ele>
        <time>2016-05-03T18:08:04Z</time>
      </trkpt>
      <trkpt lat="59.244845500114" lon="18.028865833951">
        <ele>7.8</ele>
        <time>2016-05-03T18:08:05Z</time>
      </trkpt>
      <trkpt lat="59.244811553419" lon="18.028773800689">
        <ele>7.8</ele>
        <time>2016-05-03T18:08:06Z</time>
      </trkpt>
      <trkpt lat="59.244709880972" lon="18.028509603201">
        <ele>7.8</ele>
        <time>2016-05-03T18:08:09Z</time>
      </trkpt>
      <trkpt lat="59.244487592984" lon="18.027881547434">
        <ele>8.2</ele>
        <time>2016-05-03T18:08:15Z</time>
      </trkpt>
      <trkpt lat="59.24445356247" lon="18.027768056508">
        <ele>8.6</ele>
        <time>2016-05-03T18:08:16Z</time>
      </trkpt>
      <trkpt lat="59.244422381802" lon="18.027652721564">
        <ele>9</ele>
        <time>2016-05-03T18:08:17Z</time>
      </trkpt>
      <trkpt lat="59.244395392084" lon="18.027540823199">
        <ele>9.4</ele>
        <time>2016-05-03T18:08:18Z</time>
      </trkpt>
      <trkpt lat="59.244365384882" lon="18.027422219314">
        <ele>9.8</ele>
        <time>2016-05-03T18:08:19Z</time>
      </trkpt>
      <trkpt lat="59.244289025773" lon="18.027076885034">
        <ele>9.8</ele>
        <time>2016-05-03T18:08:22Z</time>
      </trkpt>
      <trkpt lat="59.244148545129" lon="18.026418319151">
        <ele>10.2</ele>
        <time>2016-05-03T18:08:28Z</time>
      </trkpt>
      <trkpt lat="59.244124489076" lon="18.026315557057">
        <ele>10.6</ele>
        <time>2016-05-03T18:08:29Z</time>
      </trkpt>
      <trkpt lat="59.244097583177" lon="18.026202904321">
        <ele>11</ele>
        <time>2016-05-03T18:08:30Z</time>
      </trkpt>
      <trkpt lat="59.244072437477" lon="18.026089581033">
        <ele>11.6</ele>
        <time>2016-05-03T18:08:31Z</time>
      </trkpt>
      <trkpt lat="59.244041424447" lon="18.025971312424">
        <ele>12</ele>
        <time>2016-05-03T18:08:32Z</time>
      </trkpt>
      <trkpt lat="59.243967999003" lon="18.025602592643">
        <ele>12</ele>
        <time>2016-05-03T18:08:35Z</time>
      </trkpt>
      <trkpt lat="59.243861967968" lon="18.025210487361">
        <ele>11.4</ele>
        <time>2016-05-03T18:08:38Z</time>
      </trkpt>
      <trkpt lat="59.243823662685" lon="18.025072186011">
        <ele>11</ele>
        <time>2016-05-03T18:08:39Z</time>
      </trkpt>
      <trkpt lat="59.243787452877" lon="18.024937153602">
        <ele>10.6</ele>
        <time>2016-05-03T18:08:40Z</time>
      </trkpt>
      <trkpt lat="59.243753087087" lon="18.024803462297">
        <ele>10.2</ele>
        <time>2016-05-03T18:08:41Z</time>
      </trkpt>
      <trkpt lat="59.243725845912" lon="18.024664238938">
        <ele>9.8</ele>
        <time>2016-05-03T18:08:42Z</time>
      </trkpt>
      <trkpt lat="59.243707070456" lon="18.024537169334">
        <ele>9.2</ele>
        <time>2016-05-03T18:08:43Z</time>
      </trkpt>
      <trkpt lat="59.243678655815" lon="18.024378080872">
        <ele>8.8</ele>
        <time>2016-05-03T18:08:44Z</time>
      </trkpt>
      <trkpt lat="59.243654348305" lon="18.024219998238">
        <ele>8.4</ele>
        <time>2016-05-03T18:08:45Z</time>
      </trkpt>
      <trkpt lat="59.243629118786" lon="18.024056299731">
        <ele>8</ele>
        <time>2016-05-03T18:08:46Z</time>
      </trkpt>
      <trkpt lat="59.243605649466" lon="18.023888074998">
        <ele>7.6</ele>
        <time>2016-05-03T18:08:47Z</time>
      </trkpt>
      <trkpt lat="59.243588969485" lon="18.023718341523">
        <ele>7.6</ele>
        <time>2016-05-03T18:08:48Z</time>
      </trkpt>
      <trkpt lat="59.243579497938" lon="18.023552882817">
        <ele>6.6</ele>
        <time>2016-05-03T18:08:49Z</time>
      </trkpt>
      <trkpt lat="59.243568266192" lon="18.023389603405">
        <ele>6.2</ele>
        <time>2016-05-03T18:08:50Z</time>
      </trkpt>
      <trkpt lat="59.243545132148" lon="18.023230012029">
        <ele>5.8</ele>
        <time>2016-05-03T18:08:51Z</time>
      </trkpt>
      <trkpt lat="59.24353658261" lon="18.023092800326">
        <ele>5.4</ele>
        <time>2016-05-03T18:08:52Z</time>
      </trkpt>
      <trkpt lat="59.243527278701" lon="18.022988780947">
        <ele>5.4</ele>
        <time>2016-05-03T18:08:53Z</time>
      </trkpt>
      <trkpt lat="59.243521327552" lon="18.022752579005">
        <ele>5.4</ele>
        <time>2016-05-03T18:08:56Z</time>
      </trkpt>
      <trkpt lat="59.243536834067" lon="18.022661970666">
        <ele>5.4</ele>
        <time>2016-05-03T18:08:58Z</time>
      </trkpt>
      <trkpt lat="59.243546724709" lon="18.022530291017">
        <ele>5.4</ele>
        <time>2016-05-03T18:09:00Z</time>
      </trkpt>
      <trkpt lat="59.243533481307" lon="18.022354941669">
        <ele>5.4</ele>
        <time>2016-05-03T18:09:02Z</time>
      </trkpt>
      <trkpt lat="59.243425522435" lon="18.022093007294">
        <ele>5.4</ele>
        <time>2016-05-03T18:09:05Z</time>
      </trkpt>
      <trkpt lat="59.243344050367" lon="18.021891757875">
        <ele>5.4</ele>
        <time>2016-05-03T18:09:07Z</time>
      </trkpt>
      <trkpt lat="59.243287556361" lon="18.021660752711">
        <ele>5.4</ele>
        <time>2016-05-03T18:09:09Z</time>
      </trkpt>
      <trkpt lat="59.243208431225" lon="18.021292787301">
        <ele>5.4</ele>
        <time>2016-05-03T18:09:13Z</time>
      </trkpt>
      <trkpt lat="59.24312754589" lon="18.020894982327">
        <ele>5.4</ele>
        <time>2016-05-03T18:09:18Z</time>
      </trkpt>
      <trkpt lat="59.243002739399" lon="18.020363988962">
        <ele>5.4</ele>
        <time>2016-05-03T18:09:22Z</time>
      </trkpt>
      <trkpt lat="59.242838957073" lon="18.019503922203">
        <ele>5.4</ele>
        <time>2016-05-03T18:09:28Z</time>
      </trkpt>
      <trkpt lat="59.242637120921" lon="18.018525503016">
        <ele>5.4</ele>
        <time>2016-05-03T18:09:35Z</time>
      </trkpt>
      <trkpt lat="59.242483480694" lon="18.017823686529">
        <ele>5.4</ele>
        <time>2016-05-03T18:09:40Z</time>
      </trkpt>
      <trkpt lat="59.242329253734" lon="18.017102591672">
        <ele>5.4</ele>
        <time>2016-05-03T18:09:45Z</time>
      </trkpt>
      <trkpt lat="59.242150132531" lon="18.016221905439">
        <ele>5</ele>
        <time>2016-05-03T18:09:51Z</time>
      </trkpt>
      <trkpt lat="59.242125405926" lon="18.016069690135">
        <ele>4.6</ele>
        <time>2016-05-03T18:09:52Z</time>
      </trkpt>
      <trkpt lat="59.242107133384" lon="18.015921414324">
        <ele>4.2</ele>
        <time>2016-05-03T18:09:53Z</time>
      </trkpt>
      <trkpt lat="59.242089615213" lon="18.015775653083">
        <ele>3.8</ele>
        <time>2016-05-03T18:09:54Z</time>
      </trkpt>
      <trkpt lat="59.242068241368" lon="18.015626958177">
        <ele>3.4</ele>
        <time>2016-05-03T18:09:55Z</time>
      </trkpt>
      <trkpt lat="59.242005125661" lon="18.015191769929">
        <ele>3.4</ele>
        <time>2016-05-03T18:09:58Z</time>
      </trkpt>
      <trkpt lat="59.24195491808" lon="18.014887758416">
        <ele>3.4</ele>
        <time>2016-05-03T18:10:00Z</time>
      </trkpt>
      <trkpt lat="59.241909236725" lon="18.014410912125">
        <ele>3.4</ele>
        <time>2016-05-03T18:10:03Z</time>
      </trkpt>
      <trkpt lat="59.241880486808" lon="18.014076725772">
        <ele>3.4</ele>
        <time>2016-05-03T18:10:05Z</time>
      </trkpt>
      <trkpt lat="59.241853916185" lon="18.013724937429">
        <ele>3.4</ele>
        <time>2016-05-03T18:10:07Z</time>
      </trkpt>
      <trkpt lat="59.241832458521" lon="18.013416734966">
        <ele>3.8</ele>
        <time>2016-05-03T18:10:09Z</time>
      </trkpt>
      <trkpt lat="59.24182080768" lon="18.013280109996">
        <ele>4.2</ele>
        <time>2016-05-03T18:10:10Z</time>
      </trkpt>
      <trkpt lat="59.241807480459" lon="18.013150777279">
        <ele>4.6</ele>
        <time>2016-05-03T18:10:11Z</time>
      </trkpt>
      <trkpt lat="59.24179566198" lon="18.013027228073">
        <ele>5.2</ele>
        <time>2016-05-03T18:10:12Z</time>
      </trkpt>
      <trkpt lat="59.241788285908" lon="18.012914659156">
        <ele>5.8</ele>
        <time>2016-05-03T18:10:13Z</time>
      </trkpt>
      <trkpt lat="59.241781915664" lon="18.012804772447">
        <ele>6.6</ele>
        <time>2016-05-03T18:10:14Z</time>
      </trkpt>
      <trkpt lat="59.241774455773" lon="18.012691868254">
        <ele>7.2</ele>
        <time>2016-05-03T18:10:15Z</time>
      </trkpt>
      <trkpt lat="59.241764146036" lon="18.012572174722">
        <ele>8</ele>
        <time>2016-05-03T18:10:16Z</time>
      </trkpt>
      <trkpt lat="59.24175878162" lon="18.012444602204">
        <ele>8.6</ele>
        <time>2016-05-03T18:10:17Z</time>
      </trkpt>
      <trkpt lat="59.241758530163" lon="18.012311832908">
        <ele>9.4</ele>
        <time>2016-05-03T18:10:18Z</time>
      </trkpt>
      <trkpt lat="59.241759452172" lon="18.012177051956">
        <ele>10.2</ele>
        <time>2016-05-03T18:10:19Z</time>
      </trkpt>
      <trkpt lat="59.241763894579" lon="18.012035146389">
        <ele>10.2</ele>
        <time>2016-05-03T18:10:20Z</time>
      </trkpt>
      <trkpt lat="59.241798428007" lon="18.011374652669">
        <ele>10.2</ele>
        <time>2016-05-03T18:10:25Z</time>
      </trkpt>
      <trkpt lat="59.241821394413" lon="18.010564625853">
        <ele>10.2</ele>
        <time>2016-05-03T18:10:31Z</time>
      </trkpt>
      <trkpt lat="59.241837403842" lon="18.009772368665">
        <ele>10.2</ele>
        <time>2016-05-03T18:10:38Z</time>
      </trkpt>
      <trkpt lat="59.241829441037" lon="18.009577657128">
        <ele>10.2</ele>
        <time>2016-05-03T18:10:40Z</time>
      </trkpt>
      <trkpt lat="59.241825082449" lon="18.009453772646">
        <ele>10.2</ele>
        <time>2016-05-03T18:10:41Z</time>
      </trkpt>
      <trkpt lat="59.241841930068" lon="18.009036940759">
        <ele>10.2</ele>
        <time>2016-05-03T18:10:44Z</time>
      </trkpt>
      <trkpt lat="59.241846121018" lon="18.008894783735">
        <ele>10.2</ele>
        <time>2016-05-03T18:10:45Z</time>
      </trkpt>
      <trkpt lat="59.241848970864" lon="18.008602087787">
        <ele>9.6</ele>
        <time>2016-05-03T18:10:47Z</time>
      </trkpt>
      <trkpt lat="59.241848551769" lon="18.008452387053">
        <ele>9.2</ele>
        <time>2016-05-03T18:10:48Z</time>
      </trkpt>
      <trkpt lat="59.241846288656" lon="18.008300674663">
        <ele>8.8</ele>
        <time>2016-05-03T18:10:49Z</time>
      </trkpt>
      <trkpt lat="59.24184511519" lon="18.008140664192">
        <ele>8.2</ele>
        <time>2016-05-03T18:10:50Z</time>
      </trkpt>
      <trkpt lat="59.241846959208" lon="18.007991550191">
        <ele>7.8</ele>
        <time>2016-05-03T18:10:51Z</time>
      </trkpt>
      <trkpt lat="59.241849389959" lon="18.007841346543">
        <ele>7.8</ele>
        <time>2016-05-03T18:10:52Z</time>
      </trkpt>
      <trkpt lat="59.241868835967" lon="18.007025787673">
        <ele>7.2</ele>
        <time>2016-05-03T18:10:57Z</time>
      </trkpt>
      <trkpt lat="59.24187361365" lon="18.006856389474">
        <ele>6.8</ele>
        <time>2016-05-03T18:10:58Z</time>
      </trkpt>
      <trkpt lat="59.241873781288" lon="18.006693026243">
        <ele>6.2</ele>
        <time>2016-05-03T18:10:59Z</time>
      </trkpt>
      <trkpt lat="59.241870847623" lon="18.006546259174">
        <ele>5.6</ele>
        <time>2016-05-03T18:11:00Z</time>
      </trkpt>
      <trkpt lat="59.24187026089" lon="18.006426481823">
        <ele>5</ele>
        <time>2016-05-03T18:11:01Z</time>
      </trkpt>
      <trkpt lat="59.241871685813" lon="18.006334113285">
        <ele>5</ele>
        <time>2016-05-03T18:11:02Z</time>
      </trkpt>
      <trkpt lat="59.241861543714" lon="18.006099336266">
        <ele>5</ele>
        <time>2016-05-03T18:11:06Z</time>
      </trkpt>
      <trkpt lat="59.241888198156" lon="18.005890962232">
        <ele>5</ele>
        <time>2016-05-03T18:11:10Z</time>
      </trkpt>
      <trkpt lat="59.241886857052" lon="18.005803539015">
        <ele>5</ele>
        <time>2016-05-03T18:11:11Z</time>
      </trkpt>
      <trkpt lat="59.24185936442" lon="18.005498102579">
        <ele>5</ele>
        <time>2016-05-03T18:11:14Z</time>
      </trkpt>
      <trkpt lat="59.241874787116" lon="18.004774157876">
        <ele>5</ele>
        <time>2016-05-03T18:11:20Z</time>
      </trkpt>
      <trkpt lat="59.241883001378" lon="18.003842258234">
        <ele>5</ele>
        <time>2016-05-03T18:11:27Z</time>
      </trkpt>
      <trkpt lat="59.241890209812" lon="18.003172209148">
        <ele>5</ele>
        <time>2016-05-03T18:11:32Z</time>
      </trkpt>
      <trkpt lat="59.241899765178" lon="18.002919494863">
        <ele>5</ele>
        <time>2016-05-03T18:11:34Z</time>
      </trkpt>
      <trkpt lat="59.24190546487" lon="18.002797454399">
        <ele>5.6</ele>
        <time>2016-05-03T18:11:35Z</time>
      </trkpt>
      <trkpt lat="59.241914349684" lon="18.002670468614">
        <ele>6</ele>
        <time>2016-05-03T18:11:36Z</time>
      </trkpt>
      <trkpt lat="59.241926503439" lon="18.002541052078">
        <ele>6.4</ele>
        <time>2016-05-03T18:11:37Z</time>
      </trkpt>
      <trkpt lat="59.24193983066" lon="18.002420101261">
        <ele>6.8</ele>
        <time>2016-05-03T18:11:38Z</time>
      </trkpt>
      <trkpt lat="59.241953325519" lon="18.002302754661">
        <ele>7.2</ele>
        <time>2016-05-03T18:11:39Z</time>
      </trkpt>
      <trkpt lat="59.241967742387" lon="18.002184905147">
        <ele>7.2</ele>
        <time>2016-05-03T18:11:40Z</time>
      </trkpt>
      <trkpt lat="59.242044101496" lon="18.001479903538">
        <ele>7.6</ele>
        <time>2016-05-03T18:11:46Z</time>
      </trkpt>
      <trkpt lat="59.242057680174" lon="18.001368927182">
        <ele>8</ele>
        <time>2016-05-03T18:11:47Z</time>
      </trkpt>
      <trkpt lat="59.242071510309" lon="18.001256190627">
        <ele>8.6</ele>
        <time>2016-05-03T18:11:48Z</time>
      </trkpt>
      <trkpt lat="59.242082490598" lon="18.001141526235">
        <ele>9</ele>
        <time>2016-05-03T18:11:49Z</time>
      </trkpt>
      <trkpt lat="59.242093303249" lon="18.001027867671">
        <ele>9.4</ele>
        <time>2016-05-03T18:11:50Z</time>
      </trkpt>
      <trkpt lat="59.242131859989" lon="18.000684880323">
        <ele>9.4</ele>
        <time>2016-05-03T18:11:53Z</time>
      </trkpt>
      <trkpt lat="59.242219953758" lon="17.999876613706">
        <ele>9.8</ele>
        <time>2016-05-03T18:12:00Z</time>
      </trkpt>
      <trkpt lat="59.242234789721" lon="17.999773013422">
        <ele>10.2</ele>
        <time>2016-05-03T18:12:01Z</time>
      </trkpt>
      <trkpt lat="59.242248619856" lon="17.999682488902">
        <ele>10.6</ele>
        <time>2016-05-03T18:12:02Z</time>
      </trkpt>
      <trkpt lat="59.242255995928" lon="17.999592383477">
        <ele>11</ele>
        <time>2016-05-03T18:12:03Z</time>
      </trkpt>
      <trkpt lat="59.242261276525" lon="17.999501523681">
        <ele>11.4</ele>
        <time>2016-05-03T18:12:04Z</time>
      </trkpt>
      <trkpt lat="59.242259516326" lon="17.999401527614">
        <ele>11.4</ele>
        <time>2016-05-03T18:12:05Z</time>
      </trkpt>
      <trkpt lat="59.242231101685" lon="17.999180832187">
        <ele>11.4</ele>
        <time>2016-05-03T18:12:07Z</time>
      </trkpt>
      <trkpt lat="59.242052064301" lon="17.998295284452">
        <ele>11.4</ele>
        <time>2016-05-03T18:12:15Z</time>
      </trkpt>
      <trkpt lat="59.241917283349" lon="17.997675945861">
        <ele>11.4</ele>
        <time>2016-05-03T18:12:20Z</time>
      </trkpt>
      <trkpt lat="59.241884258663" lon="17.997540661995">
        <ele>11.4</ele>
        <time>2016-05-03T18:12:21Z</time>
      </trkpt>
      <trkpt lat="59.241737323956" lon="17.996999358893">
        <ele>11.4</ele>
        <time>2016-05-03T18:12:25Z</time>
      </trkpt>
      <trkpt lat="59.241703293442" lon="17.996864242665">
        <ele>11</ele>
        <time>2016-05-03T18:12:26Z</time>
      </trkpt>
      <trkpt lat="59.241665071978" lon="17.996722337098">
        <ele>10.6</ele>
        <time>2016-05-03T18:12:27Z</time>
      </trkpt>
      <trkpt lat="59.241626599057" lon="17.996576492038">
        <ele>10</ele>
        <time>2016-05-03T18:12:28Z</time>
      </trkpt>
      <trkpt lat="59.241590640706" lon="17.996424695829">
        <ele>9.6</ele>
        <time>2016-05-03T18:12:29Z</time>
      </trkpt>
      <trkpt lat="59.24155342507" lon="17.996265272091">
        <ele>9.2</ele>
        <time>2016-05-03T18:12:30Z</time>
      </trkpt>
      <trkpt lat="59.241518304909" lon="17.996111631864">
        <ele>8.4</ele>
        <time>2016-05-03T18:12:31Z</time>
      </trkpt>
      <trkpt lat="59.241496931064" lon="17.995957823999">
        <ele>8</ele>
        <time>2016-05-03T18:12:32Z</time>
      </trkpt>
      <trkpt lat="59.241496679607" lon="17.995807285075">
        <ele>7.6</ele>
        <time>2016-05-03T18:12:33Z</time>
      </trkpt>
      <trkpt lat="59.241515203606" lon="17.995673761408">
        <ele>7.2</ele>
        <time>2016-05-03T18:12:34Z</time>
      </trkpt>
      <trkpt lat="59.24157270344" lon="17.995439654941">
        <ele>7.2</ele>
        <time>2016-05-03T18:12:36Z</time>
      </trkpt>
      <trkpt lat="59.241577313485" lon="17.995155424712">
        <ele>7.2</ele>
        <time>2016-05-03T18:12:39Z</time>
      </trkpt>
      <trkpt lat="59.24149475177" lon="17.995039335397">
        <ele>7.2</ele>
        <time>2016-05-03T18:12:41Z</time>
      </trkpt>
      <trkpt lat="59.241447980768" lon="17.994998347906">
        <ele>7.2</ele>
        <time>2016-05-03T18:12:42Z</time>
      </trkpt>
      <trkpt lat="59.241181520167" lon="17.994714872048">
        <ele>7.2</ele>
        <time>2016-05-03T18:12:47Z</time>
      </trkpt>
      <trkpt lat="59.241064005929" lon="17.994365430637">
        <ele>7.2</ele>
        <time>2016-05-03T18:12:51Z</time>
      </trkpt>
      <trkpt lat="59.241029053406" lon="17.994141214812">
        <ele>7.2</ele>
        <time>2016-05-03T18:12:53Z</time>
      </trkpt>
      <trkpt lat="59.240938864162" lon="17.993769393728">
        <ele>7.6</ele>
        <time>2016-05-03T18:12:56Z</time>
      </trkpt>
      <trkpt lat="59.240887231658" lon="17.993639390459">
        <ele>8</ele>
        <time>2016-05-03T18:12:57Z</time>
      </trkpt>
      <trkpt lat="59.240849848384" lon="17.993520702755">
        <ele>8.4</ele>
        <time>2016-05-03T18:12:58Z</time>
      </trkpt>
      <trkpt lat="59.240811040187" lon="17.99340461344">
        <ele>8.8</ele>
        <time>2016-05-03T18:12:59Z</time>
      </trkpt>
      <trkpt lat="59.240770136515" lon="17.993279639311">
        <ele>9.2</ele>
        <time>2016-05-03T18:13:00Z</time>
      </trkpt>
      <trkpt lat="59.240680114909" lon="17.993031367433">
        <ele>9.2</ele>
        <time>2016-05-03T18:13:02Z</time>
      </trkpt>
      <trkpt lat="59.240527564329" lon="17.99255217421">
        <ele>9.2</ele>
        <time>2016-05-03T18:13:06Z</time>
      </trkpt>
      <trkpt lat="59.240413402851" lon="17.992193596528">
        <ele>9.2</ele>
        <time>2016-05-03T18:13:09Z</time>
      </trkpt>
      <trkpt lat="59.240318352105" lon="17.991860248365">
        <ele>9.2</ele>
        <time>2016-05-03T18:13:12Z</time>
      </trkpt>
      <trkpt lat="59.240236796218" lon="17.991640391128">
        <ele>9.2</ele>
        <time>2016-05-03T18:13:14Z</time>
      </trkpt>
      <trkpt lat="59.240196060184" lon="17.991540646518">
        <ele>9.2</ele>
        <time>2016-05-03T18:13:15Z</time>
      </trkpt>
      <trkpt lat="59.240109726614" lon="17.991350628845">
        <ele>9.2</ele>
        <time>2016-05-03T18:13:17Z</time>
      </trkpt>
      <trkpt lat="59.240062955612" lon="17.991261696886">
        <ele>9.2</ele>
        <time>2016-05-03T18:13:18Z</time>
      </trkpt>
      <trkpt lat="59.239908141919" lon="17.990948632921">
        <ele>9.2</ele>
        <time>2016-05-03T18:13:22Z</time>
      </trkpt>
      <trkpt lat="59.239858353433" lon="17.990867747586">
        <ele>9.6</ele>
        <time>2016-05-03T18:13:23Z</time>
      </trkpt>
      <trkpt lat="59.239807726757" lon="17.990785185871">
        <ele>10.2</ele>
        <time>2016-05-03T18:13:24Z</time>
      </trkpt>
      <trkpt lat="59.239760452841" lon="17.990700193405">
        <ele>10.6</ele>
        <time>2016-05-03T18:13:25Z</time>
      </trkpt>
      <trkpt lat="59.239713095106" lon="17.990611596722">
        <ele>11.2</ele>
        <time>2016-05-03T18:13:26Z</time>
      </trkpt>
      <trkpt lat="59.239665569733" lon="17.990516545976">
        <ele>11.6</ele>
        <time>2016-05-03T18:13:27Z</time>
      </trkpt>
      <trkpt lat="59.239621061844" lon="17.990413448606">
        <ele>11.6</ele>
        <time>2016-05-03T18:13:28Z</time>
      </trkpt>
      <trkpt lat="59.23949902138" lon="17.990056798761">
        <ele>11.6</ele>
        <time>2016-05-03T18:13:31Z</time>
      </trkpt>
      <trkpt lat="59.239402964806" lon="17.98967382975">
        <ele>11.6</ele>
        <time>2016-05-03T18:13:34Z</time>
      </trkpt>
      <trkpt lat="59.239360971487" lon="17.989414996678">
        <ele>11.6</ele>
        <time>2016-05-03T18:13:36Z</time>
      </trkpt>
      <trkpt lat="59.239249073122" lon="17.988439092061">
        <ele>11.6</ele>
        <time>2016-05-03T18:13:43Z</time>
      </trkpt>
      <trkpt lat="59.239147903589" lon="17.987616827671">
        <ele>11.6</ele>
        <time>2016-05-03T18:13:49Z</time>
      </trkpt>
      <trkpt lat="59.239053691033" lon="17.98681308728">
        <ele>11.6</ele>
        <time>2016-05-03T18:13:55Z</time>
      </trkpt>
      <trkpt lat="59.238961490133" lon="17.985878421611">
        <ele>11.6</ele>
        <time>2016-05-03T18:14:02Z</time>
      </trkpt>
      <trkpt lat="59.238903738842" lon="17.985428984133">
        <ele>11.2</ele>
        <time>2016-05-03T18:14:05Z</time>
      </trkpt>
      <trkpt lat="59.238880688617" lon="17.985272996974">
        <ele>10.6</ele>
        <time>2016-05-03T18:14:06Z</time>
      </trkpt>
      <trkpt lat="59.238850932872" lon="17.9851182671">
        <ele>10.2</ele>
        <time>2016-05-03T18:14:07Z</time>
      </trkpt>
      <trkpt lat="59.2388100292" lon="17.984963872502">
        <ele>9.6</ele>
        <time>2016-05-03T18:14:08Z</time>
      </trkpt>
      <trkpt lat="59.238755043936" lon="17.984814339406">
        <ele>9.2</ele>
        <time>2016-05-03T18:14:09Z</time>
      </trkpt>
      <trkpt lat="59.238701735052" lon="17.984666231233">
        <ele>8.6</ele>
        <time>2016-05-03T18:14:10Z</time>
      </trkpt>
      <trkpt lat="59.238647168883" lon="17.984520386173">
        <ele>7.6</ele>
        <time>2016-05-03T18:14:11Z</time>
      </trkpt>
      <trkpt lat="59.238589501411" lon="17.984372445638">
        <ele>6.8</ele>
        <time>2016-05-03T18:14:12Z</time>
      </trkpt>
      <trkpt lat="59.238531331025" lon="17.984219978877">
        <ele>6</ele>
        <time>2016-05-03T18:14:13Z</time>
      </trkpt>
      <trkpt lat="59.238472993001" lon="17.984072792713">
        <ele>5.2</ele>
        <time>2016-05-03T18:14:14Z</time>
      </trkpt>
      <trkpt lat="59.238417085728" lon="17.983927031472">
        <ele>4.4</ele>
        <time>2016-05-03T18:14:15Z</time>
      </trkpt>
      <trkpt lat="59.238358160971" lon="17.983775989634">
        <ele>3.6</ele>
        <time>2016-05-03T18:14:16Z</time>
      </trkpt>
      <trkpt lat="59.238156911552" lon="17.983268214132">
        <ele>3.6</ele>
        <time>2016-05-03T18:14:20Z</time>
      </trkpt>
      <trkpt lat="59.238107709799" lon="17.983130164239">
        <ele>3.6</ele>
        <time>2016-05-03T18:14:22Z</time>
      </trkpt>
      <trkpt lat="59.238087844696" lon="17.983073251138">
        <ele>4</ele>
        <time>2016-05-03T18:14:24Z</time>
      </trkpt>
      <trkpt lat="59.238071919086" lon="17.983034107665">
        <ele>4.4</ele>
        <time>2016-05-03T18:14:25Z</time>
      </trkpt>
      <trkpt lat="59.238046605748" lon="17.982986582292">
        <ele>4.8</ele>
        <time>2016-05-03T18:14:26Z</time>
      </trkpt>
      <trkpt lat="59.238020202763" lon="17.982930172105">
        <ele>5.2</ele>
        <time>2016-05-03T18:14:27Z</time>
      </trkpt>
      <trkpt lat="59.237991369027" lon="17.982848867675">
        <ele>5.6</ele>
        <time>2016-05-03T18:14:28Z</time>
      </trkpt>
      <trkpt lat="59.237937892505" lon="17.982690533584">
        <ele>5.6</ele>
        <time>2016-05-03T18:14:30Z</time>
      </trkpt>
      <trkpt lat="59.237905286914" lon="17.982600009064">
        <ele>5.6</ele>
        <time>2016-05-03T18:14:31Z</time>
      </trkpt>
      <trkpt lat="59.237765728279" lon="17.982211256542">
        <ele>5.6</ele>
        <time>2016-05-03T18:14:35Z</time>
      </trkpt>
      <trkpt lat="59.237653578457" lon="17.981880842044">
        <ele>5.2</ele>
        <time>2016-05-03T18:14:38Z</time>
      </trkpt>
      <trkpt lat="59.237615273174" lon="17.981768943679">
        <ele>4.8</ele>
        <time>2016-05-03T18:14:39Z</time>
      </trkpt>
      <trkpt lat="59.23757705171" lon="17.981653692554">
        <ele>4.4</ele>
        <time>2016-05-03T18:14:40Z</time>
      </trkpt>
      <trkpt lat="59.237538159694" lon="17.981543554388">
        <ele>4</ele>
        <time>2016-05-03T18:14:41Z</time>
      </trkpt>
      <trkpt lat="59.23749993823" lon="17.981440457018">
        <ele>3.6</ele>
        <time>2016-05-03T18:14:42Z</time>
      </trkpt>
      <trkpt lat="59.237365157278" lon="17.981140049722">
        <ele>3.6</ele>
        <time>2016-05-03T18:14:45Z</time>
      </trkpt>
      <trkpt lat="59.237314949697" lon="17.981051201582">
        <ele>3.6</ele>
        <time>2016-05-03T18:14:46Z</time>
      </trkpt>
      <trkpt lat="59.237264658297" lon="17.980967298763">
        <ele>4</ele>
        <time>2016-05-03T18:14:47Z</time>
      </trkpt>
      <trkpt lat="59.23721495363" lon="17.980884653229">
        <ele>4.4</ele>
        <time>2016-05-03T18:14:48Z</time>
      </trkpt>
      <trkpt lat="59.237164578411" lon="17.980806785378">
        <ele>5</ele>
        <time>2016-05-03T18:14:49Z</time>
      </trkpt>
      <trkpt lat="59.237112610631" lon="17.980726738233">
        <ele>5.4</ele>
        <time>2016-05-03T18:14:50Z</time>
      </trkpt>
      <trkpt lat="59.237063660335" lon="17.980645349984">
        <ele>5.8</ele>
        <time>2016-05-03T18:14:51Z</time>
      </trkpt>
      <trkpt lat="59.236689576138" lon="17.980109411298">
        <ele>5.8</ele>
        <time>2016-05-03T18:14:58Z</time>
      </trkpt>
      <trkpt lat="59.236375757802" lon="17.979576406277">
        <ele>5.8</ele>
        <time>2016-05-03T18:15:04Z</time>
      </trkpt>
      <trkpt lat="59.235961356666" lon="17.978947093225">
        <ele>5.8</ele>
        <time>2016-05-03T18:15:11Z</time>
      </trkpt>
      <trkpt lat="59.235669666546" lon="17.978685745583">
        <ele>5.8</ele>
        <time>2016-05-03T18:15:16Z</time>
      </trkpt>
      <trkpt lat="59.235556510896" lon="17.978635621821">
        <ele>6.4</ele>
        <time>2016-05-03T18:15:18Z</time>
      </trkpt>
      <trkpt lat="59.23550336965" lon="17.978617349279">
        <ele>6.8</ele>
        <time>2016-05-03T18:15:19Z</time>
      </trkpt>
      <trkpt lat="59.235451234232" lon="17.978601004574">
        <ele>7.2</ele>
        <time>2016-05-03T18:15:20Z</time>
      </trkpt>
      <trkpt lat="59.235402116298" lon="17.978584073136">
        <ele>7.8</ele>
        <time>2016-05-03T18:15:21Z</time>
      </trkpt>
      <trkpt lat="59.235354842382" lon="17.978568482802">
        <ele>8.2</ele>
        <time>2016-05-03T18:15:22Z</time>
      </trkpt>
      <trkpt lat="59.235213104453" lon="17.978531602442">
        <ele>9</ele>
        <time>2016-05-03T18:15:25Z</time>
      </trkpt>
      <trkpt lat="59.235162813053" lon="17.978525316017">
        <ele>9.6</ele>
        <time>2016-05-03T18:15:26Z</time>
      </trkpt>
      <trkpt lat="59.235111683463" lon="17.978516934117">
        <ele>10</ele>
        <time>2016-05-03T18:15:27Z</time>
      </trkpt>
      <trkpt lat="59.235058961312" lon="17.97850578619">
        <ele>10.4</ele>
        <time>2016-05-03T18:15:28Z</time>
      </trkpt>
      <trkpt lat="59.23489903466" lon="17.978478042101">
        <ele>10.4</ele>
        <time>2016-05-03T18:15:31Z</time>
      </trkpt>
      <trkpt lat="59.234739275646" lon="17.978448873089">
        <ele>10.8</ele>
        <time>2016-05-03T18:15:34Z</time>
      </trkpt>
      <trkpt lat="59.234689235703" lon="17.978440072094">
        <ele>11.2</ele>
        <time>2016-05-03T18:15:35Z</time>
      </trkpt>
      <trkpt lat="59.234638441389" lon="17.978431690194">
        <ele>11.8</ele>
        <time>2016-05-03T18:15:36Z</time>
      </trkpt>
      <trkpt lat="59.234586473609" lon="17.978421715733">
        <ele>12.2</ele>
        <time>2016-05-03T18:15:37Z</time>
      </trkpt>
      <trkpt lat="59.234535008743" lon="17.978403694648">
        <ele>12.6</ele>
        <time>2016-05-03T18:15:38Z</time>
      </trkpt>
      <trkpt lat="59.234429899717" lon="17.978357929474">
        <ele>12.6</ele>
        <time>2016-05-03T18:15:40Z</time>
      </trkpt>
      <trkpt lat="59.23438103324" lon="17.978320965295">
        <ele>13</ele>
        <time>2016-05-03T18:15:41Z</time>
      </trkpt>
      <trkpt lat="59.234335016609" lon="17.978272434094">
        <ele>13.6</ele>
        <time>2016-05-03T18:15:42Z</time>
      </trkpt>
      <trkpt lat="59.234291682186" lon="17.978218538477">
        <ele>14</ele>
        <time>2016-05-03T18:15:43Z</time>
      </trkpt>
      <trkpt lat="59.234246503745" lon="17.978163720851">
        <ele>14.4</ele>
        <time>2016-05-03T18:15:44Z</time>
      </trkpt>
      <trkpt lat="59.234207863186" lon="17.978088619027">
        <ele>14.8</ele>
        <time>2016-05-03T18:15:45Z</time>
      </trkpt>
      <trkpt lat="59.23417819126" lon="17.977761389651">
        <ele>14.8</ele>
        <time>2016-05-03T18:15:48Z</time>
      </trkpt>
      <trkpt lat="59.234304925588" lon="17.977500964018">
        <ele>15.4</ele>
        <time>2016-05-03T18:15:51Z</time>
      </trkpt>
      <trkpt lat="59.234359156481" lon="17.977435082284">
        <ele>15.8</ele>
        <time>2016-05-03T18:15:52Z</time>
      </trkpt>
      <trkpt lat="59.234410621347" lon="17.977365261057">
        <ele>16.4</ele>
        <time>2016-05-03T18:15:53Z</time>
      </trkpt>
      <trkpt lat="59.234461918575" lon="17.97729460164">
        <ele>16.8</ele>
        <time>2016-05-03T18:15:54Z</time>
      </trkpt>
      <trkpt lat="59.234509946862" lon="17.977222936395">
        <ele>17.4</ele>
        <time>2016-05-03T18:15:55Z</time>
      </trkpt>
      <trkpt lat="59.234702479105" lon="17.976913392828">
        <ele>17.4</ele>
        <time>2016-05-03T18:15:59Z</time>
      </trkpt>
      <trkpt lat="59.234825022483" lon="17.976668808986">
        <ele>17.8</ele>
        <time>2016-05-03T18:16:02Z</time>
      </trkpt>
      <trkpt lat="59.234864082137" lon="17.976578619742">
        <ele>18.2</ele>
        <time>2016-05-03T18:16:03Z</time>
      </trkpt>
      <trkpt lat="59.234900543402" lon="17.976464542083">
        <ele>18.6</ele>
        <time>2016-05-03T18:16:04Z</time>
      </trkpt>
      <trkpt lat="59.234938764866" lon="17.976349290958">
        <ele>19</ele>
        <time>2016-05-03T18:16:05Z</time>
      </trkpt>
      <trkpt lat="59.234977070149" lon="17.976228340141">
        <ele>19.4</ele>
        <time>2016-05-03T18:16:06Z</time>
      </trkpt>
      <trkpt lat="59.235014788699" lon="17.976104120383">
        <ele>19.4</ele>
        <time>2016-05-03T18:16:07Z</time>
      </trkpt>
      <trkpt lat="59.235055357095" lon="17.975982499014">
        <ele>19.4</ele>
        <time>2016-05-03T18:16:08Z</time>
      </trkpt>
      <trkpt lat="59.235346125206" lon="17.975111368147">
        <ele>19.4</ele>
        <time>2016-05-03T18:16:15Z</time>
      </trkpt>
      <trkpt lat="59.235417790451" lon="17.974865610839">
        <ele>19</ele>
        <time>2016-05-03T18:16:17Z</time>
      </trkpt>
      <trkpt lat="59.235453162069" lon="17.974744408565">
        <ele>18.6</ele>
        <time>2016-05-03T18:16:18Z</time>
      </trkpt>
      <trkpt lat="59.235481409072" lon="17.974634102761">
        <ele>18.2</ele>
        <time>2016-05-03T18:16:19Z</time>
      </trkpt>
      <trkpt lat="59.235508482609" lon="17.974531675943">
        <ele>17.8</ele>
        <time>2016-05-03T18:16:20Z</time>
      </trkpt>
      <trkpt lat="59.235531113739" lon="17.974438636853">
        <ele>17.4</ele>
        <time>2016-05-03T18:16:21Z</time>
      </trkpt>
      <trkpt lat="59.235559612199" lon="17.974335623302">
        <ele>17.4</ele>
        <time>2016-05-03T18:16:23Z</time>
      </trkpt>
      <trkpt lat="59.235564473701" lon="17.974323972461">
        <ele>17.4</ele>
        <time>2016-05-03T18:16:24Z</time>
      </trkpt>
      <trkpt lat="59.235570676307" lon="17.974320368244">
        <ele>17.4</ele>
        <time>2016-05-03T18:17:20Z</time>
      </trkpt>
      <trkpt lat="59.235574699619" lon="17.974287008282">
        <ele>17.4</ele>
        <time>2016-05-03T18:17:21Z</time>
      </trkpt>
      <trkpt lat="59.235576375999" lon="17.974092296745">
        <ele>17.4</ele>
        <time>2016-05-03T18:17:24Z</time>
      </trkpt>
      <trkpt lat="59.235471937525" lon="17.97391921051">
        <ele>17.4</ele>
        <time>2016-05-03T18:17:27Z</time>
      </trkpt>
      <trkpt lat="59.235244788035" lon="17.973741933325">
        <ele>17</ele>
        <time>2016-05-03T18:17:31Z</time>
      </trkpt>
      <trkpt lat="59.235174044799" lon="17.973727097362">
        <ele>16.4</ele>
        <time>2016-05-03T18:17:32Z</time>
      </trkpt>
      <trkpt lat="59.235100870812" lon="17.973727181181">
        <ele>16</ele>
        <time>2016-05-03T18:17:33Z</time>
      </trkpt>
      <trkpt lat="59.235019063468" lon="17.973735563081">
        <ele>15.6</ele>
        <time>2016-05-03T18:17:34Z</time>
      </trkpt>
      <trkpt lat="59.234941447074" lon="17.973732545597">
        <ele>15</ele>
        <time>2016-05-03T18:17:35Z</time>
      </trkpt>
      <trkpt lat="59.234862573395" lon="17.973709998286">
        <ele>14.6</ele>
        <time>2016-05-03T18:17:36Z</time>
      </trkpt>
      <trkpt lat="59.234783783535" lon="17.973679404351">
        <ele>14.2</ele>
        <time>2016-05-03T18:17:37Z</time>
      </trkpt>
      <trkpt lat="59.23470625096" lon="17.973644703285">
        <ele>13.6</ele>
        <time>2016-05-03T18:17:38Z</time>
      </trkpt>
      <trkpt lat="59.234626790548" lon="17.973607320011">
        <ele>13.2</ele>
        <time>2016-05-03T18:17:39Z</time>
      </trkpt>
      <trkpt lat="59.234551353448" lon="17.973563147398">
        <ele>12.8</ele>
        <time>2016-05-03T18:17:40Z</time>
      </trkpt>
      <trkpt lat="59.234256394387" lon="17.973349157491">
        <ele>12.8</ele>
        <time>2016-05-03T18:17:44Z</time>
      </trkpt>
      <trkpt lat="59.233964117534" lon="17.973065178719">
        <ele>12.4</ele>
        <time>2016-05-03T18:17:48Z</time>
      </trkpt>
      <trkpt lat="59.233893877212" lon="17.972980856805">
        <ele>11.8</ele>
        <time>2016-05-03T18:17:49Z</time>
      </trkpt>
      <trkpt lat="59.233823301614" lon="17.972892595398">
        <ele>11.4</ele>
        <time>2016-05-03T18:17:50Z</time>
      </trkpt>
      <trkpt lat="59.233747445419" lon="17.972813302624">
        <ele>11</ele>
        <time>2016-05-03T18:17:51Z</time>
      </trkpt>
      <trkpt lat="59.233680390219" lon="17.972726717597">
        <ele>10.6</ele>
        <time>2016-05-03T18:17:52Z</time>
      </trkpt>
      <trkpt lat="59.233615430494" lon="17.972634432878">
        <ele>10.6</ele>
        <time>2016-05-03T18:17:53Z</time>
      </trkpt>
      <trkpt lat="59.233166579749" lon="17.971942423214">
        <ele>10.6</ele>
        <time>2016-05-03T18:18:00Z</time>
      </trkpt>
      <trkpt lat="59.232798865796" lon="17.9711707855">
        <ele>10.6</ele>
        <time>2016-05-03T18:18:07Z</time>
      </trkpt>
      <trkpt lat="59.232527711331" lon="17.970516494386">
        <ele>10.6</ele>
        <time>2016-05-03T18:18:13Z</time>
      </trkpt>
      <trkpt lat="59.232482029976" lon="17.970393699551">
        <ele>10.6</ele>
        <time>2016-05-03T18:18:14Z</time>
      </trkpt>
      <trkpt lat="59.232230489157" lon="17.969679226395">
        <ele>10.6</ele>
        <time>2016-05-03T18:18:19Z</time>
      </trkpt>
      <trkpt lat="59.232067209745" lon="17.969185029571">
        <ele>10.6</ele>
        <time>2016-05-03T18:18:23Z</time>
      </trkpt>
      <trkpt lat="59.232041393493" lon="17.969099282734">
        <ele>11</ele>
        <time>2016-05-03T18:18:24Z</time>
      </trkpt>
      <trkpt lat="59.232019097639" lon="17.969044800384">
        <ele>11.6</ele>
        <time>2016-05-03T18:18:25Z</time>
      </trkpt>
      <trkpt lat="59.232003423486" lon="17.96902250453">
        <ele>12</ele>
        <time>2016-05-03T18:18:26Z</time>
      </trkpt>
      <trkpt lat="59.23199386812" lon="17.969011859517">
        <ele>12.6</ele>
        <time>2016-05-03T18:18:27Z</time>
      </trkpt>
      <trkpt lat="59.231988252247" lon="17.969001046866">
        <ele>13</ele>
        <time>2016-05-03T18:18:28Z</time>
      </trkpt>
      <trkpt lat="59.231988419885" lon="17.96899735883">
        <ele>13</ele>
        <time>2016-05-03T18:18:29Z</time>
      </trkpt>
      <trkpt lat="59.231981965822" lon="17.96894706743">
        <ele>13</ele>
        <time>2016-05-03T18:19:16Z</time>
      </trkpt>
      <trkpt lat="59.231915162079" lon="17.968789822986">
        <ele>13</ele>
        <time>2016-05-03T18:19:19Z</time>
      </trkpt>
      <trkpt lat="59.231854141847" lon="17.968657640423">
        <ele>13</ele>
        <time>2016-05-03T18:19:21Z</time>
      </trkpt>
      <trkpt lat="59.231768143553" lon="17.968400148455">
        <ele>13</ele>
        <time>2016-05-03T18:19:24Z</time>
      </trkpt>
      <trkpt lat="59.231554740379" lon="17.967916261368">
        <ele>13</ele>
        <time>2016-05-03T18:19:30Z</time>
      </trkpt>
      <trkpt lat="59.23136271105" lon="17.967495573807">
        <ele>13.6</ele>
        <time>2016-05-03T18:19:35Z</time>
      </trkpt>
      <trkpt lat="59.231322226473" lon="17.967412173902">
        <ele>14</ele>
        <time>2016-05-03T18:19:36Z</time>
      </trkpt>
      <trkpt lat="59.231283585914" lon="17.967331456205">
        <ele>14.4</ele>
        <time>2016-05-03T18:19:37Z</time>
      </trkpt>
      <trkpt lat="59.231247711382" lon="17.967250822327">
        <ele>15</ele>
        <time>2016-05-03T18:19:38Z</time>
      </trkpt>
      <trkpt lat="59.231214686696" lon="17.967175385227">
        <ele>15.4</ele>
        <time>2016-05-03T18:19:39Z</time>
      </trkpt>
      <trkpt lat="59.230973623252" lon="17.966705160637">
        <ele>15.8</ele>
        <time>2016-05-03T18:19:45Z</time>
      </trkpt>
      <trkpt lat="59.230927438983" lon="17.966623269474">
        <ele>16.2</ele>
        <time>2016-05-03T18:19:46Z</time>
      </trkpt>
      <trkpt lat="59.23087991361" lon="17.966538696103">
        <ele>16.6</ele>
        <time>2016-05-03T18:19:47Z</time>
      </trkpt>
      <trkpt lat="59.230834818988" lon="17.966454038913">
        <ele>17</ele>
        <time>2016-05-03T18:19:48Z</time>
      </trkpt>
      <trkpt lat="59.230786790701" lon="17.966372399207">
        <ele>17.4</ele>
        <time>2016-05-03T18:19:49Z</time>
      </trkpt>
      <trkpt lat="59.230564167437" lon="17.965968559265">
        <ele>17.4</ele>
        <time>2016-05-03T18:19:54Z</time>
      </trkpt>
      <trkpt lat="59.230248253626" lon="17.965377970591">
        <ele>17.4</ele>
        <time>2016-05-03T18:20:01Z</time>
      </trkpt>
      <trkpt lat="59.230160076038" lon="17.965206393098">
        <ele>17.4</ele>
        <time>2016-05-03T18:20:03Z</time>
      </trkpt>
      <trkpt lat="59.229980116645" lon="17.964863238112">
        <ele>17.4</ele>
        <time>2016-05-03T18:20:07Z</time>
      </trkpt>
      <trkpt lat="59.229548197338" lon="17.964023120275">
        <ele>17.4</ele>
        <time>2016-05-03T18:20:16Z</time>
      </trkpt>
      <trkpt lat="59.229400089165" lon="17.963750121792">
        <ele>17.4</ele>
        <time>2016-05-03T18:20:19Z</time>
      </trkpt>
      <trkpt lat="59.229308055903" lon="17.963550716391">
        <ele>17.4</ele>
        <time>2016-05-03T18:20:21Z</time>
      </trkpt>
      <trkpt lat="59.229259859978" lon="17.963448960125">
        <ele>16.6</ele>
        <time>2016-05-03T18:20:22Z</time>
      </trkpt>
      <trkpt lat="59.229211328777" lon="17.963344354013">
        <ele>16.2</ele>
        <time>2016-05-03T18:20:23Z</time>
      </trkpt>
      <trkpt lat="59.229161288834" lon="17.963237903883">
        <ele>15.8</ele>
        <time>2016-05-03T18:20:24Z</time>
      </trkpt>
      <trkpt lat="59.229111416529" lon="17.963128520088">
        <ele>15.4</ele>
        <time>2016-05-03T18:20:25Z</time>
      </trkpt>
      <trkpt lat="59.229012258652" lon="17.96290036477">
        <ele>15.4</ele>
        <time>2016-05-03T18:20:27Z</time>
      </trkpt>
      <trkpt lat="59.228962218709" lon="17.96277882722">
        <ele>15</ele>
        <time>2016-05-03T18:20:28Z</time>
      </trkpt>
      <trkpt lat="59.228908155454" lon="17.962654188367">
        <ele>14.6</ele>
        <time>2016-05-03T18:20:29Z</time>
      </trkpt>
      <trkpt lat="59.228855517122" lon="17.962535668301">
        <ele>14.2</ele>
        <time>2016-05-03T18:20:30Z</time>
      </trkpt>
      <trkpt lat="59.228804471351" lon="17.962419746624">
        <ele>13.8</ele>
        <time>2016-05-03T18:20:31Z</time>
      </trkpt>
      <trkpt lat="59.228752252114" lon="17.962298041436">
        <ele>13.4</ele>
        <time>2016-05-03T18:20:32Z</time>
      </trkpt>
      <trkpt lat="59.228596348774" lon="17.961919263375">
        <ele>13.4</ele>
        <time>2016-05-03T18:20:35Z</time>
      </trkpt>
      <trkpt lat="59.228336342236" lon="17.961247286452">
        <ele>13</ele>
        <time>2016-05-03T18:20:40Z</time>
      </trkpt>
      <trkpt lat="59.228284542094" lon="17.961116277355">
        <ele>12.6</ele>
        <time>2016-05-03T18:20:41Z</time>
      </trkpt>
      <trkpt lat="59.228232490495" lon="17.960983843335">
        <ele>12</ele>
        <time>2016-05-03T18:20:42Z</time>
      </trkpt>
      <trkpt lat="59.228181025629" lon="17.960847386003">
        <ele>11.6</ele>
        <time>2016-05-03T18:20:43Z</time>
      </trkpt>
      <trkpt lat="59.228126124184" lon="17.960706737721">
        <ele>11.2</ele>
        <time>2016-05-03T18:20:44Z</time>
      </trkpt>
      <trkpt lat="59.227968376826" lon="17.960298706829">
        <ele>10.8</ele>
        <time>2016-05-03T18:20:47Z</time>
      </trkpt>
      <trkpt lat="59.227916492865" lon="17.960164596429">
        <ele>10.4</ele>
        <time>2016-05-03T18:20:48Z</time>
      </trkpt>
      <trkpt lat="59.227861507601" lon="17.960029396382">
        <ele>10</ele>
        <time>2016-05-03T18:20:49Z</time>
      </trkpt>
      <trkpt lat="59.227807695803" lon="17.959895118344">
        <ele>9.6</ele>
        <time>2016-05-03T18:20:50Z</time>
      </trkpt>
      <trkpt lat="59.227755728023" lon="17.959767797283">
        <ele>9.2</ele>
        <time>2016-05-03T18:20:51Z</time>
      </trkpt>
      <trkpt lat="59.227702754415" lon="17.959636955824">
        <ele>9.2</ele>
        <time>2016-05-03T18:20:52Z</time>
      </trkpt>
      <trkpt lat="59.22760594347" lon="17.959374350897">
        <ele>8.8</ele>
        <time>2016-05-03T18:20:54Z</time>
      </trkpt>
      <trkpt lat="59.227557244631" lon="17.959256249926">
        <ele>8.4</ele>
        <time>2016-05-03T18:20:55Z</time>
      </trkpt>
      <trkpt lat="59.227510892724" lon="17.959138651869">
        <ele>7.8</ele>
        <time>2016-05-03T18:20:56Z</time>
      </trkpt>
      <trkpt lat="59.227461690971" lon="17.959019042156">
        <ele>7.4</ele>
        <time>2016-05-03T18:20:57Z</time>
      </trkpt>
      <trkpt lat="59.227410812838" lon="17.958899348624">
        <ele>7</ele>
        <time>2016-05-03T18:20:58Z</time>
      </trkpt>
      <trkpt lat="59.227140328925" lon="17.958305155733">
        <ele>7</ele>
        <time>2016-05-03T18:21:03Z</time>
      </trkpt>
      <trkpt lat="59.226983419757" lon="17.957984464239">
        <ele>7</ele>
        <time>2016-05-03T18:21:06Z</time>
      </trkpt>
      <trkpt lat="59.226882334043" lon="17.957776928395">
        <ele>7</ele>
        <time>2016-05-03T18:21:08Z</time>
      </trkpt>
      <trkpt lat="59.226475057522" lon="17.956995651496">
        <ele>7</ele>
        <time>2016-05-03T18:21:16Z</time>
      </trkpt>
      <trkpt lat="59.226268946601" lon="17.956637995823">
        <ele>7</ele>
        <time>2016-05-03T18:21:20Z</time>
      </trkpt>
      <trkpt lat="59.22616258029" lon="17.956461724466">
        <ele>7</ele>
        <time>2016-05-03T18:21:22Z</time>
      </trkpt>
      <trkpt lat="59.225869884342" lon="17.955952524041">
        <ele>7</ele>
        <time>2016-05-03T18:21:28Z</time>
      </trkpt>
      <trkpt lat="59.225519940017" lon="17.955367718878">
        <ele>7</ele>
        <time>2016-05-03T18:21:35Z</time>
      </trkpt>
      <trkpt lat="59.225075280222" lon="17.954674871024">
        <ele>7</ele>
        <time>2016-05-03T18:21:44Z</time>
      </trkpt>
      <trkpt lat="59.224888280033" lon="17.954380331058">
        <ele>7.4</ele>
        <time>2016-05-03T18:21:48Z</time>
      </trkpt>
      <trkpt lat="59.224843520687" lon="17.95430807908">
        <ele>7.8</ele>
        <time>2016-05-03T18:21:49Z</time>
      </trkpt>
      <trkpt lat="59.224802030282" lon="17.954228199573">
        <ele>8.2</ele>
        <time>2016-05-03T18:21:50Z</time>
      </trkpt>
      <trkpt lat="59.224760623696" lon="17.954146392229">
        <ele>8.8</ele>
        <time>2016-05-03T18:21:51Z</time>
      </trkpt>
      <trkpt lat="59.22471837892" lon="17.954064920161">
        <ele>9.2</ele>
        <time>2016-05-03T18:21:52Z</time>
      </trkpt>
      <trkpt lat="59.224593320972" lon="17.953792089316">
        <ele>9.2</ele>
        <time>2016-05-03T18:21:55Z</time>
      </trkpt>
      <trkpt lat="59.224493492543" lon="17.953632749397">
        <ele>9.2</ele>
        <time>2016-05-03T18:21:57Z</time>
      </trkpt>
      <trkpt lat="59.224275479324" lon="17.953342232743">
        <ele>9.2</ele>
        <time>2016-05-03T18:22:01Z</time>
      </trkpt>
      <trkpt lat="59.224173974515" lon="17.953194040751">
        <ele>9.2</ele>
        <time>2016-05-03T18:22:03Z</time>
      </trkpt>
      <trkpt lat="59.223909106475" lon="17.952855998724">
        <ele>9.2</ele>
        <time>2016-05-03T18:22:09Z</time>
      </trkpt>
      <trkpt lat="59.223834423746" lon="17.952766312394">
        <ele>9.6</ele>
        <time>2016-05-03T18:22:11Z</time>
      </trkpt>
      <trkpt lat="59.223799135947" lon="17.952719792849">
        <ele>10.2</ele>
        <time>2016-05-03T18:22:12Z</time>
      </trkpt>
      <trkpt lat="59.223764183424" lon="17.952674698227">
        <ele>10.6</ele>
        <time>2016-05-03T18:22:13Z</time>
      </trkpt>
      <trkpt lat="59.223728225073" lon="17.952628933053">
        <ele>11.2</ele>
        <time>2016-05-03T18:22:14Z</time>
      </trkpt>
      <trkpt lat="59.223691009437" lon="17.952584173707">
        <ele>11.6</ele>
        <time>2016-05-03T18:22:15Z</time>
      </trkpt>
      <trkpt lat="59.223655386362" lon="17.952538911447">
        <ele>11.6</ele>
        <time>2016-05-03T18:22:16Z</time>
      </trkpt>
      <trkpt lat="59.223620014744" lon="17.952494319739">
        <ele>12</ele>
        <time>2016-05-03T18:22:17Z</time>
      </trkpt>
      <trkpt lat="59.223584475488" lon="17.952451655868">
        <ele>12.4</ele>
        <time>2016-05-03T18:22:18Z</time>
      </trkpt>
      <trkpt lat="59.223548768594" lon="17.952410836015">
        <ele>12.8</ele>
        <time>2016-05-03T18:22:19Z</time>
      </trkpt>
      <trkpt lat="59.223512558786" lon="17.952369680886">
        <ele>13.2</ele>
        <time>2016-05-03T18:22:20Z</time>
      </trkpt>
      <trkpt lat="59.223476768073" lon="17.952321904056">
        <ele>13.6</ele>
        <time>2016-05-03T18:22:21Z</time>
      </trkpt>
      <trkpt lat="59.223368557744" lon="17.952167174182">
        <ele>14.2</ele>
        <time>2016-05-03T18:22:24Z</time>
      </trkpt>
      <trkpt lat="59.223334694868" lon="17.952116715144">
        <ele>15</ele>
        <time>2016-05-03T18:22:25Z</time>
      </trkpt>
      <trkpt lat="59.223301083449" lon="17.952064160631">
        <ele>15.6</ele>
        <time>2016-05-03T18:22:26Z</time>
      </trkpt>
      <trkpt lat="59.223265292736" lon="17.952013617774">
        <ele>16</ele>
        <time>2016-05-03T18:22:27Z</time>
      </trkpt>
      <trkpt lat="59.223198069898" lon="17.951914292259">
        <ele>16.4</ele>
        <time>2016-05-03T18:22:29Z</time>
      </trkpt>
      <trkpt lat="59.223165548126" lon="17.951867772714">
        <ele>17</ele>
        <time>2016-05-03T18:22:30Z</time>
      </trkpt>
      <trkpt lat="59.223130427965" lon="17.951816224029">
        <ele>17.4</ele>
        <time>2016-05-03T18:22:31Z</time>
      </trkpt>
      <trkpt lat="59.223103354428" lon="17.951765932629">
        <ele>17.8</ele>
        <time>2016-05-03T18:22:32Z</time>
      </trkpt>
      <trkpt lat="59.223075777977" lon="17.951708768071">
        <ele>18.2</ele>
        <time>2016-05-03T18:22:33Z</time>
      </trkpt>
      <trkpt lat="59.22299086933" lon="17.951527048479">
        <ele>18.2</ele>
        <time>2016-05-03T18:22:36Z</time>
      </trkpt>
      <trkpt lat="59.222929597641" lon="17.951401487617">
        <ele>18.6</ele>
        <time>2016-05-03T18:22:38Z</time>
      </trkpt>
      <trkpt lat="59.222894561299" lon="17.951358991384">
        <ele>19</ele>
        <time>2016-05-03T18:22:39Z</time>
      </trkpt>
      <trkpt lat="59.222857345663" lon="17.951323368309">
        <ele>19.6</ele>
        <time>2016-05-03T18:22:40Z</time>
      </trkpt>
      <trkpt lat="59.222821722588" lon="17.9512805368">
        <ele>20</ele>
        <time>2016-05-03T18:22:41Z</time>
      </trkpt>
      <trkpt lat="59.222789284635" lon="17.951228820477">
        <ele>20.4</ele>
        <time>2016-05-03T18:22:42Z</time>
      </trkpt>
      <trkpt lat="59.222758271605" lon="17.951175092498">
        <ele>20.4</ele>
        <time>2016-05-03T18:22:43Z</time>
      </trkpt>
      <trkpt lat="59.222729856964" lon="17.951114658999">
        <ele>20.4</ele>
        <time>2016-05-03T18:22:44Z</time>
      </trkpt>
      <trkpt lat="59.222701107047" lon="17.951049531636">
        <ele>20.4</ele>
        <time>2016-05-03T18:22:45Z</time>
      </trkpt>
      <trkpt lat="59.222568337751" lon="17.950759936991">
        <ele>20.8</ele>
        <time>2016-05-03T18:22:50Z</time>
      </trkpt>
      <trkpt lat="59.222541934766" lon="17.950699922587">
        <ele>21.2</ele>
        <time>2016-05-03T18:22:51Z</time>
      </trkpt>
      <trkpt lat="59.222514274496" lon="17.950638650898">
        <ele>21.8</ele>
        <time>2016-05-03T18:22:52Z</time>
      </trkpt>
      <trkpt lat="59.222483010009" lon="17.950571847155">
        <ele>22.2</ele>
        <time>2016-05-03T18:22:53Z</time>
      </trkpt>
      <trkpt lat="59.22245107497" lon="17.950512168027">
        <ele>22.6</ele>
        <time>2016-05-03T18:22:54Z</time>
      </trkpt>
      <trkpt lat="59.222285364807" lon="17.950208156514">
        <ele>22.6</ele>
        <time>2016-05-03T18:22:59Z</time>
      </trkpt>
      <trkpt lat="59.222083277198" lon="17.94988662683">
        <ele>22.6</ele>
        <time>2016-05-03T18:23:04Z</time>
      </trkpt>
      <trkpt lat="59.221746073361" lon="17.949327973195">
        <ele>22.6</ele>
        <time>2016-05-03T18:23:12Z</time>
      </trkpt>
      <trkpt lat="59.221368804042" lon="17.948813408354">
        <ele>22.6</ele>
        <time>2016-05-03T18:23:20Z</time>
      </trkpt>
      <trkpt lat="59.221136876869" lon="17.948476455974">
        <ele>22.6</ele>
        <time>2016-05-03T18:23:25Z</time>
      </trkpt>
      <trkpt lat="59.221100247966" lon="17.948394480992">
        <ele>22.6</ele>
        <time>2016-05-03T18:23:26Z</time>
      </trkpt>
      <trkpt lat="59.2208392356" lon="17.947793498762">
        <ele>22.6</ele>
        <time>2016-05-03T18:23:33Z</time>
      </trkpt>
      <trkpt lat="59.220795817358" lon="17.947704063889">
        <ele>23</ele>
        <time>2016-05-03T18:23:34Z</time>
      </trkpt>
      <trkpt lat="59.220746280329" lon="17.947620328708">
        <ele>23.4</ele>
        <time>2016-05-03T18:23:35Z</time>
      </trkpt>
      <trkpt lat="59.220690205418" lon="17.94754053302">
        <ele>23.8</ele>
        <time>2016-05-03T18:23:36Z</time>
      </trkpt>
      <trkpt lat="59.220631951213" lon="17.947452690708">
        <ele>24.2</ele>
        <time>2016-05-03T18:23:37Z</time>
      </trkpt>
      <trkpt lat="59.220573110275" lon="17.947371973011">
        <ele>24.6</ele>
        <time>2016-05-03T18:23:38Z</time>
      </trkpt>
      <trkpt lat="59.220511251853" lon="17.947282202862">
        <ele>23.6</ele>
        <time>2016-05-03T18:23:39Z</time>
      </trkpt>
      <trkpt lat="59.220453332924" lon="17.947182374433">
        <ele>23.2</ele>
        <time>2016-05-03T18:23:40Z</time>
      </trkpt>
      <trkpt lat="59.220410249958" lon="17.947059663417">
        <ele>22.8</ele>
        <time>2016-05-03T18:23:41Z</time>
      </trkpt>
      <trkpt lat="59.220377728186" lon="17.946939383152">
        <ele>22.2</ele>
        <time>2016-05-03T18:23:42Z</time>
      </trkpt>
      <trkpt lat="59.220352750124" lon="17.94660595117">
        <ele>22.2</ele>
        <time>2016-05-03T18:23:45Z</time>
      </trkpt>
      <trkpt lat="59.220358198359" lon="17.946409311796">
        <ele>22.2</ele>
        <time>2016-05-03T18:23:47Z</time>
      </trkpt>
      <trkpt lat="59.220367502268" lon="17.946239326864">
        <ele>22.6</ele>
        <time>2016-05-03T18:23:49Z</time>
      </trkpt>
      <trkpt lat="59.22037152558" lon="17.946163554488">
        <ele>23</ele>
        <time>2016-05-03T18:23:50Z</time>
      </trkpt>
      <trkpt lat="59.220373285779" lon="17.94608711156">
        <ele>23.4</ele>
        <time>2016-05-03T18:23:51Z</time>
      </trkpt>
      <trkpt lat="59.220378734014" lon="17.946013937573">
        <ele>23.8</ele>
        <time>2016-05-03T18:23:52Z</time>
      </trkpt>
      <trkpt lat="59.22038828938" lon="17.945939338663">
        <ele>24.2</ele>
        <time>2016-05-03T18:23:53Z</time>
      </trkpt>
      <trkpt lat="59.22039750947" lon="17.94586834397">
        <ele>24.6</ele>
        <time>2016-05-03T18:23:54Z</time>
      </trkpt>
      <trkpt lat="59.220411171967" lon="17.945800282942">
        <ele>25.2</ele>
        <time>2016-05-03T18:23:55Z</time>
      </trkpt>
      <trkpt lat="59.220429612147" lon="17.945735239398">
        <ele>25.6</ele>
        <time>2016-05-03T18:23:56Z</time>
      </trkpt>
      <trkpt lat="59.220448387603" lon="17.945671788415">
        <ele>26</ele>
        <time>2016-05-03T18:23:57Z</time>
      </trkpt>
      <trkpt lat="59.22046624105" lon="17.945608672708">
        <ele>26.4</ele>
        <time>2016-05-03T18:23:58Z</time>
      </trkpt>
      <trkpt lat="59.220513850242" lon="17.945501132931">
        <ele>26.8</ele>
        <time>2016-05-03T18:24:00Z</time>
      </trkpt>
      <trkpt lat="59.220539247399" lon="17.945442711088">
        <ele>27.2</ele>
        <time>2016-05-03T18:24:01Z</time>
      </trkpt>
      <trkpt lat="59.220561291796" lon="17.945387306729">
        <ele>27.6</ele>
        <time>2016-05-03T18:24:02Z</time>
      </trkpt>
      <trkpt lat="59.220583755288" lon="17.945328046696">
        <ele>28.2</ele>
        <time>2016-05-03T18:24:03Z</time>
      </trkpt>
      <trkpt lat="59.220607643703" lon="17.945267864654">
        <ele>28.6</ele>
        <time>2016-05-03T18:24:04Z</time>
      </trkpt>
      <trkpt lat="59.220691295065" lon="17.94506032881">
        <ele>29</ele>
        <time>2016-05-03T18:24:07Z</time>
      </trkpt>
      <trkpt lat="59.220706633942" lon="17.944973492326">
        <ele>29.4</ele>
        <time>2016-05-03T18:24:08Z</time>
      </trkpt>
      <trkpt lat="59.220719206792" lon="17.944880788512">
        <ele>29.8</ele>
        <time>2016-05-03T18:24:09Z</time>
      </trkpt>
      <trkpt lat="59.22073278547" lon="17.94478624068">
        <ele>30.2</ele>
        <time>2016-05-03T18:24:10Z</time>
      </trkpt>
      <trkpt lat="59.220748124347" lon="17.944689094459">
        <ele>30.6</ele>
        <time>2016-05-03T18:24:11Z</time>
      </trkpt>
      <trkpt lat="59.220804115439" lon="17.94436211654">
        <ele>30.6</ele>
        <time>2016-05-03T18:24:14Z</time>
      </trkpt>
      <trkpt lat="59.220842001627" lon="17.943886108439">
        <ele>30.6</ele>
        <time>2016-05-03T18:24:18Z</time>
      </trkpt>
      <trkpt lat="59.22083253008" lon="17.943776137911">
        <ele>30.6</ele>
        <time>2016-05-03T18:24:19Z</time>
      </trkpt>
      <trkpt lat="59.220754075496" lon="17.943506492188">
        <ele>30.6</ele>
        <time>2016-05-03T18:24:22Z</time>
      </trkpt>
      <trkpt lat="59.220721134629" lon="17.943436670961">
        <ele>30.6</ele>
        <time>2016-05-03T18:24:23Z</time>
      </trkpt>
      <trkpt lat="59.220611415558" lon="17.943221172312">
        <ele>30.6</ele>
        <time>2016-05-03T18:24:27Z</time>
      </trkpt>
      <trkpt lat="59.220490045646" lon="17.94297826485">
        <ele>30.6</ele>
        <time>2016-05-03T18:24:31Z</time>
      </trkpt>
      <trkpt lat="59.220484429773" lon="17.942794114507">
        <ele>30.6</ele>
        <time>2016-05-03T18:24:33Z</time>
      </trkpt>
      <trkpt lat="59.220463558842" lon="17.942713899724">
        <ele>30.6</ele>
        <time>2016-05-03T18:24:34Z</time>
      </trkpt>
      <trkpt lat="59.22040505318" lon="17.942575849831">
        <ele>31</ele>
        <time>2016-05-03T18:24:36Z</time>
      </trkpt>
      <trkpt lat="59.22037068739" lon="17.942525390793">
        <ele>31.4</ele>
        <time>2016-05-03T18:24:37Z</time>
      </trkpt>
      <trkpt lat="59.220332298288" lon="17.942478200696">
        <ele>31.8</ele>
        <time>2016-05-03T18:24:38Z</time>
      </trkpt>
      <trkpt lat="59.220292065168" lon="17.942428915124">
        <ele>32.2</ele>
        <time>2016-05-03T18:24:39Z</time>
      </trkpt>
      <trkpt lat="59.220258118473" lon="17.942373175489">
        <ele>32.8</ele>
        <time>2016-05-03T18:24:40Z</time>
      </trkpt>
      <trkpt lat="59.220140520416" lon="17.942222049832">
        <ele>33.2</ele>
        <time>2016-05-03T18:24:43Z</time>
      </trkpt>
      <trkpt lat="59.220103388599" lon="17.942182403445">
        <ele>33.6</ele>
        <time>2016-05-03T18:24:44Z</time>
      </trkpt>
      <trkpt lat="59.220062820203" lon="17.942133453149">
        <ele>34</ele>
        <time>2016-05-03T18:24:45Z</time>
      </trkpt>
      <trkpt lat="59.220021665074" lon="17.942084419034">
        <ele>34.4</ele>
        <time>2016-05-03T18:24:46Z</time>
      </trkpt>
      <trkpt lat="59.219998111935" lon="17.94203446291">
        <ele>34.8</ele>
        <time>2016-05-03T18:24:47Z</time>
      </trkpt>
      <trkpt lat="59.219838604378" lon="17.941782586815">
        <ele>35.2</ele>
        <time>2016-05-03T18:24:52Z</time>
      </trkpt>
      <trkpt lat="59.21980658552" lon="17.941747382835">
        <ele>35.6</ele>
        <time>2016-05-03T18:24:53Z</time>
      </trkpt>
      <trkpt lat="59.219770627169" lon="17.941704802783">
        <ele>36.4</ele>
        <time>2016-05-03T18:24:54Z</time>
      </trkpt>
      <trkpt lat="59.219739949415" lon="17.941644872198">
        <ele>36.8</ele>
        <time>2016-05-03T18:24:55Z</time>
      </trkpt>
      <trkpt lat="59.219668619446" lon="17.941435408517">
        <ele>36.8</ele>
        <time>2016-05-03T18:24:57Z</time>
      </trkpt>
      <trkpt lat="59.219587398835" lon="17.941239774971">
        <ele>36.8</ele>
        <time>2016-05-03T18:24:59Z</time>
      </trkpt>
      <trkpt lat="59.219539873462" lon="17.941169031735">
        <ele>36.8</ele>
        <time>2016-05-03T18:25:00Z</time>
      </trkpt>
      <trkpt lat="59.219490504071" lon="17.941097534128">
        <ele>36.8</ele>
        <time>2016-05-03T18:25:01Z</time>
      </trkpt>
      <trkpt lat="59.219166627455" lon="17.940631919583">
        <ele>36.8</ele>
        <time>2016-05-03T18:25:07Z</time>
      </trkpt>
      <trkpt lat="59.218822634279" lon="17.940141159338">
        <ele>36.8</ele>
        <time>2016-05-03T18:25:13Z</time>
      </trkpt>
      <trkpt lat="59.218560783723" lon="17.939709156212">
        <ele>36.8</ele>
        <time>2016-05-03T18:25:18Z</time>
      </trkpt>
      <trkpt lat="59.218231542691" lon="17.939219904709">
        <ele>36.8</ele>
        <time>2016-05-03T18:25:24Z</time>
      </trkpt>
      <trkpt lat="59.217879754348" lon="17.938754206345">
        <ele>36.8</ele>
        <time>2016-05-03T18:25:30Z</time>
      </trkpt>
      <trkpt lat="59.217462084271" lon="17.938210472492">
        <ele>36.8</ele>
        <time>2016-05-03T18:25:37Z</time>
      </trkpt>
      <trkpt lat="59.217020861055" lon="17.937594067566">
        <ele>36.8</ele>
        <time>2016-05-03T18:25:45Z</time>
      </trkpt>
      <trkpt lat="59.216586427178" lon="17.936961820849">
        <ele>36.8</ele>
        <time>2016-05-03T18:25:53Z</time>
      </trkpt>
      <trkpt lat="59.216361708439" lon="17.936637189862">
        <ele>36.8</ele>
        <time>2016-05-03T18:25:57Z</time>
      </trkpt>
      <trkpt lat="59.21621661775" lon="17.936331501969">
        <ele>36.8</ele>
        <time>2016-05-03T18:26:00Z</time>
      </trkpt>
      <trkpt lat="59.216023750231" lon="17.935689196972">
        <ele>36.8</ele>
        <time>2016-05-03T18:26:06Z</time>
      </trkpt>
      <trkpt lat="59.215997263427" lon="17.935548297233">
        <ele>36.8</ele>
        <time>2016-05-03T18:26:07Z</time>
      </trkpt>
      <trkpt lat="59.215941859068" lon="17.935104140352">
        <ele>36.8</ele>
        <time>2016-05-03T18:26:10Z</time>
      </trkpt>
      <trkpt lat="59.215920066128" lon="17.934306434929">
        <ele>36.8</ele>
        <time>2016-05-03T18:26:15Z</time>
      </trkpt>
      <trkpt lat="59.215918976481" lon="17.933834282502">
        <ele>36.4</ele>
        <time>2016-05-03T18:26:18Z</time>
      </trkpt>
      <trkpt lat="59.215919227938" lon="17.933679217352">
        <ele>36</ele>
        <time>2016-05-03T18:26:19Z</time>
      </trkpt>
      <trkpt lat="59.21592325125" lon="17.933523062555">
        <ele>35.6</ele>
        <time>2016-05-03T18:26:20Z</time>
      </trkpt>
      <trkpt lat="59.215927861295" lon="17.933363052084">
        <ele>35.2</ele>
        <time>2016-05-03T18:26:21Z</time>
      </trkpt>
      <trkpt lat="59.215932890435" lon="17.933203125432">
        <ele>34.8</ele>
        <time>2016-05-03T18:26:22Z</time>
      </trkpt>
      <trkpt lat="59.215935656462" lon="17.933039343106">
        <ele>34.8</ele>
        <time>2016-05-03T18:26:23Z</time>
      </trkpt>
      <trkpt lat="59.215958371411" lon="17.93191750961">
        <ele>34.8</ele>
        <time>2016-05-03T18:26:30Z</time>
      </trkpt>
      <trkpt lat="59.215956108298" lon="17.931449212857">
        <ele>34.4</ele>
        <time>2016-05-03T18:26:33Z</time>
      </trkpt>
      <trkpt lat="59.215949905692" lon="17.931296997553">
        <ele>33.6</ele>
        <time>2016-05-03T18:26:34Z</time>
      </trkpt>
      <trkpt lat="59.215941188516" lon="17.931138998738">
        <ele>33.2</ele>
        <time>2016-05-03T18:26:35Z</time>
      </trkpt>
      <trkpt lat="59.215939344498" lon="17.930978988267">
        <ele>32.8</ele>
        <time>2016-05-03T18:26:36Z</time>
      </trkpt>
      <trkpt lat="59.215886119433" lon="17.930002664555">
        <ele>32.8</ele>
        <time>2016-05-03T18:26:42Z</time>
      </trkpt>
      <trkpt lat="59.215796768379" lon="17.929368657639">
        <ele>32.8</ele>
        <time>2016-05-03T18:26:46Z</time>
      </trkpt>
      <trkpt lat="59.215752344309" lon="17.929109824567">
        <ele>32.8</ele>
        <time>2016-05-03T18:26:48Z</time>
      </trkpt>
      <trkpt lat="59.215809005953" lon="17.928810255461">
        <ele>32.8</ele>
        <time>2016-05-03T18:26:51Z</time>
      </trkpt>
      <trkpt lat="59.215914701712" lon="17.928718473656">
        <ele>32.8</ele>
        <time>2016-05-03T18:26:53Z</time>
      </trkpt>
      <trkpt lat="59.215944625095" lon="17.928643371832">
        <ele>32.8</ele>
        <time>2016-05-03T18:26:54Z</time>
      </trkpt>
      <trkpt lat="59.215978236514" lon="17.928296109715">
        <ele>32.8</ele>
        <time>2016-05-03T18:26:57Z</time>
      </trkpt>
      <trkpt lat="59.215980415808" lon="17.928168872473">
        <ele>32.4</ele>
        <time>2016-05-03T18:26:58Z</time>
      </trkpt>
      <trkpt lat="59.21597940998" lon="17.928057225565">
        <ele>32</ele>
        <time>2016-05-03T18:26:59Z</time>
      </trkpt>
      <trkpt lat="59.215989719717" lon="17.927958654421">
        <ele>31.4</ele>
        <time>2016-05-03T18:27:00Z</time>
      </trkpt>
      <trkpt lat="59.215992653382" lon="17.927842648925">
        <ele>31</ele>
        <time>2016-05-03T18:27:01Z</time>
      </trkpt>
      <trkpt lat="59.215984271482" lon="17.927714322036">
        <ele>30.6</ele>
        <time>2016-05-03T18:27:02Z</time>
      </trkpt>
      <trkpt lat="59.215973877926" lon="17.927438808983">
        <ele>30.6</ele>
        <time>2016-05-03T18:27:04Z</time>
      </trkpt>
      <trkpt lat="59.215971698632" lon="17.927163715025">
        <ele>30.6</ele>
        <time>2016-05-03T18:27:06Z</time>
      </trkpt>
      <trkpt lat="59.215965496026" lon="17.926723832913">
        <ele>30.6</ele>
        <time>2016-05-03T18:27:09Z</time>
      </trkpt>
      <trkpt lat="59.215955353927" lon="17.92618596639">
        <ele>30.2</ele>
        <time>2016-05-03T18:27:12Z</time>
      </trkpt>
      <trkpt lat="59.215960215429" lon="17.925993769423">
        <ele>29.8</ele>
        <time>2016-05-03T18:27:13Z</time>
      </trkpt>
      <trkpt lat="59.215967256225" lon="17.925813893849">
        <ele>29.2</ele>
        <time>2016-05-03T18:27:14Z</time>
      </trkpt>
      <trkpt lat="59.215972033908" lon="17.925633431542">
        <ele>28.6</ele>
        <time>2016-05-03T18:27:15Z</time>
      </trkpt>
      <trkpt lat="59.215976979229" lon="17.925447772457">
        <ele>28</ele>
        <time>2016-05-03T18:27:16Z</time>
      </trkpt>
      <trkpt lat="59.215978068876" lon="17.925265466132">
        <ele>27.4</ele>
        <time>2016-05-03T18:27:17Z</time>
      </trkpt>
      <trkpt lat="59.215976224858" lon="17.925086596386">
        <ele>26.8</ele>
        <time>2016-05-03T18:27:18Z</time>
      </trkpt>
      <trkpt lat="59.215977398324" lon="17.924914683617">
        <ele>26.2</ele>
        <time>2016-05-03T18:27:19Z</time>
      </trkpt>
      <trkpt lat="59.215978404152" lon="17.924176908779">
        <ele>25.8</ele>
        <time>2016-05-03T18:27:23Z</time>
      </trkpt>
      <trkpt lat="59.215977649781" lon="17.923991501151">
        <ele>25.4</ele>
        <time>2016-05-03T18:27:24Z</time>
      </trkpt>
      <trkpt lat="59.215975889582" lon="17.923804836238">
        <ele>25</ele>
        <time>2016-05-03T18:27:25Z</time>
      </trkpt>
      <trkpt lat="59.215974883754" lon="17.923619093334">
        <ele>24.6</ele>
        <time>2016-05-03T18:27:26Z</time>
      </trkpt>
      <trkpt lat="59.215971279537" lon="17.923426058177">
        <ele>24.2</ele>
        <time>2016-05-03T18:27:27Z</time>
      </trkpt>
      <trkpt lat="59.215947977855" lon="17.922676716317">
        <ele>24.2</ele>
        <time>2016-05-03T18:27:31Z</time>
      </trkpt>
      <trkpt lat="59.215936829928" lon="17.922341105041">
        <ele>24.2</ele>
        <time>2016-05-03T18:27:33Z</time>
      </trkpt>
      <trkpt lat="59.215921658689" lon="17.922188051547">
        <ele>24.2</ele>
        <time>2016-05-03T18:27:34Z</time>
      </trkpt>
      <trkpt lat="59.215991731373" lon="17.921789827478">
        <ele>24.2</ele>
        <time>2016-05-03T18:27:37Z</time>
      </trkpt>
      <trkpt lat="59.216028108819" lon="17.921706092297">
        <ele>24.2</ele>
        <time>2016-05-03T18:27:38Z</time>
      </trkpt>
      <trkpt lat="59.21607915459" lon="17.921668792842">
        <ele>24.2</ele>
        <time>2016-05-03T18:27:39Z</time>
      </trkpt>
      <trkpt lat="59.216140845374" lon="17.921654459793">
        <ele>24.2</ele>
        <time>2016-05-03T18:27:40Z</time>
      </trkpt>
      <trkpt lat="59.216437648453" lon="17.921633169767">
        <ele>24.2</ele>
        <time>2016-05-03T18:27:44Z</time>
      </trkpt>
      <trkpt lat="59.216518617607" lon="17.921635600518">
        <ele>24.2</ele>
        <time>2016-05-03T18:27:45Z</time>
      </trkpt>
      <trkpt lat="59.216941316824" lon="17.921528898931">
        <ele>24.2</ele>
        <time>2016-05-03T18:27:50Z</time>
      </trkpt>
      <trkpt lat="59.217410870862" lon="17.92126662928">
        <ele>24.2</ele>
        <time>2016-05-03T18:27:56Z</time>
      </trkpt>
      <trkpt lat="59.217806245085" lon="17.920994971901">
        <ele>24.2</ele>
        <time>2016-05-03T18:28:01Z</time>
      </trkpt>
      <trkpt lat="59.21825090488" lon="17.920483676001">
        <ele>24.2</ele>
        <time>2016-05-03T18:28:07Z</time>
      </trkpt>
      <trkpt lat="59.21872364404" lon="17.919793594174">
        <ele>24.2</ele>
        <time>2016-05-03T18:28:14Z</time>
      </trkpt>
      <trkpt lat="59.219050454321" lon="17.919338876099">
        <ele>24.2</ele>
        <time>2016-05-03T18:28:19Z</time>
      </trkpt>
      <trkpt lat="59.219108959983" lon="17.919238712394">
        <ele>24.2</ele>
        <time>2016-05-03T18:28:20Z</time>
      </trkpt>
      <trkpt lat="59.219551272846" lon="17.91855424644">
        <ele>24.2</ele>
        <time>2016-05-03T18:28:27Z</time>
      </trkpt>
      <trkpt lat="59.219835754532" lon="17.918132720689">
        <ele>24.2</ele>
        <time>2016-05-03T18:28:32Z</time>
      </trkpt>
      <trkpt lat="59.219890739796" lon="17.918049236965">
        <ele>24.6</ele>
        <time>2016-05-03T18:28:33Z</time>
      </trkpt>
      <trkpt lat="59.219950167467" lon="17.917961729929">
        <ele>25</ele>
        <time>2016-05-03T18:28:34Z</time>
      </trkpt>
      <trkpt lat="59.220008086396" lon="17.91787698892">
        <ele>25.4</ele>
        <time>2016-05-03T18:28:35Z</time>
      </trkpt>
      <trkpt lat="59.220065502411" lon="17.917794678662">
        <ele>26</ele>
        <time>2016-05-03T18:28:36Z</time>
      </trkpt>
      <trkpt lat="59.220124594806" lon="17.917705327608">
        <ele>26.4</ele>
        <time>2016-05-03T18:28:37Z</time>
      </trkpt>
      <trkpt lat="59.220304889475" lon="17.91741430804">
        <ele>26.4</ele>
        <time>2016-05-03T18:28:40Z</time>
      </trkpt>
      <trkpt lat="59.220376806177" lon="17.917311043032">
        <ele>26.4</ele>
        <time>2016-05-03T18:28:41Z</time>
      </trkpt>
      <trkpt lat="59.220427432853" lon="17.917193696432">
        <ele>25.8</ele>
        <time>2016-05-03T18:28:42Z</time>
      </trkpt>
      <trkpt lat="59.220468923258" lon="17.917063190249">
        <ele>25.4</ele>
        <time>2016-05-03T18:28:43Z</time>
      </trkpt>
      <trkpt lat="59.220512425319" lon="17.916937545568">
        <ele>24.8</ele>
        <time>2016-05-03T18:28:44Z</time>
      </trkpt>
      <trkpt lat="59.220551987887" lon="17.916810392145">
        <ele>24.2</ele>
        <time>2016-05-03T18:28:45Z</time>
      </trkpt>
      <trkpt lat="59.220587694781" lon="17.916679634505">
        <ele>23.8</ele>
        <time>2016-05-03T18:28:46Z</time>
      </trkpt>
      <trkpt lat="59.22061627706" lon="17.916542003707">
        <ele>23.8</ele>
        <time>2016-05-03T18:28:47Z</time>
      </trkpt>
      <trkpt lat="59.22063890819" lon="17.916390710412">
        <ele>23.8</ele>
        <time>2016-05-03T18:28:48Z</time>
      </trkpt>
      <trkpt lat="59.220755500419" lon="17.915585042184">
        <ele>23.8</ele>
        <time>2016-05-03T18:28:53Z</time>
      </trkpt>
      <trkpt lat="59.220815850099" lon="17.915272313495">
        <ele>23.4</ele>
        <time>2016-05-03T18:28:55Z</time>
      </trkpt>
      <trkpt lat="59.220860693264" lon="17.915129318281">
        <ele>23</ele>
        <time>2016-05-03T18:28:56Z</time>
      </trkpt>
      <trkpt lat="59.220910314112" lon="17.915003589781">
        <ele>22.6</ele>
        <time>2016-05-03T18:28:57Z</time>
      </trkpt>
      <trkpt lat="59.220961108426" lon="17.914886075543">
        <ele>22.2</ele>
        <time>2016-05-03T18:28:58Z</time>
      </trkpt>
      <trkpt lat="59.221014668767" lon="17.914779122499">
        <ele>21.6</ele>
        <time>2016-05-03T18:28:59Z</time>
      </trkpt>
      <trkpt lat="59.221159759456" lon="17.914489946949">
        <ele>21.6</ele>
        <time>2016-05-03T18:29:02Z</time>
      </trkpt>
      <trkpt lat="59.221312477674" lon="17.914245530745">
        <ele>21.6</ele>
        <time>2016-05-03T18:29:05Z</time>
      </trkpt>
      <trkpt lat="59.221478355475" lon="17.914048472276">
        <ele>21.6</ele>
        <time>2016-05-03T18:29:08Z</time>
      </trkpt>
      <trkpt lat="59.221534681843" lon="17.913731217361">
        <ele>21.6</ele>
        <time>2016-05-03T18:29:11Z</time>
      </trkpt>
      <trkpt lat="59.221438709088" lon="17.913586042853">
        <ele>21.6</ele>
        <time>2016-05-03T18:29:13Z</time>
      </trkpt>
      <trkpt lat="59.221241147705" lon="17.913146412198">
        <ele>21.6</ele>
        <time>2016-05-03T18:29:17Z</time>
      </trkpt>
      <trkpt lat="59.221193454694" lon="17.913027473037">
        <ele>21.6</ele>
        <time>2016-05-03T18:29:18Z</time>
      </trkpt>
      <trkpt lat="59.220889443181" lon="17.912264217223">
        <ele>21.6</ele>
        <time>2016-05-03T18:29:24Z</time>
      </trkpt>
      <trkpt lat="59.220788357467" lon="17.911974706397">
        <ele>21.2</ele>
        <time>2016-05-03T18:29:26Z</time>
      </trkpt>
      <trkpt lat="59.220734545669" lon="17.911833890477">
        <ele>20.2</ele>
        <time>2016-05-03T18:29:27Z</time>
      </trkpt>
      <trkpt lat="59.220682661708" lon="17.911699444801">
        <ele>19.8</ele>
        <time>2016-05-03T18:29:28Z</time>
      </trkpt>
      <trkpt lat="59.220630777747" lon="17.911567681333">
        <ele>19.2</ele>
        <time>2016-05-03T18:29:29Z</time>
      </trkpt>
      <trkpt lat="59.220291646073" lon="17.91068028958">
        <ele>18.8</ele>
        <time>2016-05-03T18:29:36Z</time>
      </trkpt>
      <trkpt lat="59.220243366329" lon="17.910553890528">
        <ele>18.4</ele>
        <time>2016-05-03T18:29:37Z</time>
      </trkpt>
      <trkpt lat="59.220192404377" lon="17.910432604435">
        <ele>18</ele>
        <time>2016-05-03T18:29:38Z</time>
      </trkpt>
      <trkpt lat="59.220140771873" lon="17.910310144876">
        <ele>17.4</ele>
        <time>2016-05-03T18:29:39Z</time>
      </trkpt>
      <trkpt lat="59.22009073193" lon="17.910190618982">
        <ele>17</ele>
        <time>2016-05-03T18:29:40Z</time>
      </trkpt>
      <trkpt lat="59.219943378128" lon="17.909849391833">
        <ele>17</ele>
        <time>2016-05-03T18:29:43Z</time>
      </trkpt>
      <trkpt lat="59.219907335958" lon="17.909743863712">
        <ele>17</ele>
        <time>2016-05-03T18:29:44Z</time>
      </trkpt>
      <trkpt lat="59.219875484738" lon="17.909487293753">
        <ele>17</ele>
        <time>2016-05-03T18:29:46Z</time>
      </trkpt>
      <trkpt lat="59.219961902127" lon="17.909292079302">
        <ele>17</ele>
        <time>2016-05-03T18:29:48Z</time>
      </trkpt>
      <trkpt lat="59.22020556396" lon="17.908966610125">
        <ele>17</ele>
        <time>2016-05-03T18:29:52Z</time>
      </trkpt>
      <trkpt lat="59.220317965239" lon="17.908815065373">
        <ele>17</ele>
        <time>2016-05-03T18:29:54Z</time>
      </trkpt>
      <trkpt lat="59.220365239155" lon="17.908731916925">
        <ele>17</ele>
        <time>2016-05-03T18:29:55Z</time>
      </trkpt>
      <trkpt lat="59.220382170593" lon="17.908611469022">
        <ele>17</ele>
        <time>2016-05-03T18:29:56Z</time>
      </trkpt>
      <trkpt lat="59.22033129246" lon="17.908450871818">
        <ele>17</ele>
        <time>2016-05-03T18:29:58Z</time>
      </trkpt>
      <trkpt lat="59.220273960264" lon="17.908378703659">
        <ele>17</ele>
        <time>2016-05-03T18:30:00Z</time>
      </trkpt>
      <trkpt lat="59.220228781823" lon="17.908300751989">
        <ele>17</ele>
        <time>2016-05-03T18:30:02Z</time>
      </trkpt>
      <trkpt lat="59.220183519563" lon="17.908161360992">
        <ele>17</ele>
        <time>2016-05-03T18:30:06Z</time>
      </trkpt>
      <trkpt lat="59.220083607315" lon="17.907936139339">
        <ele>17</ele>
        <time>2016-05-03T18:30:11Z</time>
      </trkpt>
      <trkpt lat="59.219966595991" lon="17.907612765637">
        <ele>17</ele>
        <time>2016-05-03T18:30:15Z</time>
      </trkpt>
      <trkpt lat="59.219935834418" lon="17.907532634673">
        <ele>17</ele>
        <time>2016-05-03T18:30:16Z</time>
      </trkpt>
      <trkpt lat="59.219850506676" lon="17.907313364169">
        <ele>17</ele>
        <time>2016-05-03T18:30:19Z</time>
      </trkpt>
      <trkpt lat="59.219818152542" lon="17.907253098308">
        <ele>17</ele>
        <time>2016-05-03T18:30:20Z</time>
      </trkpt>
      <trkpt lat="59.219777081232" lon="17.907205070021">
        <ele>17</ele>
        <time>2016-05-03T18:30:21Z</time>
      </trkpt>
      <trkpt lat="59.219755707387" lon="17.907097781701">
        <ele>17</ele>
        <time>2016-05-03T18:30:23Z</time>
      </trkpt>
      <trkpt lat="59.219766687676" lon="17.907086633774">
        <ele>17.4</ele>
        <time>2016-05-03T18:30:25Z</time>
      </trkpt>
      <trkpt lat="59.219769369884" lon="17.907088729249">
        <ele>17.8</ele>
        <time>2016-05-03T18:30:26Z</time>
      </trkpt>
      <trkpt lat="59.219773812291" lon="17.90707942534">
        <ele>18.4</ele>
        <time>2016-05-03T18:30:27Z</time>
      </trkpt>
      <trkpt lat="59.219778757612" lon="17.907062912997">
        <ele>18.8</ele>
        <time>2016-05-03T18:30:28Z</time>
      </trkpt>
    </trkseg>
  </trk>
</gpx>